[[{"header":{"parameterUnit":"m.s-1","parameterCategory":1,"la1":31.0,"la2":29.5877,"lo1":-88.7671,"lo2":-86.6584,"dy":0.0162,"dx":0.0185,"nx":115,"ny":88,"refTime":"2024-02-12T18:00:00:Z","depth":0,"parameterNumber":2,"parameterNumberName":"U-component_of_WINDS"},"data":[0.0,0.0,0.0,0.0,0.0,0.0,0.0,0.0,0.0,0.0,0.0,0.0,0.0,0.0,0.0,0.0,0.0,0.0,0.0,0.0,0.0,0.0,0.0,0.0,0.0,0.0,0.0,0.0,0.0,0.0,0.0,0.0,0.0,0.0,0.0,0.0,0.0,0.0,0.0,0.0,0.0,0.0,0.0,0.0,0.0,0.0,0.0,0.0,0.0,0.0,0.0,0.0,0.0,0.0,0.0,0.0,0.0,0.0,0.0,0.0,0.0,0.0,0.0,0.0,0.0,0.0,0.0,0.0,0.0,0.0,0.0,0.0,0.0,0.0,0.0,0.0,0.0,0.0,0.0,0.0,0.0,0.0,0.0,0.0,0.0,0.0,0.0,0.0,0.0,0.0,0.0,0.0,0.0,0.0,0.0,0.0,0.0,0.0,0.0,0.0,0.0,0.0,0.0,0.0,0.0,0.0,0.0,0.0,0.0,0.0,0.0,0.0,0.0,0.0,0.0,0.0,0.0,0.0,0.0,0.0,0.0,0.0,0.0,0.0,0.0,0.0,0.0,0.0,0.0,0.0,0.0,0.0,0.0,0.0,0.0,0.0,0.0,0.0,0.0,0.0,0.0,0.0,0.0,0.0,0.0,0.0,0.0,0.0,0.0,0.0,0.0,0.0,0.0,0.0,0.0,0.0,0.0,0.0,0.0,0.0,0.0,0.0,0.0,0.0,0.0,0.0,0.0,0.0,0.0,0.0,0.0,0.0,0.0,0.0,0.0,0.0,0.0,0.0,0.0,0.0,0.0,0.0,0.0,0.0,0.0,0.0,0.0,0.0,0.0,0.0,0.0,0.0,0.0,0.0,0.0,0.0,0.0,0.0,0.0,0.0,0.0,0.0,0.0,0.0,0.0,0.0,0.0,0.0,0.0,0.0,0.0,0.0,0.0,0.0,0.0,0.0,0.0,0.0,0.0,0.0,0.0,0.0,0.0,0.0,0.0,0.0,0.0,0.0,0.0,0.0,0.0,0.0,0.0,0.0,0.0,0.0,0.0,0.0,0.0,0.0,0.0,0.0,0.0,0.0,0.0,0.0,0.0,0.0,0.0,0.0,0.0,0.0,0.0,0.0,0.0,0.0,0.0,0.0,0.0,0.0,0.0,0.0,0.0,0.0,0.0,0.0,0.0,0.0,0.0,0.0,0.0,0.0,0.0,0.0,0.0,0.0,0.0,0.0,0.0,0.0,0.0,0.0,0.0,0.0,0.0,0.0,0.0,0.0,0.0,0.0,0.0,0.0,0.0,0.0,0.0,0.0,0.0,0.0,0.0,0.0,0.0,0.0,0.0,0.0,0.0,0.0,0.0,0.0,0.0,0.0,0.0,0.0,0.0,0.0,0.0,0.0,0.0,0.0,0.0,0.0,0.0,0.0,0.0,0.0,0.0,0.0,0.0,0.0,0.0,0.0,0.0,0.0,0.0,0.0,0.0,0.0,0.0,0.0,0.0,0.0,0.0,0.0,0.0,0.0,0.0,0.0,0.0,0.0,0.0,0.0,0.0,0.0,0.0,0.0,0.0,0.0,0.0,0.0,0.0,0.0,0.0,0.0,0.0,0.0,0.0,0.0,0.0,0.0,0.0,0.0,0.0,0.0,0.0,0.0,0.0,0.0,0.0,0.0,0.0,0.0,0.0,0.0,0.0,0.0,0.0,0.0,0.0,0.0,0.0,0.0,0.0,0.0,0.0,0.0,0.0,0.0,0.0,0.0,0.0,0.0,0.0,0.0,0.0,0.0,0.0,0.0,0.0,0.0,0.0,0.0,0.0,0.0,0.0,0.0,0.0,0.0,0.0,0.0,0.0,0.0,0.0,0.0,0.0,0.0,0.0,0.0,0.0,0.0,0.0,0.0,0.0,0.0,0.0,0.0,0.0,0.0,0.0,0.0,0.0,0.0,0.0,0.0,0.0,0.0,0.0,0.0,0.0,0.0,0.0,0.0,0.0,0.0,0.0,0.0,0.0,0.0,0.0,0.0,0.0,0.0,0.0,0.0,0.0,0.0,0.0,0.0,0.0,0.0,0.0,0.0,0.0,0.0,0.0,0.0,0.0,0.0,0.0,0.0,0.0,0.0,0.0,0.0,0.0,0.0,0.0,0.0,0.0,0.0,0.0,0.0,0.0,0.0,0.0,0.0,0.0,0.0,0.0,0.0,0.0,0.0,0.0,0.0,0.0,0.0,0.0,0.0,0.0,0.0,0.0,0.0,0.0,0.0,0.0,0.0,0.0,0.0,0.0,0.0,0.0,0.0,0.0,0.0,0.0,0.0,0.0,0.0,0.0,0.0,0.0,0.0,0.0,0.0,0.0,0.0,0.0,0.0,0.0,0.0,0.0,0.0,0.0,0.0,0.0,0.0,0.0,0.0,0.0,0.0,0.0,0.0,0.0,0.0,0.0,0.0,0.0,0.0,0.0,0.0,0.0,0.0,0.0,0.0,0.0,0.0,0.0,0.0,0.0,0.0,0.0,0.0,0.0,0.0,0.0,0.0,0.0,0.0,0.0,0.0,0.0,0.0,0.0,0.0,0.0,0.0,0.0,0.0,0.0,0.0,0.0,0.0,0.0,0.0,0.0,0.0,0.0,0.0,0.0,0.0,0.0,0.0,0.0,0.0,0.0,0.0,0.0,0.0,0.0,0.0,0.0,0.0,0.0,0.0,0.0,0.0,0.0,0.0,0.0,0.0,0.0,0.0,0.0,0.0,0.0,0.0,0.0,0.0,0.0,0.0,0.0,0.0,0.0,0.0,0.0,0.0,0.0,0.0,0.0,0.0,0.0,0.0,0.0,0.0,0.0,0.0,0.0,0.0,0.0,0.0,0.0,0.0,0.0,0.0,0.0,0.0,0.0,0.0,0.0,0.0,0.0,0.0,0.0,0.0,0.0,0.0,0.0,0.0,0.0,0.0,0.0,0.0,0.0,0.0,0.0,0.0,0.0,0.0,0.0,0.0,0.0,0.0,0.0,0.0,0.0,0.0,0.0,0.0,0.0,0.0,0.0,0.0,0.0,0.0,0.0,0.0,0.0,0.0,0.0,0.0,0.0,0.0,0.0,0.0,0.0,0.0,0.0,0.0,0.0,0.0,0.0,0.0,0.0,0.0,0.0,0.0,0.0,0.0,0.0,0.0,0.0,0.0,0.0,0.0,0.0,0.0,0.0,0.0,0.0,0.0,0.0,0.0,0.0,0.0,0.0,0.0,0.0,0.0,0.0,0.0,0.0,0.0,0.0,0.0,0.0,0.0,0.0,0.0,0.0,0.0,0.0,0.0,0.0,0.0,0.0,0.0,0.0,0.0,0.0,0.0,0.0,0.0,0.0,0.0,0.0,0.0,0.0,0.0,0.0,0.0,0.0,0.0,0.0,0.0,0.0,0.0,0.0,0.0,0.0,0.0,0.0,0.0,0.0,0.0,0.0,0.0,0.0,0.0,0.0,0.0,0.0,0.0,0.0,0.0,0.0,0.0,0.0,0.0,0.0,0.0,0.0,0.0,0.0,0.0,0.0,0.0,0.0,0.0,0.0,0.0,0.0,0.0,0.0,0.0,0.0,0.0,0.0,0.0,0.0,0.0,0.0,0.0,0.0,0.0,0.0,0.0,0.0,0.0,0.0,0.0,0.0,0.0,0.0,0.0,0.0,0.0,0.0,0.0,0.0,0.0,0.0,0.0,0.0,0.0,0.0,0.0,0.0,0.0,0.0,0.0,0.0,0.0,0.0,0.0,0.0,0.0,0.0,0.0,0.0,0.0,0.0,0.0,0.0,0.0,0.0,0.0,0.0,0.0,0.0,0.0,0.0,0.0,0.0,0.0,0.0,0.0,0.0,0.0,0.0,0.0,0.0,0.0,0.0,0.0,0.0,0.0,0.0,0.0,0.0,0.0,0.0,0.0,0.0,0.0,0.0,0.0,0.0,0.0,0.0,0.0,0.0,0.0,0.0,0.0,0.0,0.0,0.0,0.0,0.0,0.0,0.0,0.0,0.0,0.0,0.0,0.0,0.0,0.0,0.0,0.0,0.0,0.0,0.0,0.0,0.0,0.0,0.0,0.0,0.0,0.0,0.0,0.0,0.0,0.0,0.0,0.0,0.0,0.0,0.0,0.0,0.0,0.0,0.0,0.0,0.0,0.0,0.0,0.0,0.0,0.0,0.0,0.0,0.0,0.0,0.0,0.0,0.0,0.0,0.0,0.0,0.0,0.0,0.0,0.0,0.0,0.0,0.0,0.0,5.6157,0.0,0.0,0.0,0.0,0.0,0.0,0.0,0.0,0.0,0.0,0.0,0.0,0.0,0.0,0.0,0.0,0.0,0.0,0.0,0.0,0.0,0.0,0.0,0.0,0.0,0.0,0.0,0.0,0.0,0.0,0.0,0.0,0.0,0.0,0.0,0.0,0.0,0.0,0.0,0.0,0.0,0.0,0.0,0.0,0.0,0.0,0.0,0.0,0.0,0.0,0.0,0.0,0.0,0.0,0.0,0.0,0.0,0.0,0.0,0.0,0.0,0.0,0.0,0.0,0.0,0.0,0.0,0.0,0.0,0.0,0.0,0.0,0.0,0.0,0.0,0.0,0.0,0.0,0.0,0.0,0.0,0.0,0.0,0.0,0.0,0.0,0.0,0.0,0.0,0.0,0.0,0.0,0.0,0.0,0.0,0.0,0.0,0.0,0.0,0.0,0.0,0.0,0.0,0.0,0.0,0.0,0.0,0.0,0.0,0.0,5.6421,5.6409,5.6409,5.635,5.6306,0.0,0.0,0.0,0.0,0.0,0.0,0.0,0.0,0.0,0.0,0.0,0.0,0.0,0.0,0.0,0.0,0.0,0.0,0.0,0.0,0.0,0.0,0.0,0.0,0.0,0.0,0.0,0.0,0.0,0.0,0.0,0.0,0.0,0.0,0.0,0.0,0.0,0.0,0.0,0.0,0.0,0.0,0.0,0.0,0.0,0.0,0.0,0.0,0.0,0.0,0.0,0.0,0.0,0.0,0.0,0.0,0.0,0.0,0.0,0.0,0.0,0.0,0.0,0.0,0.0,0.0,0.0,0.0,0.0,0.0,0.0,0.0,0.0,0.0,0.0,0.0,0.0,0.0,0.0,0.0,0.0,0.0,0.0,0.0,0.0,0.0,0.0,0.0,0.0,0.0,0.0,0.0,0.0,0.0,0.0,0.0,0.0,0.0,0.0,0.0,0.0,0.0,0.0,0.0,0.0,0.0,0.0,0.0,0.0,0.0,0.0,0.0,5.696,5.6831,5.6644,0.0,0.0,0.0,0.0,0.0,0.0,0.0,0.0,0.0,0.0,0.0,0.0,0.0,0.0,0.0,0.0,0.0,0.0,0.0,0.0,0.0,0.0,0.0,0.0,0.0,0.0,0.0,0.0,0.0,0.0,0.0,0.0,0.0,0.0,0.0,0.0,0.0,0.0,0.0,0.0,0.0,0.0,0.0,0.0,0.0,0.0,0.0,0.0,0.0,0.0,0.0,0.0,0.0,0.0,0.0,0.0,0.0,0.0,0.0,0.0,0.0,0.0,0.0,0.0,0.0,0.0,0.0,0.0,0.0,0.0,0.0,0.0,0.0,0.0,0.0,0.0,0.0,0.0,0.0,0.0,0.0,0.0,0.0,0.0,0.0,0.0,0.0,0.0,0.0,0.0,0.0,0.0,0.0,0.0,0.0,0.0,0.0,0.0,0.0,0.0,0.0,0.0,0.0,0.0,0.0,0.0,0.0,0.0,0.0,0.0,5.8666,5.8676,5.8676,0.0,5.7586,0.0,0.0,0.0,0.0,0.0,0.0,0.0,0.0,0.0,0.0,0.0,0.0,0.0,0.0,0.0,0.0,0.0,0.0,0.0,0.0,0.0,0.0,0.0,0.0,0.0,0.0,0.0,0.0,0.0,0.0,0.0,0.0,0.0,0.0,0.0,0.0,0.0,0.0,0.0,0.0,0.0,0.0,0.0,0.0,0.0,0.0,0.0,0.0,0.0,0.0,0.0,0.0,0.0,0.0,0.0,0.0,0.0,0.0,0.0,0.0,0.0,0.0,0.0,0.0,0.0,0.0,0.0,0.0,0.0,0.0,0.0,0.0,0.0,0.0,0.0,0.0,0.0,0.0,0.0,0.0,0.0,0.0,0.0,0.0,0.0,0.0,0.0,0.0,0.0,0.0,0.0,0.0,0.0,0.0,0.0,0.0,0.0,0.0,0.0,0.0,0.0,0.0,0.0,0.0,0.0,0.0,0.0,0.0,0.0,0.0,5.8849,5.8836,5.8836,5.8444,0.0,0.0,0.0,0.0,0.0,0.0,0.0,0.0,0.0,0.0,0.0,0.0,0.0,0.0,0.0,0.0,0.0,0.0,0.0,0.0,0.0,0.0,0.0,0.0,0.0,0.0,0.0,0.0,0.0,0.0,0.0,0.0,0.0,0.0,0.0,0.0,0.0,0.0,0.0,0.0,0.0,0.0,0.0,0.0,0.0,0.0,0.0,0.0,0.0,0.0,0.0,0.0,0.0,0.0,0.0,0.0,0.0,0.0,0.0,0.0,0.0,0.0,0.0,0.0,0.0,0.0,0.0,0.0,0.0,0.0,0.0,0.0,0.0,0.0,0.0,0.0,0.0,0.0,0.0,0.0,0.0,0.0,0.0,0.0,0.0,0.0,0.0,0.0,0.0,0.0,0.0,0.0,0.0,0.0,0.0,0.0,0.0,0.0,0.0,0.0,0.0,0.0,0.0,0.0,0.0,0.0,0.0,0.0,0.0,0.0,5.9483,5.9482,5.9483,5.9491,5.9112,5.8299,0.0,0.0,0.0,0.0,0.0,0.0,0.0,0.0,0.0,0.0,0.0,0.0,0.0,0.0,0.0,0.0,0.0,0.0,0.0,0.0,0.0,0.0,0.0,0.0,0.0,0.0,0.0,0.0,0.0,0.0,0.0,0.0,0.0,0.0,0.0,0.0,0.0,0.0,0.0,0.0,0.0,0.0,0.0,0.0,0.0,0.0,0.0,0.0,0.0,0.0,0.0,0.0,0.0,0.0,0.0,0.0,0.0,0.0,0.0,0.0,0.0,0.0,0.0,0.0,0.0,0.0,0.0,0.0,0.0,0.0,0.0,0.0,0.0,0.0,0.0,0.0,0.0,0.0,0.0,0.0,0.0,0.0,0.0,0.0,0.0,0.0,0.0,0.0,0.0,0.0,0.0,0.0,0.0,0.0,0.0,0.0,0.0,0.0,0.0,0.0,0.0,0.0,0.0,0.0,0.0,0.0,0.0,0.0,6.1151,6.1191,6.119,6.1192,6.1188,6.0778,0.0,0.0,0.0,0.0,0.0,0.0,0.0,0.0,0.0,0.0,0.0,0.0,0.0,0.0,0.0,0.0,0.0,0.0,0.0,0.0,0.0,0.0,0.0,0.0,0.0,0.0,0.0,0.0,0.0,0.0,0.0,0.0,0.0,0.0,0.0,0.0,0.0,0.0,0.0,0.0,0.0,0.0,0.0,0.0,0.0,0.0,0.0,0.0,0.0,0.0,0.0,0.0,0.0,0.0,0.0,0.0,0.0,0.0,0.0,0.0,0.0,0.0,0.0,0.0,0.0,0.0,0.0,0.0,0.0,0.0,0.0,0.0,0.0,0.0,0.0,0.0,0.0,0.0,0.0,0.0,0.0,0.0,0.0,0.0,0.0,0.0,0.0,0.0,0.0,0.0,0.0,0.0,0.0,0.0,0.0,0.0,0.0,0.0,0.0,0.0,0.0,0.0,0.0,0.0,0.0,0.0,0.0,0.0,0.0,6.2032,6.2612,6.2883,6.2885,6.2357,6.1666,0.0,0.0,0.0,0.0,0.0,0.0,0.0,0.0,0.0,0.0,0.0,0.0,0.0,0.0,0.0,0.0,0.0,0.0,0.0,0.0,0.0,0.0,0.0,0.0,0.0,0.0,0.0,0.0,0.0,0.0,0.0,0.0,0.0,0.0,0.0,0.0,0.0,0.0,0.0,0.0,0.0,0.0,0.0,0.0,0.0,0.0,0.0,0.0,0.0,0.0,0.0,0.0,0.0,0.0,0.0,0.0,0.0,0.0,0.0,0.0,0.0,0.0,0.0,0.0,0.0,0.0,0.0,0.0,0.0,0.0,0.0,0.0,0.0,0.0,0.0,0.0,0.0,0.0,0.0,0.0,0.0,0.0,0.0,0.0,0.0,0.0,0.0,0.0,0.0,0.0,0.0,0.0,0.0,0.0,0.0,0.0,0.0,0.0,0.0,0.0,0.0,0.0,0.0,0.0,0.0,0.0,0.0,0.0,0.0,6.3238,0.0,6.4192,6.4156,6.3628,6.2776,0.0,0.0,0.0,0.0,0.0,0.0,0.0,0.0,0.0,0.0,0.0,0.0,0.0,0.0,0.0,0.0,0.0,0.0,0.0,0.0,0.0,0.0,0.0,0.0,0.0,0.0,0.0,0.0,0.0,0.0,0.0,0.0,0.0,0.0,0.0,0.0,0.0,0.0,0.0,0.0,0.0,0.0,0.0,0.0,0.0,0.0,0.0,0.0,0.0,0.0,0.0,0.0,0.0,0.0,0.0,0.0,0.0,0.0,0.0,0.0,0.0,0.0,0.0,0.0,0.0,0.0,0.0,0.0,0.0,0.0,0.0,0.0,0.0,0.0,0.0,0.0,0.0,0.0,0.0,0.0,0.0,0.0,0.0,0.0,0.0,0.0,0.0,0.0,0.0,0.0,0.0,0.0,0.0,0.0,0.0,0.0,0.0,0.0,0.0,0.0,0.0,0.0,0.0,0.0,0.0,0.0,0.0,0.0,6.3144,6.4829,6.5083,6.5191,6.5072,6.5071,6.422,0.0,0.0,0.0,0.0,0.0,0.0,0.0,0.0,0.0,0.0,0.0,0.0,0.0,0.0,0.0,0.0,0.0,0.0,0.0,0.0,0.0,0.0,0.0,0.0,0.0,0.0,0.0,0.0,0.0,0.0,0.0,0.0,0.0,0.0,0.0,0.0,0.0,0.0,0.0,0.0,0.0,0.0,0.0,0.0,0.0,0.0,0.0,0.0,0.0,0.0,0.0,0.0,0.0,0.0,0.0,0.0,0.0,0.0,0.0,0.0,0.0,0.0,0.0,0.0,0.0,0.0,0.0,0.0,0.0,0.0,0.0,0.0,0.0,0.0,0.0,0.0,0.0,0.0,0.0,0.0,0.0,0.0,0.0,0.0,0.0,0.0,0.0,0.0,0.0,0.0,0.0,0.0,0.0,0.0,0.0,0.0,0.0,0.0,0.0,0.0,0.0,0.0,0.0,0.0,0.0,0.0,0.0,0.0,0.0,6.7487,6.8132,6.8472,6.8434,6.7284,6.614,0.0,0.0,0.0,0.0,0.0,0.0,0.0,0.0,0.0,0.0,0.0,0.0,0.0,0.0,0.0,0.0,0.0,0.0,0.0,0.0,0.0,0.0,0.0,0.0,0.0,0.0,0.0,0.0,0.0,0.0,0.0,0.0,0.0,0.0,0.0,0.0,0.0,0.0,0.0,0.0,0.0,0.0,0.0,0.0,0.0,0.0,0.0,0.0,0.0,0.0,0.0,0.0,0.0,0.0,0.0,0.0,0.0,0.0,0.0,0.0,0.0,0.0,0.0,0.0,0.0,0.0,0.0,0.0,0.0,0.0,0.0,0.0,0.0,0.0,0.0,0.0,0.0,0.0,0.0,0.0,0.0,0.0,0.0,0.0,0.0,0.0,0.0,0.0,0.0,0.0,0.0,0.0,0.0,0.0,0.0,0.0,0.0,0.0,0.0,0.0,0.0,0.0,0.0,0.0,0.0,0.0,0.0,0.0,0.0,7.1853,7.1908,7.1841,7.1842,7.0489,6.8743,6.6573,0.0,0.0,0.0,0.0,0.0,0.0,0.0,0.0,0.0,0.0,0.0,0.0,0.0,0.0,0.0,0.0,0.0,0.0,0.0,0.0,0.0,0.0,0.0,0.0,0.0,0.0,0.0,0.0,0.0,0.0,0.0,0.0,0.0,0.0,0.0,0.0,0.0,0.0,0.0,0.0,0.0,0.0,0.0,0.0,0.0,0.0,0.0,0.0,0.0,0.0,0.0,0.0,0.0,0.0,0.0,0.0,0.0,0.0,0.0,0.0,0.0,0.0,0.0,0.0,0.0,0.0,0.0,0.0,0.0,0.0,0.0,0.0,0.0,0.0,0.0,0.0,0.0,0.0,0.0,0.0,0.0,0.0,0.0,0.0,0.0,0.0,0.0,0.0,0.0,0.0,0.0,0.0,0.0,0.0,0.0,0.0,0.0,0.0,0.0,0.0,0.0,0.0,0.0,0.0,0.0,0.0,0.0,0.0,7.751,7.6181,7.5401,7.5173,7.4323,7.191,0.0,0.0,0.0,0.0,0.0,0.0,0.0,0.0,0.0,0.0,0.0,0.0,0.0,0.0,0.0,0.0,0.0,0.0,0.0,0.0,0.0,0.0,0.0,0.0,0.0,0.0,0.0,0.0,0.0,0.0,0.0,0.0,0.0,0.0,0.0,0.0,0.0,0.0,0.0,0.0,0.0,0.0,0.0,0.0,0.0,0.0,0.0,0.0,0.0,0.0,0.0,0.0,0.0,0.0,0.0,0.0,0.0,0.0,0.0,0.0,0.0,0.0,0.0,0.0,0.0,0.0,0.0,0.0,0.0,0.0,0.0,0.0,0.0,0.0,0.0,0.0,0.0,0.0,0.0,0.0,0.0,0.0,0.0,0.0,0.0,0.0,0.0,0.0,0.0,0.0,0.0,0.0,0.0,0.0,0.0,0.0,0.0,0.0,0.0,0.0,0.0,0.0,0.0,0.0,0.0,0.0,0.0,0.0,0.0,7.9139,8.0676,8.0253,7.7827,7.6286,7.409,0.0,0.0,0.0,0.0,0.0,0.0,0.0,0.0,0.0,0.0,0.0,0.0,0.0,0.0,0.0,0.0,0.0,0.0,0.0,0.0,0.0,0.0,0.0,0.0,0.0,0.0,0.0,0.0,0.0,0.0,0.0,0.0,0.0,0.0,0.0,0.0,0.0,0.0,0.0,0.0,0.0,0.0,0.0,0.0,0.0,0.0,0.0,0.0,0.0,0.0,0.0,0.0,0.0,0.0,0.0,0.0,0.0,0.0,0.0,0.0,0.0,0.0,0.0,0.0,0.0,0.0,0.0,0.0,0.0,0.0,0.0,0.0,0.0,0.0,0.0,0.0,0.0,0.0,0.0,0.0,0.0,0.0,0.0,0.0,0.0,0.0,0.0,0.0,0.0,0.0,0.0,0.0,0.0,0.0,0.0,0.0,0.0,0.0,0.0,0.0,0.0,0.0,0.0,0.0,0.0,0.0,0.0,0.0,7.8151,8.0861,8.3399,8.3603,8.1365,7.8985,7.6311,0.0,0.0,0.0,0.0,0.0,0.0,0.0,0.0,0.0,0.0,0.0,0.0,0.0,0.0,0.0,0.0,0.0,0.0,0.0,0.0,0.0,0.0,0.0,0.0,0.0,0.0,0.0,0.0,0.0,0.0,0.0,0.0,0.0,0.0,0.0,0.0,0.0,0.0,0.0,0.0,0.0,0.0,0.0,0.0,0.0,0.0,0.0,0.0,0.0,0.0,0.0,0.0,0.0,0.0,0.0,0.0,0.0,0.0,0.0,0.0,0.0,0.0,0.0,0.0,0.0,0.0,0.0,0.0,0.0,0.0,0.0,0.0,0.0,0.0,0.0,0.0,0.0,0.0,0.0,0.0,0.0,0.0,0.0,0.0,0.0,0.0,0.0,0.0,0.0,0.0,0.0,0.0,0.0,0.0,0.0,0.0,0.0,0.0,0.0,0.0,0.0,0.0,0.0,0.0,0.0,0.0,0.0,0.0,8.0666,8.2441,8.4822,8.5743,8.4976,8.1861,7.8556,0.0,0.0,0.0,0.0,0.0,0.0,0.0,0.0,0.0,0.0,0.0,0.0,0.0,0.0,0.0,0.0,0.0,0.0,0.0,0.0,0.0,0.0,0.0,0.0,0.0,0.0,0.0,0.0,0.0,0.0,0.0,0.0,0.0,0.0,0.0,0.0,0.0,0.0,0.0,0.0,0.0,0.0,0.0,0.0,0.0,0.0,0.0,0.0,0.0,0.0,0.0,0.0,0.0,0.0,0.0,0.0,0.0,0.0,0.0,0.0,0.0,0.0,0.0,0.0,0.0,0.0,0.0,0.0,0.0,0.0,0.0,0.0,0.0,0.0,0.0,0.0,0.0,0.0,0.0,0.0,0.0,0.0,0.0,0.0,0.0,0.0,0.0,0.0,0.0,0.0,0.0,0.0,0.0,0.0,0.0,0.0,0.0,0.0,0.0,0.0,0.0,0.0,0.0,0.0,0.0,0.0,0.0,0.0,8.0935,8.3291,8.5132,8.6012,8.5859,8.3226,8.0498,0.0,0.0,0.0,0.0,0.0,0.0,0.0,0.0,0.0,0.0,0.0,0.0,0.0,0.0,0.0,0.0,0.0,0.0,0.0,0.0,0.0,0.0,0.0,0.0,0.0,0.0,0.0,0.0,0.0,0.0,0.0,0.0,0.0,0.0,0.0,0.0,0.0,0.0,0.0,0.0,0.0,0.0,0.0,0.0,0.0,0.0,0.0,0.0,6.6295,0.0,0.0,0.0,0.0,0.0,0.0,0.0,0.0,0.0,0.0,0.0,0.0,0.0,0.0,0.0,0.0,0.0,0.0,0.0,0.0,0.0,0.0,0.0,0.0,0.0,0.0,0.0,0.0,0.0,0.0,0.0,0.0,0.0,0.0,0.0,0.0,0.0,0.0,0.0,0.0,0.0,0.0,0.0,0.0,0.0,0.0,0.0,0.0,0.0,0.0,0.0,0.0,0.0,0.0,0.0,0.0,0.0,0.0,0.0,8.2014,8.4134,8.5438,8.6091,8.6015,8.4437,8.2131,0.0,0.0,0.0,0.0,0.0,0.0,0.0,0.0,0.0,0.0,0.0,0.0,0.0,0.0,0.0,0.0,0.0,0.0,0.0,0.0,0.0,0.0,0.0,0.0,0.0,0.0,0.0,0.0,0.0,0.0,0.0,0.0,0.0,0.0,0.0,0.0,0.0,0.0,0.0,0.0,0.0,0.0,0.0,0.0,0.0,0.0,0.0,0.0,0.0,0.0,0.0,0.0,0.0,0.0,0.0,0.0,0.0,0.0,0.0,0.0,0.0,0.0,0.0,0.0,0.0,0.0,0.0,0.0,0.0,0.0,0.0,0.0,0.0,0.0,0.0,0.0,0.0,0.0,0.0,0.0,0.0,0.0,0.0,0.0,0.0,0.0,0.0,0.0,0.0,0.0,0.0,0.0,0.0,0.0,0.0,0.0,0.0,0.0,0.0,0.0,0.0,0.0,0.0,0.0,0.0,0.0,0.0,8.1135,8.3285,8.5205,8.582,8.6091,8.6089,8.5318,8.3356,8.0089,0.0,0.0,0.0,0.0,0.0,0.0,0.0,0.0,0.0,0.0,0.0,0.0,0.0,0.0,0.0,0.0,0.0,0.0,0.0,0.0,0.0,0.0,0.0,0.0,0.0,0.0,0.0,0.0,0.0,0.0,0.0,0.0,0.0,0.0,0.0,0.0,0.0,0.0,6.2499,6.612,0.0,0.0,0.0,0.0,0.0,0.0,0.0,0.0,7.1007,0.0,0.0,0.0,0.0,0.0,0.0,0.0,0.0,0.0,0.0,0.0,0.0,0.0,0.0,0.0,0.0,0.0,0.0,0.0,0.0,0.0,0.0,0.0,0.0,0.0,0.0,0.0,0.0,0.0,0.0,0.0,0.0,0.0,0.0,0.0,0.0,0.0,0.0,0.0,0.0,0.0,0.0,0.0,0.0,0.0,0.0,0.0,0.0,0.0,0.0,0.0,0.0,0.0,0.0,0.0,0.0,8.0592,8.1747,8.3824,8.6903,8.6399,8.6091,8.6089,8.532,8.3628,8.0939,0.0,0.0,0.0,0.0,0.0,0.0,0.0,0.0,0.0,0.0,0.0,0.0,0.0,0.0,0.0,0.0,0.0,0.0,0.0,0.0,0.0,0.0,0.0,0.0,0.0,0.0,0.0,0.0,0.0,0.0,0.0,0.0,0.0,0.0,0.0,0.0,0.0,0.0,0.0,6.9445,7.1586,0.0,0.0,0.0,0.0,0.0,0.0,0.0,0.0,7.3204,0.0,0.0,0.0,0.0,0.0,0.0,0.0,0.0,0.0,0.0,0.0,0.0,0.0,0.0,0.0,0.0,0.0,0.0,0.0,0.0,0.0,0.0,0.0,0.0,0.0,0.0,0.0,0.0,0.0,0.0,0.0,0.0,0.0,0.0,0.0,0.0,0.0,0.0,0.0,0.0,0.0,0.0,0.0,0.0,0.0,0.0,0.0,0.0,0.0,0.0,0.0,0.0,0.0,0.0,0.0,8.1556,8.2978,8.4865,8.7288,8.6553,8.6091,8.6089,8.532,8.3702,0.0,0.0,0.0,0.0,0.0,0.0,0.0,0.0,0.0,0.0,0.0,0.0,0.0,0.0,0.0,0.0,0.0,0.0,0.0,0.0,0.0,0.0,0.0,0.0,0.0,0.0,0.0,0.0,0.0,0.0,0.0,0.0,0.0,0.0,0.0,0.0,0.0,0.0,0.0,0.0,7.2171,7.4236,7.5481,0.0,0.0,0.0,0.0,0.0,0.0,7.602,7.4844,0.0,0.0,0.0,0.0,0.0,0.0,0.0,0.0,0.0,0.0,0.0,0.0,0.0,0.0,0.0,0.0,0.0,0.0,0.0,0.0,0.0,0.0,0.0,0.0,0.0,0.0,0.0,0.0,0.0,0.0,0.0,0.0,0.0,0.0,0.0,0.0,0.0,0.0,0.0,0.0,0.0,0.0,0.0,0.0,0.0,0.0,0.0,0.0,0.0,0.0,0.0,0.0,0.0,0.0,0.0,8.271,8.436,8.6051,8.7786,8.7055,8.6555,8.6361,8.5435,8.3706,0.0,0.0,0.0,0.0,0.0,0.0,0.0,0.0,0.0,0.0,0.0,0.0,0.0,0.0,0.0,0.0,0.0,0.0,0.0,0.0,0.0,0.0,0.0,0.0,0.0,0.0,0.0,0.0,0.0,0.0,0.0,0.0,0.0,0.0,0.0,0.0,0.0,0.0,0.0,0.0,0.0,7.6411,7.8259,7.9038,0.0,0.0,0.0,0.0,7.8153,7.7505,0.0,0.0,0.0,0.0,0.0,0.0,0.0,0.0,0.0,0.0,0.0,0.0,0.0,0.0,0.0,0.0,0.0,0.0,0.0,0.0,0.0,0.0,0.0,0.0,0.0,0.0,0.0,0.0,0.0,0.0,0.0,0.0,0.0,0.0,0.0,0.0,0.0,0.0,0.0,0.0,0.0,0.0,0.0,0.0,0.0,0.0,0.0,0.0,0.0,0.0,0.0,0.0,0.0,0.0,0.0,0.0,8.4397,8.5514,8.7126,8.9432,8.8786,8.8021,8.725,8.5745,8.3704,0.0,0.0,0.0,0.0,0.0,0.0,0.0,0.0,0.0,0.0,0.0,0.0,0.0,0.0,0.0,0.0,0.0,0.0,0.0,0.0,0.0,0.0,0.0,0.0,0.0,0.0,0.0,0.0,0.0,0.0,0.0,0.0,0.0,0.0,0.0,0.0,0.0,0.0,0.0,0.0,0.0,7.7335,7.9734,8.0173,8.0173,0.0,0.0,7.8982,7.9636,7.966,0.0,0.0,0.0,0.0,0.0,0.0,0.0,0.0,0.0,0.0,0.0,0.0,0.0,0.0,0.0,0.0,0.0,0.0,0.0,0.0,0.0,0.0,0.0,0.0,0.0,0.0,0.0,0.0,0.0,0.0,0.0,0.0,0.0,0.0,0.0,0.0,0.0,0.0,0.0,0.0,0.0,0.0,0.0,0.0,0.0,0.0,0.0,0.0,0.0,0.0,0.0,0.0,0.0,0.0,0.0,8.1244,8.482,8.6673,8.8325,8.9816,8.9096,8.8526,8.8135,8.6476,8.4591,0.0,0.0,0.0,0.0,0.0,0.0,0.0,0.0,0.0,0.0,0.0,0.0,0.0,0.0,0.0,0.0,0.0,0.0,0.0,0.0,0.0,0.0,0.0,0.0,0.0,0.0,0.0,0.0,0.0,0.0,0.0,0.0,0.0,0.0,0.0,0.0,0.0,0.0,0.0,0.0,0.0,0.0,8.0718,8.221,0.0,0.0,0.0,8.1776,8.2082,0.0,0.0,0.0,0.0,0.0,0.0,0.0,0.0,0.0,0.0,0.0,0.0,0.0,0.0,0.0,0.0,0.0,0.0,0.0,0.0,0.0,0.0,0.0,0.0,0.0,0.0,0.0,0.0,0.0,0.0,0.0,0.0,0.0,0.0,0.0,0.0,0.0,0.0,0.0,0.0,0.0,0.0,0.0,0.0,0.0,0.0,0.0,0.0,0.0,0.0,0.0,0.0,0.0,0.0,0.0,0.0,0.0,8.5166,8.7709,8.9404,9.0167,8.9633,8.9212,8.8983,8.7517,0.0,0.0,0.0,0.0,0.0,0.0,0.0,0.0,0.0,0.0,0.0,0.0,0.0,0.0,0.0,0.0,0.0,0.0,0.0,0.0,0.0,0.0,0.0,0.0,0.0,0.0,0.0,6.152,0.0,0.0,0.0,0.0,0.0,0.0,0.0,0.0,0.0,0.0,0.0,0.0,0.0,0.0,7.988,8.1531,8.3701,8.4936,0.0,0.0,8.3684,8.3419,8.2492,8.1099,0.0,0.0,0.0,0.0,0.0,0.0,0.0,0.0,0.0,0.0,0.0,0.0,0.0,0.0,0.0,0.0,0.0,0.0,0.0,0.0,0.0,0.0,0.0,0.0,0.0,0.0,0.0,0.0,0.0,0.0,0.0,0.0,0.0,0.0,0.0,0.0,0.0,0.0,0.0,0.0,0.0,0.0,0.0,0.0,0.0,0.0,0.0,0.0,0.0,0.0,0.0,0.0,0.0,0.0,0.0,8.5974,8.8509,9.0242,9.1052,9.1054,9.0626,8.9819,8.8979,8.6985,0.0,0.0,0.0,0.0,0.0,0.0,0.0,0.0,0.0,0.0,0.0,0.0,0.0,0.0,0.0,0.0,0.0,0.0,0.0,0.0,0.0,0.0,0.0,0.0,0.0,0.0,0.0,0.0,0.0,0.0,0.0,0.0,0.0,0.0,0.0,0.0,0.0,0.0,0.0,0.0,0.0,8.0612,8.2275,8.399,8.5097,0.0,0.0,8.3429,8.264,8.3012,8.2595,8.013,0.0,0.0,0.0,0.0,0.0,0.0,0.0,0.0,0.0,0.0,0.0,0.0,0.0,0.0,0.0,0.0,0.0,0.0,0.0,0.0,0.0,0.0,0.0,0.0,0.0,0.0,0.0,0.0,0.0,0.0,0.0,0.0,0.0,0.0,0.0,0.0,0.0,0.0,0.0,0.0,0.0,0.0,0.0,0.0,0.0,0.0,0.0,0.0,0.0,0.0,0.0,0.0,0.0,8.4059,8.6861,8.9398,9.0859,9.1167,9.1203,9.1052,9.0708,8.99,8.8361,0.0,0.0,0.0,0.0,0.0,0.0,0.0,0.0,0.0,0.0,0.0,0.0,0.0,0.0,0.0,0.0,0.0,0.0,0.0,0.0,0.0,0.0,0.0,0.0,0.0,0.0,0.0,0.0,6.7961,6.8532,6.9284,0.0,0.0,0.0,0.0,0.0,0.0,0.0,0.0,0.0,0.0,8.235,8.4518,8.5818,0.0,0.0,8.5773,8.5067,8.4733,8.4091,8.3093,8.1602,7.9765,0.0,0.0,0.0,0.0,0.0,0.0,0.0,0.0,0.0,0.0,0.0,0.0,0.0,0.0,0.0,0.0,0.0,0.0,0.0,0.0,0.0,0.0,0.0,0.0,0.0,0.0,0.0,0.0,0.0,0.0,0.0,0.0,0.0,0.0,0.0,0.0,0.0,0.0,0.0,0.0,0.0,0.0,0.0,0.0,0.0,0.0,0.0,0.0,0.0,0.0,0.0,0.0,8.5095,8.7401,9.0171,9.159,9.159,9.1823,9.1825,9.159,9.1013,8.9782,0.0,0.0,0.0,0.0,0.0,0.0,0.0,0.0,0.0,0.0,0.0,0.0,0.0,0.0,0.0,0.0,0.0,0.0,0.0,0.0,0.0,0.0,0.0,0.0,0.0,0.0,0.0,0.0,6.9931,7.0261,6.9792,0.0,0.0,0.0,0.0,0.0,0.0,0.0,0.0,0.0,0.0,8.3585,8.5541,8.6556,8.7083,8.7036,8.6487,8.6051,8.5773,8.4747,8.3678,8.2824,0.0,0.0,0.0,0.0,0.0,0.0,0.0,0.0,0.0,0.0,0.0,0.0,0.0,0.0,0.0,0.0,0.0,0.0,0.0,0.0,0.0,0.0,0.0,0.0,0.0,0.0,0.0,0.0,0.0,0.0,6.586,0.0,0.0,0.0,0.0,0.0,0.0,0.0,0.0,0.0,0.0,0.0,0.0,0.0,0.0,0.0,0.0,0.0,0.0,0.0,0.0,0.0,0.0,8.5745,8.744,9.0787,9.2482,9.2479,9.3251,9.3251,9.2479,9.2443,9.1253,8.8754,0.0,0.0,0.0,0.0,0.0,0.0,0.0,0.0,0.0,0.0,0.0,0.0,0.0,0.0,0.0,0.0,0.0,0.0,0.0,0.0,0.0,0.0,0.0,0.0,0.0,0.0,7.0694,7.1642,7.1496,0.0,0.0,0.0,0.0,0.0,0.0,0.0,0.0,0.0,0.0,8.2074,8.399,8.488,8.5652,8.6255,8.6235,8.6168,8.5852,8.5137,8.4929,8.4581,0.0,0.0,0.0,0.0,0.0,0.0,0.0,0.0,0.0,0.0,0.0,0.0,0.0,0.0,0.0,0.0,0.0,0.0,0.0,0.0,0.0,0.0,0.0,0.0,0.0,0.0,0.0,6.9166,7.0585,0.0,0.0,0.0,0.0,0.0,0.0,0.0,0.0,0.0,0.0,0.0,8.4786,8.4281,0.0,0.0,0.0,0.0,0.0,0.0,0.0,0.0,0.0,0.0,0.0,0.0,8.7671,8.99,9.2133,9.3292,9.3289,9.3559,9.3559,9.333,9.3292,9.2097,8.9551,0.0,0.0,0.0,0.0,0.0,0.0,0.0,0.0,0.0,0.0,0.0,0.0,0.0,0.0,0.0,0.0,0.0,0.0,0.0,0.0,0.0,0.0,0.0,0.0,0.0,7.1367,0.0,0.0,0.0,0.0,0.0,0.0,0.0,0.0,0.0,0.0,0.0,7.9538,8.2018,8.4068,8.5799,8.7231,8.7662,8.7993,0.0,0.0,0.0,0.0,0.0,0.0,0.0,0.0,0.0,0.0,0.0,0.0,0.0,0.0,7.8443,7.5661,7.558,7.5941,7.5948,0.0,0.0,0.0,0.0,0.0,0.0,0.0,0.0,0.0,0.0,0.0,0.0,0.0,0.0,0.0,0.0,7.7169,0.0,0.0,0.0,0.0,0.0,0.0,0.0,0.0,8.5288,8.6673,8.8246,8.7707,8.7011,0.0,8.502,8.2905,0.0,0.0,0.0,0.0,0.0,0.0,0.0,0.0,8.9248,9.1169,9.3174,9.4138,9.4177,9.4446,9.4444,9.4174,9.3869,9.2787,9.0859,8.89,8.6322,0.0,0.0,0.0,0.0,0.0,0.0,0.0,0.0,0.0,0.0,0.0,0.0,0.0,0.0,0.0,0.0,0.0,0.0,0.0,0.0,0.0,0.0,0.0,7.4198,0.0,0.0,0.0,0.0,0.0,0.0,0.0,0.0,0.0,7.8286,8.0396,8.259,8.4252,8.5671,8.7082,8.8509,0.0,0.0,0.0,0.0,0.0,0.0,0.0,8.6829,8.6288,8.5766,8.5448,8.573,8.5775,8.5464,8.4632,0.0,0.0,8.0131,7.9934,8.0279,8.0261,8.0287,8.0269,8.0264,8.0275,8.0449,0.0,0.0,0.0,0.0,0.0,0.0,0.0,0.0,7.7172,7.8515,0.0,8.1014,0.0,0.0,0.0,0.0,0.0,0.0,0.0,0.0,8.8355,8.9934,8.9972,8.997,8.9554,8.8714,8.7132,8.6748,8.725,8.4209,0.0,0.0,0.0,0.0,0.0,0.0,9.0434,9.1477,9.3907,9.5143,9.5179,9.5944,9.5942,9.5102,9.4253,9.3405,9.2597,9.171,8.9705,8.6399,8.3785,0.0,0.0,0.0,0.0,0.0,0.0,0.0,0.0,0.0,0.0,0.0,0.0,0.0,0.0,0.0,0.0,0.0,0.0,0.0,0.0,7.5922,0.0,0.0,0.0,0.0,0.0,0.0,0.0,0.0,0.0,0.0,8.0206,8.352,8.6105,8.6177,0.0,0.0,0.0,0.0,8.7873,8.8747,8.8864,8.8905,8.8864,8.8844,8.8822,8.8779,0.0,0.0,8.7653,8.7516,8.7283,8.6444,8.7008,8.6716,8.4323,8.3754,8.3662,8.3673,8.3609,8.365,8.3657,8.3495,8.3543,7.7934,0.0,0.0,0.0,0.0,7.5091,7.7826,8.1483,8.2322,8.3668,8.5286,8.6134,0.0,0.0,0.0,0.0,0.0,0.0,8.7669,8.9359,8.9739,9.0552,9.1748,9.1748,9.1635,9.1404,9.0902,9.0787,9.0981,9.0058,8.8211,8.5672,0.0,0.0,0.0,0.0,9.3326,9.4862,9.6752,9.7718,9.7718,9.7947,9.7673,9.6793,9.5978,9.5174,9.4294,9.3446,9.1979,8.9784,8.6709,0.0,0.0,0.0,0.0,0.0,0.0,0.0,0.0,0.0,0.0,0.0,0.0,0.0,0.0,0.0,0.0,0.0,0.0,0.0,7.617,7.8497,7.9502,0.0,0.0,0.0,0.0,0.0,0.0,0.0,0.0,0.0,8.4435,8.5306,8.6552,0.0,0.0,8.8622,8.945,8.9887,9.0412,9.1285,0.0,0.0,0.0,9.1439,9.1215,9.0593,9.0488,9.0409,9.0143,9.0093,9.0014,8.9736,8.9935,8.9869,8.9141,8.7496,8.6392,8.6259,8.5834,8.5393,8.5378,8.5397,8.5375,8.5786,8.2283,7.9285,7.8784,8.009,8.1095,8.3441,8.6634,8.682,8.7474,8.8402,8.8942,8.8404,8.7094,8.6634,0.0,0.0,0.0,8.9902,9.171,9.1513,9.1979,9.2941,9.2979,9.3174,9.3486,9.3138,9.3518,9.4482,9.3828,9.283,9.1404,0.0,0.0,9.0973,9.3441,9.5251,9.6324,9.7944,9.8793,9.8793,9.8793,9.856,9.8021,9.7211,9.6519,9.5985,9.5174,9.3941,9.2249,8.9592,8.6978,0.0,0.0,0.0,0.0,0.0,0.0,0.0,0.0,0.0,0.0,0.0,7.3054,7.4595,0.0,0.0,0.0,7.8015,7.8865,7.9712,8.1191,0.0,0.0,0.0,0.0,0.0,0.0,0.0,8.4228,8.6152,8.7604,8.8055,8.813,8.8521,8.9552,8.9975,9.0477,9.1292,0.0,9.2027,9.2855,9.338,9.3523,9.3045,9.2975,9.2709,9.1846,9.171,9.1559,9.124,9.1203,9.1203,9.1203,9.1203,9.1203,9.1203,8.965,8.8532,8.8829,8.8493,8.8141,8.8124,8.7861,8.7602,9.2903,9.2287,8.5363,8.4053,8.6553,8.6668,8.8474,9.1285,9.0552,9.0201,9.0203,9.0203,8.9784,8.9101,8.9103,0.0,0.0,9.1052,9.1864,9.2712,9.3446,9.3828,9.3905,9.3984,9.441,9.5179,9.4446,9.5326,9.744,9.6059,9.61,9.748,9.5292,9.3713,9.3059,9.5285,9.6555,9.6632,9.8211,9.9021,9.8985,9.8947,9.887,9.8793,9.7942,9.7442,9.7363,9.6709,9.5555,9.3946,9.2249,9.0208,8.7748,0.0,0.0,0.0,0.0,0.0,0.0,0.0,0.0,0.0,0.0,0.0,0.0,0.0,0.0,0.0,8.2018,0.0,8.3524,8.3714,0.0,0.0,0.0,8.4241,8.5022,8.5231,8.5877,8.7337,0.0,0.0,9.09,0.0,9.1497,9.1512,9.2107,9.2865,9.3612,9.3099,9.2984,9.3724,9.3866,9.3904,9.399,9.4,9.3771,9.3085,9.2744,9.2457,9.178,9.1522,9.1443,9.1481,9.1402,9.1443,9.1402,9.081,9.0462,9.1228,9.1035,9.0834,9.0614,9.0017,8.9484,9.6324,9.6172,9.4362,9.2593,9.1018,9.1635,9.2366,9.3059,9.2905,9.2787,9.2787,9.2789,9.2672,9.2525,9.2525,9.2597,9.2826,9.3018,9.3561,9.4407,9.46,9.5025,9.5708,9.6288,9.6673,9.6942,9.737,9.7906,9.8442,9.8101,9.8101,9.8444,9.787,9.7177,9.6403,9.7557,9.8521,9.9219,10.0212,10.0707,10.0668,10.014,9.9488,9.8793,9.794,9.7209,9.6591,9.6399,9.6132,9.5634,9.3443,9.1633,9.0323,8.6282,0.0,0.0,0.0,0.0,0.0,0.0,0.0,0.0,0.0,7.9821,8.0441,0.0,8.3478,0.0,8.3785,8.4093,8.3676,8.4757,0.0,0.0,8.5717,8.6583,8.6801,8.7923,8.8628,8.8399,9.0096,9.1244,9.1203,9.2905,9.4113,9.4104,9.3701,9.3477,9.3674,9.414,9.445,9.4703,9.5212,9.5688,9.5611,9.5699,9.5561,9.5446,9.4817,9.4352,9.4135,9.3544,9.3107,9.3107,9.3107,9.3107,9.3067,9.2925,9.2864,9.2884,9.1114,8.9304,8.931,8.9165,8.9041,9.8096,9.8096,9.8057,9.698,9.5288,9.4982,9.4864,9.4826,9.4444,9.4294,9.4256,9.3867,9.3674,9.3674,9.3674,9.3905,9.4292,9.4674,9.5328,9.6098,9.6526,9.6946,9.7442,9.7865,9.8291,9.8675,9.9139,9.9562,9.9904,9.9901,9.9901,9.9901,9.9901,9.9671,9.9209,9.9329,9.9603,10.0103,10.0902,10.1279,10.1281,10.0522,9.9875,9.937,9.8173,9.7286,9.6822,9.6478,9.6283,9.6247,9.4597,9.3215,9.2287,8.9013,8.6551,0.0,0.0,0.0,0.0,0.0,0.0,0.0,0.0,0.0,0.0,0.0,8.5784,0.0,8.6096,8.6249,8.5367,8.6777,8.7601,8.7176,8.8274,8.9098,8.9107,9.0253,9.089,9.0431,9.195,9.2975,9.2943,9.4102,9.5145,9.5503,9.5181,9.4853,9.4902,9.5294,9.557,9.5608,9.6007,9.6283,9.6283,9.6283,9.6165,9.5772,9.5301,9.4903,9.4509,9.4029,9.3676,9.3674,9.3674,9.3674,9.3674,9.3695,9.3676,9.345,9.2237,9.1067,9.0935,9.0939,9.0926,9.9137,9.9096,9.9024,9.8947,9.8832,9.7288,9.6632,9.6555,9.5795,9.5487,9.5448,9.4564,9.4177,9.4174,9.41,9.4444,9.5218,9.6057,9.6824,9.7557,9.8521,9.8947,9.8947,9.906,9.9524,10.0257,10.0257,10.0599,10.1281,10.1438,10.1476,10.1474,10.1592,10.163,10.1592,10.0947,10.0488,10.0257,10.094,10.1279,10.1281,10.0599,10.0178,9.9873,9.8444,9.7555,9.7324,9.6668,9.6283,9.6245,9.5485,9.464,9.3869,9.1434,8.9742,0.0,8.6632,0.0,0.0,0.0,0.0,0.0,0.0,0.0,0.0,8.7055,8.7673,8.7863,8.8483,8.8637,8.8096,8.9354,9.0227,9.0257,9.0991,9.1537,9.1541,9.2197,9.2669,9.2643,9.3385,9.4172,9.4794,9.5102,9.5485,9.6095,9.617,9.6129,9.6245,9.6206,9.6206,9.6283,9.6283,9.6283,9.6283,9.6283,9.6048,9.5371,9.5258,9.4895,9.4305,9.4146,9.4103,9.4106,9.4151,9.4106,9.3983,9.4002,9.3968,9.3983,9.3769,9.3637,9.3468,9.3418,9.3694,10.0822,10.0745,10.0101,9.9873,9.9757,9.8755,9.8329,9.8329,9.8137,9.8103,9.8024,9.7175,9.6788,9.6749,9.6093,9.5903,9.6095,9.6903,9.7363,9.7555,9.9139,9.9834,9.9873,10.0519,10.0899,10.1053,10.1051,10.1169,10.1317,10.2015,10.2366,10.2363,10.3058,10.3405,10.3407,0.0,0.0,0.0,10.1245,10.1279,10.1281,10.1166,10.0402,9.9098,9.8752,0.0,9.6593,9.6365,9.6283,9.6247,9.5446,0.0,0.0,0.0,0.0,0.0,0.0,0.0,0.0,0.0,0.0,0.0,8.8818,8.8244,8.7288,8.7944,8.9019,9.0325,9.0015,9.0208,9.1404,9.1822,9.2,9.2021,9.2753,9.3248,9.3262,9.3384,9.3481,9.3497,9.4239,9.4803,9.5023,9.5598,9.6093,9.6245,9.6283,9.6283,9.6283,9.6283,9.6283,9.6283,9.6283,9.6283,9.6283,9.6283,9.6245,9.6086,9.6045,9.5966,9.5769,9.5728,9.5769,9.5728,9.5808,9.5649,9.5364,9.5327,9.5124,9.4878,9.4818,9.4607,9.3882,9.3688,9.3597,10.1279,0.0,10.0863,10.0673,0.0,10.0212,10.0017,9.9978,9.9137,9.8793,9.8791,9.8329,9.8137,9.8137,9.7711,9.7519,9.7557,9.8406,9.9021,9.9399,10.0289,10.0907,10.1332,10.1322,10.1512,10.1938,10.1938,10.213,10.2594,10.302,10.3251,10.3253,10.3674,10.3907,10.3907,10.3907,10.3484,10.2597,10.2597,10.2363,10.1938,10.1512,10.0515,9.8868,0.0,0.0,0.0,0.0,0.0,0.0,0.0,0.0,0.0,0.0,0.0,9.2441,9.1635,9.1522,9.2287,9.2061,9.1984,9.2364,9.2016,9.1054,8.9402,9.0443,9.1366,9.1787,9.2172,9.2597,9.3061,9.4205,9.497,9.4979,9.5342,9.5412,9.5058,9.4982,9.4794,9.4472,9.5133,9.5656,9.5634,9.5978,9.6283,9.6283,9.6283,9.624,9.6048,9.6204,9.6283,9.6283,9.6283,9.6283,9.6283,9.6283,9.6283,9.6283,9.6283,9.6283,9.6283,9.6283,9.6283,9.6283,9.6165,9.5928,9.574,9.5543,9.5324,9.5153,9.5099,9.4995,9.4481,9.4407,9.4337,10.1746,10.1746,10.1746,10.1746,10.1743,10.1743,10.1746,10.163,0.0,0.0,0.0,9.9101,9.9024,9.9024,9.887,9.8793,9.8832,9.9716,10.0409,10.0863,10.1169,10.1594,10.2097,10.1594,10.1746,10.2594,10.2597,10.3061,10.3869,10.4023,10.41,10.4138,10.4256,10.4328,10.433,10.433,10.4328,10.4292,10.4061,10.3561,10.2825,10.2133,10.0976,9.9291,9.8555,9.7709,9.6786,9.6593,9.6514,9.6516,9.6401,9.598,9.5292,9.5215,9.4833,9.4023,9.4602,9.4989,9.4989,9.4989,9.4989,9.4989,9.4484,9.3443,9.1785,9.2905,9.3559,9.3172,9.4448,9.5023,9.4638,9.6422,9.7731,9.7729,9.7599,9.7175,9.6598,9.6365,9.5932,9.5445,9.5778,9.6187,9.6141,9.6054,9.6141,9.6262,9.6283,9.6275,9.6083,9.6081,9.5989,9.6015,9.5956,9.6061,9.6057,9.6054,9.6077,9.6007,9.6045,9.6086,9.6086,9.6086,9.6086,9.6007,9.5808,9.5584,9.5499,9.5227,9.4989,9.4938,9.492,9.4928,9.4901,9.487,9.4806,10.3522,10.3558,10.3522,10.3522,10.3522,10.3522,10.352,10.3405,10.1671,10.0935,10.0902,10.0216,9.9913,9.9873,9.9139,9.8793,9.8868,9.9678,9.9757,0.0,10.0632,10.1017,10.0486,10.1056,10.1746,10.2556,10.2594,10.3061,10.3907,10.4597,10.4948,10.5023,10.5672,10.6046,10.6051,10.6054,10.6054,10.6015,10.4638,10.3833,10.3715,10.3599,10.2712,10.1053,10.082,10.0014,9.8524,9.775,9.7326,9.7324,9.667,9.6247,9.6132,9.6093,9.5749,9.491,9.4951,9.4989,9.5027,9.4989,9.4989,9.5027,9.5559,9.5208,9.3523,9.3559,9.4253,9.5593,9.6055,9.6711,9.787,9.8379,9.8658,9.8574,9.7971,9.7452,9.7304,9.6682,9.6242,9.6115,9.5912,9.5859,9.5952,9.5618,9.5738,9.6174,9.638,9.6515,9.6825,9.6108,9.5343,9.5275,9.5265,9.5275,9.5541,9.5277,9.5466,9.5253,9.5413,9.5505,9.5375,9.5454,9.5418,9.5286,9.5241,9.5095,9.4779,9.4644,9.4484,9.4278,9.4226,9.4183,9.422,9.4078,9.4106,10.3661,10.3861,10.3907,10.3907,10.3907,10.3907,10.3907,10.383,10.3061,10.271,10.2633,10.183,10.1484,10.1371,10.0555,10.0171,10.0171,10.0555,10.0786,10.0904,10.1171,10.1363,10.1445,10.1363,10.1879,10.2864,10.2933,10.3857,10.5441,10.5558,10.5804,10.6415,10.6262,10.5951,10.5721,10.5707,10.5707,10.568,10.5407,10.502,10.4564,10.4561,10.3751,10.2053,10.2015,10.1402,10.0209,9.9368,9.8675,9.8214,9.7403,9.6747,9.6322,9.6283,9.6132,9.5752,9.6136,9.6367,9.6367,9.6793,9.687,9.6444,9.7136,9.7329,9.6562,9.6444,9.679,9.7598,9.8057,9.868,9.9449,9.9904,10.0135,10.0173,9.8798,9.7993,9.8006,9.6838,9.6235,9.6792,9.6609,9.6541,9.6987,9.6708,9.654,9.6951,9.6843,9.6891,9.723,9.6481,9.5955,9.6343,9.6443,9.6459,9.6441,9.6447,9.6281,9.583,9.6144,9.6021,9.5458,9.5391,9.552,9.5177,9.491,9.467,9.4494,9.4169,9.3956,9.3893,9.3773,9.3742,9.3701,9.3627,9.3705,10.4122,10.4482,10.4484,10.4482,10.4446,10.4484,10.4482,10.4443,10.4446,10.4561,10.4561,10.3446,10.2864,10.2828,10.2171,10.1899,10.1861,10.1902,10.2246,10.2748,10.2207,10.2246,10.2789,10.2207,10.2494,10.3508,10.3533,10.4606,10.6452,10.618,10.6505,10.7457,10.6687,10.593,10.5426,10.5385,10.5309,10.5158,10.5769,10.5826,10.5294,10.5261,10.4598,10.3287,10.3176,10.2671,10.1669,10.0789,9.9983,9.9139,9.8252,9.7519,9.6903,9.6863,9.6786,9.667,9.7132,9.7516,9.7555,9.8291,9.8524,9.7865,9.8598,9.9098,9.9103,9.9252,9.9291,9.9216,9.9603,10.0103,10.0368,10.0866,10.1279,10.1082,9.9574,9.8587,9.8572,9.7175,9.6468,9.7304,9.7188,9.716,9.7682,9.7587,9.7353,9.7446,9.7448,9.739,9.7385,9.7103,9.7236,9.7571,9.7571,9.7146,9.7222,9.7116,9.679,9.6297,9.6664,9.6394,9.5708,9.5831,9.5939,9.5406,9.4991,9.4746,9.4565,9.4204,9.3863,9.3746,9.377,9.3821,9.3818,9.3766,9.3635,10.6087,10.6167,10.6067,10.6169,10.6064,10.6072,10.6064,10.6105,10.6121,10.6631,10.6825,10.4828,10.3813,10.3792,10.3705,10.362,10.3659,10.3674,10.3707,10.3789,10.3715,10.3712,10.3774,10.3697,10.4084,10.4782,10.4532,10.4956,10.6101,10.6309,10.6797,10.7534,10.7491,10.6994,10.6351,10.623,10.5898,10.5115,10.5191,10.538,10.5721,10.5742,10.5476,10.49,10.4866,10.41,10.259,10.1633,10.0825,10.0027,9.9207,9.8673,9.8598,9.8562,9.8214,9.748,9.748,9.7516,9.7593,9.8327,9.8786,9.8755,9.9507,10.0002,10.0036,10.0651,10.0743,10.0262,10.0082,10.0495,10.1089,10.1313,10.1238,10.0872,9.9925,9.9228,9.8745,9.8015,9.7474,9.7535,9.7306,9.7053,9.7276,9.7046,9.6995,9.7636,9.8012,9.8233,9.834,9.8219,9.8159,9.8294,9.7504,9.6491,9.6359,9.6121,9.6291,9.6128,9.6081,9.6096,9.597,9.5859,9.5888,9.5761,9.5671,9.5351,9.493,9.4597,9.4332,9.3987,9.4129,9.4493,9.4361,9.4284,9.4094,10.5409,10.5612,10.5615,10.5615,10.5615,10.5615,10.5615,10.5612,10.5615,10.5844,10.6115,10.5573,10.5501,10.5695,10.5207,10.4977,10.4977,10.4977,10.5135,10.5331,10.5083,10.4939,10.4958,10.4691,10.4905,10.5402,10.5287,10.5893,10.7103,10.7655,10.7687,10.7272,10.7125,10.6832,10.6363,10.6218,10.6025,10.5815,10.5823,10.6056,10.6419,10.6278,10.5793,10.5273,10.5823,10.5558,10.4203,10.3477,10.2791,10.1988,10.1142,10.0586,10.0279,10.0289,10.013,9.9745,9.9291,9.9024,9.9024,9.9372,9.9458,9.924,10.0466,10.1146,10.0926,10.1623,10.1926,10.1611,10.1368,10.1455,10.1972,10.2096,10.1796,10.1144,10.0143,9.9336,9.882,9.7884,9.7472,9.8115,9.7896,9.7802,9.8107,9.7884,9.7703,9.7958,9.8212,9.8397,9.8324,9.8178,9.8102,9.7986,9.738,9.7248,9.7317,9.7504,9.7193,9.6853,9.7044,9.7209,9.6157,9.6369,9.6512,9.6019,9.5861,9.5686,9.5327,9.4962,9.4646,9.445,9.4441,9.4707,9.4656,9.4632,9.4487,10.4707,10.494,10.496,10.4987,10.5021,10.5024,10.5044,10.5115,10.5119,10.5347,10.5845,10.6454,10.6921,10.7171,10.6559,10.6118,10.593,10.6118,10.6419,10.6678,10.6357,10.623,10.6196,10.5926,10.5945,10.6144,10.6042,10.6623,10.7813,10.8243,10.8054,10.7388,10.7227,10.6968,10.6505,10.6304,10.6124,10.602,10.599,10.6181,10.6485,10.65,10.6252,10.5929,10.6649,10.6624,10.5471,10.5161,10.4472,10.3402,10.2791,10.2277,10.1849,10.1608,10.1341,10.0995,10.0549,10.0163,9.9971,10.0269,10.0341,10.0178,10.1386,10.2033,10.1897,10.2212,10.2545,10.261,10.2378,10.2299,10.2528,10.2606,10.2271,10.1606,10.0602,9.985,9.9366,9.8438,9.829,9.9055,9.895,9.8834,9.9322,9.9276,9.9058,9.8994,9.8881,9.878,9.8613,9.8635,9.8532,9.8337,9.8312,9.8171,9.8282,9.804,9.7842,9.7606,9.76,9.746,9.6499,9.6918,9.7125,9.6558,9.6121,9.5805,9.5672,9.5341,9.5178,9.5228,9.5135,9.4978,9.515,9.5143,9.5002,10.461,10.4648,10.4655,10.4739,10.4816,10.4868,10.4957,10.5143,10.5131,10.596,10.7289,10.7493,10.7733,10.8065,10.7737,10.7132,10.655,10.7142,10.7519,10.7617,10.7575,10.7509,10.7516,10.7492,10.7507,10.7575,10.7146,10.706,10.7308,10.7397,10.7654,10.8131,10.8198,10.7843,10.7088,10.6774,10.6268,10.5736,10.5534,10.5395,10.5614,10.6349,10.6969,10.7318,10.7531,10.7081,10.6287,10.6217,10.5479,10.3846,10.3808,10.3585,10.3152,10.2479,10.1633,10.0575,10.0597,10.0418,9.9982,10.0768,10.1287,10.1379,10.2058,10.2556,10.2438,10.2459,10.2569,10.2833,10.275,10.2635,10.2618,10.2687,10.2452,10.1974,10.1555,10.1068,10.0678,10.009,10.0158,10.0263,10.0076,9.9925,10.0315,10.0582,10.0414,10.036,10.0419,10.0281,10.0139,10.0124,9.994,9.9939,9.9805,9.9416,9.7862,9.7971,9.7773,9.7673,9.7896,9.7556,9.7377,9.7278,9.7281,9.7254,9.7125,9.6771,9.6236,9.5956,9.5895,9.5767,9.5405,9.5304,9.5751,9.5877,9.5733,10.5304,10.5304,10.5304,10.5049,10.4684,10.5135,10.5431,10.5483,10.5483,10.6428,10.7786,10.7987,10.8063,10.8266,10.9186,10.8835,10.7658,10.7873,10.8412,10.9108,10.9339,10.9401,10.9397,10.9501,10.9571,10.9567,10.935,10.9292,10.9288,10.8762,10.8549,10.8559,10.8061,10.7554,10.7382,10.7189,10.696,10.6804,10.6752,10.6757,10.6804,10.7125,10.7417,10.76,10.7608,10.6876,10.5387,10.6092,10.6078,10.5047,10.5505,10.5904,10.5945,10.525,10.4363,10.3413,10.2975,10.2604,10.236,10.2178,10.2031,10.1861,10.2518,10.2869,10.2738,10.2915,10.3145,10.3105,10.2973,10.2844,10.2735,10.2881,10.2779,10.2157,10.1825,10.1434,10.0907,10.057,10.0453,10.0602,10.0452,10.0206,10.0139,10.0089,10.0055,9.9913,9.9859,9.9917,9.976,9.9608,9.9693,9.9588,9.9534,9.9282,9.8734,9.8836,9.8998,9.8899,9.8904,9.8892,9.8748,9.861,9.861,9.8023,9.7936,9.7645,9.7032,9.6744,9.6693,9.6553,9.613,9.6065,9.6387,9.64,9.627,10.5293,10.533,10.533,10.5068,10.4803,10.5586,10.5998,10.6166,10.6399,10.7296,10.8416,10.8579,10.8575,10.8739,10.9701,10.9662,10.8679,10.8871,10.9475,11.0233,11.0444,11.0486,11.0518,11.0613,11.0666,11.0522,11.0423,11.0352,11.0248,10.9618,10.929,10.9129,10.8395,10.8114,10.8153,10.7985,10.7955,10.8059,10.8025,10.801,10.8069,10.8084,10.8123,10.8164,10.8176,10.7337,10.5542,10.6293,10.6298,10.5585,10.618,10.6753,10.6921,10.6895,10.6116,10.4786,10.428,10.3774,10.3156,10.2719,10.2315,10.2018,10.2646,10.299,10.269,10.3011,10.3112,10.3004,10.2839,10.2657,10.2588,10.2736,10.2719,10.2324,10.2062,10.1745,10.1292,10.0992,10.0937,10.1004,10.1007,10.0773,10.0471,10.0505,10.0491,10.0277,10.0272,10.0193,10.0073,10.0008,9.9973,9.9981,10.0089,10.0094,9.9924,10.0157,9.9639,9.9453,9.9393,9.9581,9.9737,9.9681,9.9468,9.8931,9.8486,9.8189,9.7912,9.7619,9.7453,9.7399,9.7188,9.7032,9.703,9.6815,9.6685,10.4711,10.4861,10.4571,10.5084,10.5456,10.6283,10.6749,10.7169,10.7849,10.8619,10.9496,10.9435,10.9445,10.9477,10.9644,10.938,10.9644,11.0278,11.0534,11.0611,11.066,11.0685,11.0708,11.0774,11.0707,11.0503,11.0009,10.9744,10.9739,10.9702,10.9608,10.9476,10.9452,10.9211,10.931,10.9003,10.8993,10.8919,10.8766,10.8802,10.9061,10.8951,10.9018,10.9216,10.9233,10.8407,10.6763,10.6921,10.6387,10.5043,10.5635,10.5947,10.6107,10.6758,10.6356,10.4266,10.414,10.3406,10.1952,10.2086,10.2237,10.2068,10.2577,10.2917,10.2748,10.2588,10.2519,10.2468,10.2299,10.2133,10.2123,10.2125,10.2274,10.2544,10.2265,10.1988,10.1968,10.1742,10.1546,10.1617,10.1873,10.2028,10.1937,10.1942,10.1971,10.1852,10.1831,10.1721,10.151,10.1385,10.1616,10.1571,10.1217,10.0925,10.118,10.1377,10.0464,9.9735,9.9647,9.9713,9.9925,9.9932,9.9827,9.9384,9.8976,9.8689,9.8609,9.839,9.8496,9.8423,9.8188,9.7935,9.781,9.7604,9.7142,10.8069,10.8069,10.8074,10.7805,10.757,10.8173,10.8568,10.8662,10.8926,10.9821,11.0832,11.0493,11.0535,11.1012,11.1052,11.103,11.1165,11.1403,11.1125,11.0598,11.0722,11.0865,11.091,11.1315,11.1468,11.1392,11.1264,11.1166,11.0977,11.0445,11.0066,10.994,10.9408,10.9077,10.9071,10.8938,10.8901,10.889,10.8836,10.8836,10.8895,10.8901,10.8938,10.8976,10.9108,10.8643,10.7613,10.7853,10.7287,10.5786,10.6733,10.7019,10.65,10.6217,10.5359,10.4029,10.3399,10.3114,10.2504,10.2432,10.2504,10.2454,10.2645,10.2739,10.2708,10.2515,10.2337,10.2177,10.2017,10.1852,10.1738,10.1699,10.1927,10.2236,10.2033,10.1961,10.2178,10.2463,10.2644,10.2643,10.314,10.3408,10.3287,10.3297,10.2971,10.2536,10.2454,10.2302,10.1843,10.1676,10.1593,10.1593,10.1509,10.1509,10.1509,10.1509,10.1027,10.0508,10.0393,10.0246,10.0354,10.0346,10.0221,10.0006,9.9594,9.9348,9.9269,9.9284,9.9407,9.9235,9.8877,9.8756,9.87,9.8369,9.7915,10.9358,10.9358,10.9363,10.9114,10.879,10.947,10.9797,10.9901,11.0212,11.0956,11.1626,11.133,11.1362,11.1789,11.1795,11.1805,11.1858,11.1721,11.1325,11.0869,11.1121,11.1253,11.1301,11.1557,11.1752,11.1726,11.1667,11.1625,11.1582,11.1001,11.0615,11.0514,11.0002,10.9722,10.9716,10.9711,10.9674,10.9679,10.9716,10.9711,10.9716,10.9716,10.9674,10.9701,10.981,10.947,10.8766,10.8923,10.8277,10.7021,10.7295,10.7167,10.6223,10.5865,10.5052,10.3669,10.3228,10.2982,10.2566,10.2514,10.2519,10.2426,10.2342,10.2305,10.2276,10.2101,10.2017,10.1896,10.1768,10.1754,10.1938,10.1944,10.2174,10.2729,10.2114,10.194,10.2284,10.3056,10.3421,10.3434,10.3716,10.3971,10.3924,10.3553,10.3295,10.2761,10.2414,10.2172,10.1634,10.1509,10.1509,10.1509,10.1509,10.1509,10.1509,10.1509,10.1509,10.1362,10.1247,10.1137,10.1102,10.1097,10.1008,10.0846,10.0515,10.0456,10.0392,10.0303,10.0307,9.9951,9.9661,9.9589,9.9497,9.9078,9.8648,10.8978,10.893,10.8972,10.9212,10.9403,11.0076,11.0424,11.0719,11.1368,11.1721,11.1805,11.1705,11.1763,11.1774,11.1593,11.1609,11.1731,11.1431,11.1329,11.1414,11.1605,11.1658,11.1658,11.1561,11.1512,11.1443,11.1316,11.126,11.1298,11.1155,11.1216,11.1128,11.1049,11.1137,11.0959,11.1142,11.1032,11.0959,11.1069,11.1032,11.1032,11.1069,11.1063,11.1069,11.1012,11.0693,11.0096,10.9998,10.9134,10.7492,10.7479,10.7049,10.5835,10.6055,10.5259,10.3109,10.3469,10.3176,10.2537,10.2426,10.2439,10.2264,10.2247,10.1856,10.2017,10.209,10.2065,10.1988,10.1911,10.207,10.2632,10.2774,10.3096,10.3506,10.2689,10.2314,10.2702,10.3501,10.3927,10.4012,10.4023,10.4105,10.4262,10.3692,10.3341,10.2942,10.2489,10.211,10.1718,10.1676,10.1551,10.1509,10.1509,10.1509,10.1509,10.1509,10.1509,10.1509,10.1509,10.1509,10.1509,10.1509,10.1467,10.1347,10.1264,10.1315,10.1294,10.1042,10.1005,10.0887,10.0658,10.0471,10.0213,9.9904,9.9536,11.0779,11.0779,11.0779,11.0812,11.087,11.0945,11.0969,11.1066,11.1261,11.1435,11.1413,11.1402,11.1472,11.1397,11.1353,11.1311,11.1448,11.1355,11.1232,11.1267,11.1327,11.1365,11.1365,11.1311,11.1315,11.1267,11.1212,11.1216,11.1216,11.1216,11.1216,11.1216,11.1216,11.1216,11.1216,11.1216,11.1216,11.1216,11.1216,11.1216,11.1216,11.1216,11.1216,11.1216,11.1216,11.1106,11.0885,11.0885,11.0198,10.8735,10.8597,10.8217,10.7123,10.6737,10.5771,10.4462,10.3474,10.3222,10.3306,10.2906,10.2824,10.3295,10.3174,10.3322,10.3276,10.3261,10.3261,10.3261,10.3261,10.3298,10.3513,10.3623,10.3774,10.3795,10.3549,10.3372,10.363,10.4284,10.4777,10.484,10.5317,10.5558,10.5495,10.5301,10.4934,10.4375,10.3655,10.2951,10.2486,10.188,10.1718,10.1551,10.1509,10.1509,10.1509,10.1509,10.1509,10.1509,10.1509,10.1509,10.1509,10.1509,10.1509,10.1467,10.1389,10.1436,10.1436,10.1367,10.1472,10.1509,10.1342,10.1008,10.1133,10.0932,10.053,11.1382,11.1387,11.1382,11.1382,11.1365,11.1229,11.1216,11.1216,11.1216,11.1436,11.1619,11.1693,11.1882,11.217,11.2212,11.2212,11.2212,11.2218,11.2212,11.2249,11.2266,11.1899,11.141,11.1216,11.1216,11.1216,11.1216,11.1216,11.1216,11.1216,11.1216,11.1216,11.1216,11.1216,11.1216,11.1216,11.1216,11.1216,11.1216,11.1216,11.1216,11.1216,11.1216,11.1216,11.1216,11.1216,11.1216,11.1216,11.0663,10.9663,10.9139,10.8477,10.7305,10.6491,10.5583,10.4645,10.3654,10.3444,10.3701,10.3439,10.3439,10.3775,10.388,10.388,10.3843,10.388,10.388,10.3843,10.388,10.4063,10.4425,10.4724,10.4918,10.4991,10.495,10.4777,10.4478,10.5149,10.5568,10.5778,10.6051,10.6386,10.6381,10.6135,10.5673,10.5043,10.4246,10.3694,10.324,10.2518,10.201,10.2005,10.1744,10.1693,10.1651,10.1651,10.1546,10.1546,10.1509,10.1509,10.1509,10.1509,10.1509,10.1509,10.1509,10.1509,10.1509,10.1509,10.1509,10.1509,10.1509,10.1509,10.1509,10.1509,10.1138,11.132,11.132,11.1394,11.1436,11.152,11.1473,11.1619,11.1509,11.1583,11.1955,11.2432,11.2517,11.2842,11.3587,11.3288,11.3514,11.3508,11.333,11.344,11.3361,11.3288,11.2811,11.1845,11.1766,11.1735,11.1656,11.1436,11.1399,11.1399,11.1326,11.1216,11.1216,11.1216,11.1216,11.1216,11.1216,11.1216,11.1216,11.1216,11.1216,11.1216,11.1216,11.1216,11.1216,11.1216,11.1216,11.1216,11.1179,11.0792,11.0026,10.9355,10.8385,10.6911,10.5825,10.5196,10.4546,10.4247,10.41,10.4179,10.421,10.4137,10.432,10.432,10.4179,10.4362,10.4436,10.443,10.4467,10.4184,10.4651,10.5159,10.5899,10.6124,10.6088,10.6234,10.5972,10.5594,10.5925,10.6386,10.6386,10.6386,10.6386,10.6177,10.5762,10.5275,10.5595,10.4876,10.4341,10.3889,10.3339,10.2955,10.2836,10.2439,10.1944,10.1871,10.1829,10.1688,10.1582,10.1509,10.1509,10.1509,10.1509,10.1509,10.1509,10.1509,10.1509,10.1509,10.1509,10.1509,10.1509,10.1509,10.1509,10.1509,10.1509,10.13,11.2139,11.2176,11.28,11.3104,11.3068,11.3104,11.3062,11.3031,11.3068,11.3062,11.333,11.3361,11.3472,11.3661,11.3734,11.3587,11.3734,11.3728,11.3587,11.3587,11.3587,11.3477,11.3104,11.3062,11.3068,11.2879,11.2401,11.2181,11.2029,11.1619,11.1252,11.1289,11.1362,11.1216,11.1252,11.1247,11.1216,11.1216,11.1216,11.1216,11.1216,11.1216,11.1216,11.1216,11.1216,11.1173,11.1216,11.1216,11.0817,11.0309,11.0199,10.9355,10.775,10.7551,10.6963,10.5904,10.5165,10.5128,10.5568,10.5238,10.5159,10.561,10.5647,10.5867,10.5831,10.5762,10.5794,10.5831,10.5873,10.5794,10.6014,10.6234,10.6465,10.6507,10.6533,10.6455,10.6219,10.6297,10.6381,10.6386,10.6386,10.6386,10.6386,10.6261,10.6009,10.5967,10.5531,10.4976,10.4588,10.4216,10.3969,10.3845,10.3265,10.2796,10.2706,10.2553,10.222,10.1953,10.1796,10.1514,10.1514,10.1509,10.1509,10.1509,10.1509,10.1509,10.1509,10.1509,10.1509,10.1509,10.1509,10.1509,10.1509,10.1509,10.1509,11.2958,11.3025,11.344,11.3587,11.3587,11.3587,11.3587,11.3587,11.3587,11.3839,11.4127,11.4163,11.4384,11.4683,11.4725,11.4756,11.472,11.472,11.4756,11.4756,11.4756,11.4756,11.472,11.461,11.4426,11.3697,11.3178,11.2958,11.2811,11.2548,11.2401,11.2286,11.1961,11.1845,11.1662,11.143,11.1216,11.1216,11.1216,11.1216,11.1216,11.1216,11.1216,11.1216,11.1179,11.1069,11.0671,11.0634,10.9979,10.9397,10.9612,10.9391,10.7934,10.7629,10.7189,10.6528,10.6051,10.5862,10.6124,10.6046,10.5893,10.635,10.6386,10.6386,10.6386,10.6386,10.6386,10.6386,10.6344,10.6386,10.6423,10.6838,10.6922,10.7027,10.7283,10.7478,10.7394,10.688,10.6386,10.6386,10.6386,10.6386,10.6386,10.6502,10.6381,10.6213,10.6177,10.5699,10.5951,10.5568,10.5138,10.4813,10.4174,10.3756,10.3672,10.3387,10.2906,10.2575,10.2297,10.1885,10.1593,10.1551,10.1509,10.1509,10.1509,10.1509,10.1509,10.1509,10.1509,10.1509,10.1509,10.1509,10.1509,10.1509,10.1509,11.3802,11.3802,11.3912,11.3954,11.3949,11.3985,11.4065,11.4022,11.3954,11.4457,11.4886,11.496,11.5296,11.5815,11.5852,11.5962,11.5925,11.5894,11.5705,11.5742,11.5705,11.5705,11.5742,11.5632,11.527,11.4059,11.3833,11.3802,11.3765,11.3624,11.3288,11.3404,11.2921,11.2622,11.2401,11.1992,11.1772,11.1845,11.1845,11.1808,11.1772,11.1772,11.1766,11.1766,11.1552,11.1258,11.0786,11.0419,10.958,10.797,10.8437,10.8217,10.753,10.7016,10.646,10.6455,10.6313,10.6308,10.6344,10.6344,10.6344,10.6386,10.6386,10.6386,10.6386,10.6386,10.6386,10.6455,10.6528,10.6785,10.6796,10.7368,10.7767,10.7872,10.8416,10.8737,10.856,10.7546,10.7095,10.6937,10.7115,10.7189,10.6911,10.6775,10.6617,10.6465,10.6423,10.6507,10.6675,10.6628,10.6014,10.5736,10.5175,10.4578,10.4415,10.4263,10.3795,10.3277,10.2889,10.2555,10.2063,10.1968,10.1968,10.1556,10.1509,10.1509,10.1509,10.1509,10.1509,10.1509,10.1509,10.1509,10.1509,10.1509,10.1509,11.4592,11.4672,11.5338,11.5601,11.5595,11.5595,11.5527,11.5595,11.5485,11.5668,11.5742,11.5779,11.5815,11.5999,11.5999,11.5999,11.5999,11.5999,11.5999,11.5999,11.5999,11.5999,11.5999,11.5999,11.5784,11.5527,11.5008,11.4598,11.4415,11.398,11.3912,11.3655,11.3508,11.3398,11.3361,11.3215,11.2958,11.2884,11.2921,11.2958,11.2958,11.2958,11.2879,11.2805,11.2328,11.1919,11.1662,11.1184,11.0267,10.8835,10.8762,10.7996,10.731,10.7199,10.7047,10.6528,10.6386,10.6386,10.6386,10.6386,10.6386,10.6386,10.646,10.646,10.646,10.6497,10.6712,10.6754,10.7157,10.764,10.8327,10.8455,10.855,10.8663,10.8785,10.8986,10.8883,10.866,10.8426,10.8395,10.8327,10.807,10.7645,10.7231,10.6995,10.6717,10.6507,10.6591,10.6759,10.6663,10.6351,10.6243,10.6187,10.5574,10.5117,10.496,10.4661,10.4055,10.3681,10.3587,10.3158,10.2774,10.2506,10.2246,10.1754,10.1509,10.1509,10.1509,10.1509,10.1509,10.1509,10.1509,10.1509,10.1509,10.1509,11.5406,11.5442,11.5852,11.5999,11.5999,11.5999,11.5999,11.5999,11.5999,11.5999,11.5999,11.5999,11.5999,11.5999,11.5999,11.5999,11.5999,11.5999,11.5999,11.5999,11.5999,11.5999,11.5999,11.5999,11.5999,11.5889,11.5595,11.5369,11.5369,11.5081,11.4793,11.4756,11.4494,11.4237,11.409,11.3765,11.3697,11.3624,11.3624,11.3624,11.3624,11.3624,11.3472,11.2958,11.2585,11.1992,11.1153,11.0854,11.001,10.9055,10.8793,10.8358,10.7996,10.7781,10.7671,10.6717,10.646,10.6418,10.6381,10.6386,10.6386,10.646,10.6754,10.7011,10.7157,10.7372,10.7556,10.7703,10.785,10.8363,10.8731,10.919,10.9385,10.9498,10.9724,10.9946,10.9994,10.9992,10.9915,10.9747,10.9166,10.8662,10.8306,10.7861,10.7431,10.7048,10.6675,10.6675,10.6801,10.6637,10.6466,10.6579,10.6549,10.6135,10.5673,10.5589,10.5416,10.486,10.4496,10.4407,10.4057,10.3612,10.3336,10.3103,10.2533,10.1851,10.1509,10.1509,10.1509,10.1509,10.1509,10.1509,10.1509,10.1509,10.1509,11.5999,11.5999,11.5999,11.5999,11.5999,11.5999,11.5999,11.5999,11.5999,11.5999,11.5999,11.5999,11.5999,11.5999,11.5999,11.5999,11.5999,11.5999,11.5999,11.5999,11.5999,11.5999,11.5999,11.5999,11.5999,11.5999,11.5925,11.5999,11.5889,11.5815,11.5925,11.5705,11.5259,11.5033,11.4892,11.4353,11.3985,11.4022,11.3875,11.3875,11.4022,11.3912,11.3576,11.2842,11.2585,11.1814,11.1012,11.0566,11.0052,10.9391,10.9092,10.8945,10.883,10.8793,10.8211,10.7152,10.69,10.6895,10.6932,10.6969,10.7115,10.7183,10.7561,10.7745,10.7928,10.829,10.8731,10.8987,10.9024,10.9202,10.9538,10.9892,11.0187,11.0354,11.0735,11.1137,11.101,11.0953,11.0874,11.0482,10.979,10.9355,10.9035,10.8395,10.7955,10.7247,10.6838,10.6591,10.6675,10.6549,10.6496,10.6774,10.6759,10.6465,10.6203,10.6171,10.5935,10.5558,10.5379,10.5296,10.4871,10.4379,10.4148,10.3956,10.3151,10.2488,10.2036,10.1587,10.1509,10.1509,10.1509,10.1509,10.1509,10.1509,10.1509,11.5999,11.5999,11.5999,11.5999,11.5999,11.5999,11.5999,11.5999,11.5999,11.5999,11.5999,11.5999,11.5999,11.5999,11.5999,11.5999,11.5999,11.5999,11.5999,11.5999,11.5999,11.5999,11.5999,11.5999,11.5999,11.5999,11.5999,11.5999,11.5999,11.5999,11.5999,11.5925,11.5889,11.5815,11.5589,11.4898,11.5033,11.5406,11.4929,11.4855,11.5222,11.4818,11.4451,11.3937,11.313,11.2181,11.1662,11.1148,11.0597,10.9979,10.9874,10.9501,10.8945,10.8793,10.8762,10.8578,10.8542,10.8505,10.8395,10.8253,10.8211,10.8217,10.8547,10.8657,10.8877,10.8945,10.9318,10.9837,10.9837,11.0089,11.0482,11.0896,11.1054,11.0986,11.1085,11.1216,11.1216,11.1216,11.1216,11.1179,11.0487,11.0199,10.9947,10.9144,10.8399,10.7661,10.7048,10.6759,10.6549,10.6465,10.6423,10.6633,10.6754,10.6465,10.6386,10.6386,10.6302,10.6051,10.6009,10.5967,10.5631,10.518,10.5054,10.4688,10.3913,10.331,10.2968,10.2469,10.1803,10.1509,10.1509,10.1509,10.1509,10.1509,10.1509,11.5999,11.5999,11.5999,11.5999,11.5999,11.5999,11.5999,11.5999,11.5999,11.5999,11.5999,11.5999,11.5999,11.5999,11.5999,11.5999,11.5999,11.5999,11.5999,11.5999,11.5999,11.5999,11.5999,11.5999,11.5999,11.5999,11.5999,11.5999,11.5999,11.5999,11.5999,11.5999,11.5999,11.5962,11.5889,11.5185,11.5075,11.4965,11.4561,11.4316,11.4463,11.4273,11.3906,11.346,11.2732,11.2212,11.173,11.1436,11.1063,11.0702,11.0671,11.056,11.0267,11.0188,11.0151,11.0151,11.0151,10.9711,10.8951,10.8868,10.8894,10.8987,10.9213,10.9659,10.9979,11.012,11.0188,11.0634,11.0671,11.0885,11.1106,11.1216,11.1216,11.1216,11.1216,11.1258,11.1258,11.1216,11.1216,11.1216,11.1216,11.0896,11.056,10.9966,10.9106,10.8269,10.7494,10.7006,10.6675,10.6423,10.6386,10.6423,10.6465,10.6423,10.6386,10.6386,10.6386,10.6255,10.6255,10.6219,10.6255,10.6009,10.5762,10.551,10.4939,10.4436,10.3958,10.3087,10.2194,10.1801,10.1509,10.1509,10.1509,10.1509,10.1509,11.5999,11.5999,11.5999,11.5999,11.5999,11.5999,11.5999,11.5999,11.5999,11.5999,11.5999,11.5999,11.5999,11.5999,11.5999,11.5999,11.5999,11.5999,11.5999,11.5999,11.5999,11.5999,11.5999,11.5999,11.5999,11.5999,11.5999,11.5999,11.5999,11.5999,11.5999,11.5999,11.5663,11.581,11.5632,11.4745,11.4042,11.4011,11.3833,11.3728,11.3661,11.3435,11.3025,11.2579,11.217,11.1808,11.1326,11.1216,11.1173,11.1137,11.1142,11.1032,11.0995,11.0959,11.0959,11.0959,11.0953,11.0592,10.9911,10.9597,10.9424,10.9591,10.9837,11.0498,11.0928,11.1216,11.1216,11.1106,11.1106,11.1142,11.1216,11.1216,11.1216,11.1216,11.1216,11.13,11.1464,11.159,11.1675,11.1717,11.1675,11.1421,11.1069,11.0641,10.9897,10.8922,10.8101,10.7305,10.6838,10.6423,10.6386,10.6386,10.6386,10.6386,10.6386,10.6386,10.6386,10.6386,10.6386,10.6381,10.6344,10.6344,10.6213,10.5967,10.5715,10.5264,10.4635,10.3559,10.2548,10.2214,10.1885,10.1593,10.1509,10.1509,10.1509,11.5999,11.5999,11.5999,11.5999,11.5999,11.5999,11.5999,11.5999,11.5999,11.5999,11.5999,11.5999,11.5999,11.5999,11.5999,11.5999,11.5999,11.5999,11.5999,11.5999,11.5999,11.5999,11.5999,11.5999,11.5999,11.5999,11.5999,11.5999,11.5999,11.5999,11.5999,11.5925,11.5553,11.5589,11.5075,11.4017,11.2946,11.291,11.2989,11.3319,11.3141,11.2842,11.2396,11.2212,11.1693,11.1252,11.1216,11.1216,11.1216,11.1216,11.1216,11.1216,11.1216,11.1216,11.1216,11.1216,11.1216,11.0959,11.0713,11.0639,11.0928,11.0995,11.1032,11.1006,11.1179,11.1216,11.1216,11.1216,11.1216,11.1289,11.1252,11.1252,11.1421,11.1675,11.188,11.2007,11.2171,11.2298,11.2377,11.2334,11.2191,11.2031,11.1678,11.1298,11.0377,10.9392,10.8133,10.7337,10.6759,10.6386,10.6386,10.6386,10.6386,10.6386,10.6386,10.6386,10.6386,10.6386,10.6386,10.6386,10.6381,10.6386,10.6386,10.6302,10.6051,10.5715,10.5248,10.4237,10.3317,10.2702,10.2251,10.1896,10.1619,10.1509,10.1509,11.5999,11.5999,11.5999,11.5999,11.5999,11.5999,11.5999,11.5999,11.5999,11.5999,11.5999,11.5999,11.5999,11.5999,11.5999,11.5999,11.5999,11.5999,11.5999,11.5999,11.5999,11.5999,11.5999,11.5999,11.5999,11.5999,11.5999,11.5999,11.5999,11.5999,11.5999,11.5846,11.5516,11.5369,11.4714,11.3466,11.2365,11.1803,11.195,11.2139,11.2065,11.1919,11.1656,11.1583,11.1473,11.1216,11.1216,11.1216,11.1216,11.1216,11.1216,11.1252,11.1252,11.1252,11.1252,11.1252,11.1252,11.1252,11.1252,11.1252,11.1216,11.1216,11.1179,11.1216,11.1289,11.1247,11.1216,11.1216,11.1326,11.1515,11.1924,11.2005,11.2128,11.2461,11.2687,11.2755,11.2967,11.3077,11.314,11.3116,11.298,11.2828,11.2407,11.1955,11.0918,10.9836,10.8521,10.7379,10.688,10.6386,10.6386,10.6386,10.6386,10.6386,10.6386,10.6386,10.6386,10.6386,10.6386,10.6386,10.6386,10.6386,10.6386,10.6386,10.6386,10.6093,10.5594,10.4824,10.4058,10.328,10.2651,10.2165,10.1866,10.1546,10.1509,11.5999,11.5999,11.5999,11.5999,11.5999,11.5999,11.5999,11.5999,11.5999,11.5999,11.5999,11.5999,11.5999,11.5999,11.5999,11.5999,11.5999,11.5999,11.5999,11.5999,11.5999,11.5999,11.5999,11.5999,11.5999,11.5999,11.5999,11.5999,11.5999,11.5999,11.5815,11.5668,11.5632,11.5222,11.4635,11.324,11.1992,11.1399,11.1216,11.1216,11.1252,11.1247,11.1247,11.1252,11.1216,11.1216,11.1216,11.1216,11.1216,11.1216,11.1252,11.1362,11.1399,11.1399,11.1362,11.1394,11.1362,11.1326,11.1478,11.1326,11.1216,11.1216,11.1216,11.1326,11.1473,11.1583,11.173,11.2108,11.2029,11.2144,11.2737,11.2776,11.2847,11.3152,11.3198,11.3339,11.3725,11.3942,11.3954,11.3951,11.3802,11.3658,11.298,11.2455,11.1335,11.008,10.8532,10.7594,10.7174,10.6717,10.6386,10.6386,10.6386,10.6386,10.6386,10.6386,10.6386,10.6386,10.6386,10.6386,10.6386,10.6386,10.6386,10.6386,10.6386,10.6386,10.6046,10.5516,10.4687,10.3795,10.3103,10.2347,10.1793,10.1509,10.1509,11.5999,11.5999,11.5999,11.5999,11.5999,11.5999,11.5999,11.5999,11.5999,11.5999,11.5999,11.5999,11.5999,11.5999,11.5999,11.5999,11.5999,11.5999,11.5999,11.5999,11.5999,11.5999,11.5999,11.5999,11.5999,11.5999,11.5999,11.5999,11.5999,11.5999,11.5632,11.5002,11.4818,11.4592,11.455,11.3161,11.1986,11.132,11.1216,11.1216,11.1216,11.1216,11.1216,11.1216,11.1216,11.1216,11.1216,11.1216,11.1216,11.1216,11.1216,11.1473,11.1882,11.1436,11.1546,11.2144,11.1583,11.1698,11.2255,11.1619,11.1509,11.1583,11.1772,11.1882,11.2249,11.2432,11.2548,11.2884,11.3141,11.3325,11.3514,11.3599,11.3663,11.3923,11.4016,11.4152,11.4582,11.476,11.4776,11.4775,11.4716,11.447,11.3681,11.2844,11.1704,11.0346,10.8648,10.7835,10.7552,10.7337,10.7043,10.6717,10.6717,10.6507,10.6507,10.6423,10.6386,10.6386,10.6386,10.6386,10.6386,10.6386,10.6386,10.6386,10.6386,10.6386,10.6386,10.6308,10.538,10.4425,10.3274,10.2481,10.1916,10.1509,10.1509,11.5999,11.5999,11.5999,11.5999,11.5999,11.5999,11.5999,11.5999,11.5999,11.5999,11.5999,11.5999,11.5999,11.5999,11.5999,11.5999,11.5999,11.5999,11.5999,11.5999,11.5999,11.5999,11.5999,11.5999,11.5999,11.5999,11.5999,11.5925,11.5999,11.5925,11.5516,11.4886,11.3864,11.324,11.2946,11.2139,11.1399,11.1252,11.1216,11.1216,11.1216,11.1216,11.1216,11.1216,11.1216,11.1216,11.1216,11.1216,11.1326,11.1326,11.1362,11.1619,11.1882,11.1436,11.1693,11.2291,11.2065,11.2401,11.2952,11.2915,11.2805,11.2768,11.2695,11.2774,11.3172,11.322,11.3404,11.3582,11.3808,11.3985,11.4237,11.4378,11.4584,11.5146,11.534,11.5371,11.5587,11.5573,11.5564,11.5578,11.5555,11.514,11.4494,11.3692,11.263,11.1597,11.0105,10.8948,10.8497,10.8293,10.8036,10.7505,10.7216,10.688,10.6633,10.6507,10.6423,10.6386,10.6386,10.6386,10.6386,10.6386,10.6386,10.6386,10.6386,10.6386,10.6386,10.6302,10.5883,10.5049,10.3926,10.2979,10.2376,10.1843,10.1509,11.5999,11.5999,11.5999,11.5999,11.5999,11.5999,11.5999,11.5999,11.5999,11.5999,11.5999,11.5999,11.5999,11.5999,11.5999,11.5999,11.5999,11.5999,11.5999,11.5999,11.5999,11.5999,11.5999,11.5999,11.5999,11.5962,11.5699,11.5553,11.5516,11.5558,11.5081,11.4163,11.3093,11.2469,11.2029,11.1509,11.1252,11.1216,11.1216,11.1216,11.1216,11.1216,11.1216,11.1216,11.1216,11.1216,11.1252,11.1399,11.1619,11.1656,11.184,11.2133,11.2243,11.2249,11.2469,11.2989,11.3319,11.3556,11.3878,11.4395,11.4395,11.4426,11.4022,11.3765,11.3943,11.4017,11.4273,11.4384,11.4353,11.4641,11.5056,11.5172,11.537,11.5925,11.5962,11.5956,11.592,11.5912,11.5912,11.5962,11.592,11.5553,11.5253,11.4485,11.3613,11.2639,11.1634,11.0516,10.9411,10.9127,10.8844,10.8344,10.7767,10.7358,10.6953,10.6591,10.6507,10.6386,10.6386,10.6386,10.6386,10.6386,10.6386,10.6386,10.6386,10.6386,10.6386,10.6219,10.6009,10.5516,10.4698,10.3753,10.2911,10.2339,10.1843,11.5999,11.5999,11.5999,11.5999,11.5999,11.5999,11.5999,11.5999,11.5999,11.5999,11.5999,11.5999,11.5999,11.5999,11.5999,11.5999,11.5999,11.5999,11.5999,11.5999,11.5999,11.5999,11.5999,11.5999,11.5999,11.5779,11.5516,11.5369,11.4965,11.5002,11.4567,11.3765,11.3025,11.2212,11.1656,11.1619,11.1436,11.1326,11.1216,11.1216,11.1216,11.1216,11.1216,11.1252,11.1326,11.1436,11.1619,11.1998,11.2328,11.2622,11.3025,11.3796,11.4127,11.3949,11.4242,11.4494,11.4629,11.479,11.4904,11.5403,11.5606,11.5375,11.4567,11.442,11.4561,11.4855,11.5044,11.5338,11.5448,11.5668,11.59,11.5869,11.5869,11.5999,11.5999,11.5999,11.5999,11.5968,11.5968,11.5999,11.5999,11.581,11.5694,11.5145,11.4425,11.3407,11.2408,11.1495,11.0468,10.9698,10.9374,10.9011,10.8436,10.7846,10.7426,10.6953,10.6591,10.6507,10.6423,10.6386,10.6386,10.6386,10.6386,10.6386,10.6386,10.6386,10.6386,10.6386,10.6339,10.5778,10.5254,10.4625,10.3784,10.2879,10.2302,11.5999,11.5999,11.5999,11.5999,11.5999,11.5999,11.5999,11.5999,11.5999,11.5999,11.5999,11.5999,11.5999,11.5999,11.5999,11.5999,11.5999,11.5999,11.5999,11.5999,11.5999,11.5999,11.5999,11.5999,11.5999,11.5925,11.5742,11.5442,11.5442,11.5149,11.4415,11.3655,11.3392,11.2506,11.2139,11.2328,11.1955,11.1583,11.1399,11.1326,11.1289,11.1326,11.1326,11.1362,11.1845,11.1992,11.2249,11.2842,11.3178,11.3361,11.3508,11.3875,11.3802,11.3734,11.3949,11.4745,11.5222,11.5643,11.5703,11.5869,11.5999,11.5999,11.5411,11.5485,11.5626,11.5626,11.5705,11.5889,11.5999,11.5999,11.5999,11.5999,11.5999,11.5999,11.5999,11.5999,11.5999,11.5999,11.5999,11.5999,11.5999,11.5999,11.5914,11.5798,11.5035,11.4061,11.3113,11.2176,11.1342,11.0509,11.0056,10.9673,10.9202,10.8699,10.7914,10.7431,10.6953,10.6591,10.6507,10.6423,10.6386,10.6386,10.6386,10.6386,10.6386,10.6386,10.6386,10.6386,10.6386,10.6386,10.593,10.5353,10.4693,10.3784,10.2879,11.5999,11.5999,11.5999,11.5999,11.5999,11.5999,11.5999,11.5999,11.5999,11.5999,11.5999,11.5999,11.5999,11.5999,11.5999,11.5999,11.5999,11.5999,11.5999,11.5999,11.5999,11.5999,11.5999,11.5999,11.5999,11.5925,11.5705,11.5332,11.5442,11.5149,11.4451,11.42,11.409,11.3313,11.28,11.2952,11.2952,11.2396,11.1955,11.173,11.1656,11.1662,11.1698,11.184,11.2469,11.2805,11.2989,11.3655,11.4017,11.4163,11.4237,11.4573,11.461,11.461,11.4683,11.5369,11.5626,11.5889,11.5937,11.5931,11.5999,11.5999,11.5999,11.5962,11.5925,11.5889,11.5925,11.5999,11.5999,11.5999,11.5999,11.5999,11.5999,11.5999,11.5999,11.5999,11.5999,11.5999,11.5999,11.5999,11.5999,11.5999,11.5999,11.5999,11.5524,11.4202,11.3246,11.2573,11.1796,11.1047,11.072,11.052,11.0041,10.9519,10.8736,10.7883,10.7336,10.6864,10.6554,10.6507,10.6423,10.6386,10.6386,10.6386,10.6386,10.6386,10.6386,10.6386,10.6386,10.6386,10.6386,10.5962,10.5385,10.4756,10.3811,11.5999,11.5999,11.5999,11.5999,11.5999,11.5999,11.5999,11.5999,11.5999,11.5999,11.5999,11.5999,11.5999,11.5999,11.5999,11.5999,11.5999,11.5999,11.5999,11.5999,11.5999,11.5999,11.5999,11.5999,11.5999,11.5742,11.5516,11.5406,11.5106,11.5002,11.5002,11.4776,11.4886,11.4194,11.3178,11.3839,11.3906,11.3534,11.302,11.2726,11.2543,11.2475,11.2511,11.2622,11.3178,11.3686,11.3875,11.4347,11.488,11.5143,11.5406,11.5815,11.5779,11.5742,11.5852,11.5889,11.5925,11.5962,11.5999,11.5999,11.5999,11.5999,11.5999,11.5999,11.5999,11.5999,11.5999,11.5999,11.5999,11.5999,11.5999,11.5999,11.5999,11.5999,11.5999,11.5999,11.5999,11.5999,11.5999,11.5999,11.5999,11.5999,11.5999,11.5956,11.5374,11.4137,11.3401,11.2829,11.1965,11.1295,11.1137,11.1052,11.0726,11.0117,10.9197,10.8396,10.7746,10.7247,10.678,10.6507,10.6423,10.6386,10.6386,10.6386,10.6386,10.6386,10.6386,10.6386,10.6386,10.6386,10.6386,10.6386,10.5993,10.5442,10.4782,11.5999,11.5999,11.5999,11.5999,11.5999,11.5999,11.5999,11.5999,11.5999,11.5999,11.5999,11.5999,11.5999,11.5999,11.5999,11.5999,11.5999,11.5999,11.5999,11.5999,11.5999,11.5999,11.5999,11.5999,11.5999,11.5962,11.581,11.5626,11.5589,11.5522,11.5087,11.4279,11.4824,11.4824,11.3398,11.4279,11.4934,11.4525,11.4268,11.3796,11.3472,11.3361,11.3325,11.3545,11.4022,11.4457,11.4751,11.5228,11.5553,11.581,11.5846,11.5956,11.5999,11.5999,11.5999,11.5999,11.5999,11.5999,11.5999,11.5999,11.5999,11.5999,11.5999,11.5999,11.5999,11.5999,11.5999,11.5999,11.5999,11.5999,11.5999,11.5999,11.5999,11.5999,11.5999,11.5999,11.5999,11.5999,11.5999,11.5999,11.5999,11.5999,11.5999,11.5665,11.5003,11.4406,11.3835,11.3079,11.1965,11.1216,11.1216,11.1137,11.1173,11.0586,10.9749,10.8858,10.8176,10.7347,10.6727,10.6539,10.6386,10.6386,10.6386,10.6386,10.6386,10.6386,10.6386,10.6386,10.6386,10.6386,10.6386,10.6386,10.6386,10.5951,10.5474,11.5999,11.5999,11.5999,11.5999,11.5999,11.5999,11.5999,11.5999,11.5999,11.5999,11.5999,11.5999,11.5999,11.5999,11.5999,11.5999,11.5999,11.5999,11.5999,11.5999,11.5999,11.5999,11.5999,11.5999,11.5999,11.5999,11.5999,11.5962,11.5999,11.5925,11.5417,11.4793,11.5527,11.5375,11.4053,11.5338,11.5773,11.5332,11.5296,11.5008,11.4499,11.4353,11.4163,11.4384,11.4787,11.5222,11.5442,11.5815,11.5889,11.5999,11.5999,11.5999,11.5999,11.5999,11.5999,11.5999,11.5999,11.5999,11.5999,11.5999,11.5999,11.5999,11.5999,11.5999,11.5999,11.5999,11.5999,11.5999,11.5999,11.5999,11.5999,11.5999,11.5999,11.5999,11.5999,11.5999,11.5999,11.5999,11.5999,11.5999,11.5999,11.5999,11.5999,11.5993,11.5221,11.4125,11.3627,11.2989,11.1923,11.1216,11.1216,11.1216,11.1216,11.1117,11.0551,10.9513,10.8512,10.7677,10.6848,10.6533,10.6423,10.6386,10.6386,10.6386,10.6386,10.6386,10.6386,10.6386,10.6386,10.6386,10.6386,10.6386,10.6386,10.6386,10.5988,11.5999,11.5999,11.5999,11.5999,11.5999,11.5999,11.5999,11.5999,11.5999,11.5999,11.5999,11.5999,11.5999,11.5999,11.5999,11.5999,11.5999,11.5999,11.5999,11.5999,11.5999,11.5999,11.5999,11.5999,11.5999,11.5999,11.5999,11.5999,11.5999,11.5962,11.5925,11.5925,11.5925,11.5889,11.5889,11.5962,11.5889,11.5852,11.581,11.5925,11.5668,11.5375,11.5075,11.5222,11.5589,11.5962,11.5999,11.5999,11.5999,11.5999,11.5999,11.5999,11.5999,11.5999,11.5999,11.5999,11.5999,11.5999,11.5999,11.5999,11.5999,11.5999,11.5999,11.5999,11.5999,11.5999,11.5999,11.5999,11.5999,11.5999,11.5999,11.5999,11.5999,11.5999,11.5999,11.5999,11.5999,11.5999,11.5999,11.5999,11.5999,11.5999,11.5999,11.5999,11.5323,11.4185,11.3302,11.2559,11.188,11.1464,11.1216,11.1216,11.1216,11.108,11.086,11.0131,10.8972,10.8255,10.7505,10.6906,10.6428,10.6423,10.6386,10.6386,10.6386,10.6386,10.6386,10.6386,10.6386,10.6386,10.6386,10.6386,10.6386,10.6386,10.6386,11.5999,11.5999,11.5999,11.5999,11.5999,11.5999,11.5999,11.5999,11.5999,11.5999,11.5999,11.5999,11.5999,11.5999,11.5999,11.5999,11.5999,11.5999,11.5999,11.5999,11.5999,11.5999,11.5999,11.5999,11.5999,11.5999,11.5999,11.5999,11.5999,11.5962,11.5668,11.5222,11.5852,11.5742,11.5222,11.5479,11.5999,11.5999,11.5999,11.5999,11.5999,11.5815,11.5815,11.5846,11.5883,11.5999,11.5999,11.5999,11.5999,11.5999,11.5999,11.5999,11.5999,11.5999,11.5999,11.5999,11.5999,11.5999,11.5999,11.5999,11.5999,11.5999,11.5999,11.5999,11.5999,11.5999,11.5999,11.5999,11.5999,11.5999,11.5999,11.5999,11.5999,11.5999,11.5999,11.5999,11.5999,11.5999,11.5999,11.5999,11.5999,11.5999,11.5999,11.5877,11.5622,11.4603,11.3791,11.3036,11.2207,11.1717,11.1252,11.1216,11.1216,11.072,11.0315,11.0289,10.9442,10.8764,10.8083,10.7321,10.6754,10.6423,10.6386,10.6386,10.6386,10.6386,10.6386,10.6386,10.6386,10.6386,10.6386,10.6386,10.6386,10.6386,10.6386]},{"header":{"parameterUnit":"m.s-1","parameterCategory":1,"la1":31.0,"la2":29.5877,"lo1":-88.7671,"lo2":-86.6584,"dy":0.0162,"dx":0.0185,"nx":115,"ny":88,"refTime":"2024-02-12T18:00:00:Z","depth":0,"parameterNumber":3,"parameterNumberName":"V-component_of_WINDS"},"data":[0.0,0.0,0.0,0.0,0.0,0.0,0.0,0.0,0.0,0.0,0.0,0.0,0.0,0.0,0.0,0.0,0.0,0.0,0.0,0.0,0.0,0.0,0.0,0.0,0.0,0.0,0.0,0.0,0.0,0.0,0.0,0.0,0.0,0.0,0.0,0.0,0.0,0.0,0.0,0.0,0.0,0.0,0.0,0.0,0.0,0.0,0.0,0.0,0.0,0.0,0.0,0.0,0.0,0.0,0.0,0.0,0.0,0.0,0.0,0.0,0.0,0.0,0.0,0.0,0.0,0.0,0.0,0.0,0.0,0.0,0.0,0.0,0.0,0.0,0.0,0.0,0.0,0.0,0.0,0.0,0.0,0.0,0.0,0.0,0.0,0.0,0.0,0.0,0.0,0.0,0.0,0.0,0.0,0.0,0.0,0.0,0.0,0.0,0.0,0.0,0.0,0.0,0.0,0.0,0.0,0.0,0.0,0.0,0.0,0.0,0.0,0.0,0.0,0.0,0.0,0.0,0.0,0.0,0.0,0.0,0.0,0.0,0.0,0.0,0.0,0.0,0.0,0.0,0.0,0.0,0.0,0.0,0.0,0.0,0.0,0.0,0.0,0.0,0.0,0.0,0.0,0.0,0.0,0.0,0.0,0.0,0.0,0.0,0.0,0.0,0.0,0.0,0.0,0.0,0.0,0.0,0.0,0.0,0.0,0.0,0.0,0.0,0.0,0.0,0.0,0.0,0.0,0.0,0.0,0.0,0.0,0.0,0.0,0.0,0.0,0.0,0.0,0.0,0.0,0.0,0.0,0.0,0.0,0.0,0.0,0.0,0.0,0.0,0.0,0.0,0.0,0.0,0.0,0.0,0.0,0.0,0.0,0.0,0.0,0.0,0.0,0.0,0.0,0.0,0.0,0.0,0.0,0.0,0.0,0.0,0.0,0.0,0.0,0.0,0.0,0.0,0.0,0.0,0.0,0.0,0.0,0.0,0.0,0.0,0.0,0.0,0.0,0.0,0.0,0.0,0.0,0.0,0.0,0.0,0.0,0.0,0.0,0.0,0.0,0.0,0.0,0.0,0.0,0.0,0.0,0.0,0.0,0.0,0.0,0.0,0.0,0.0,0.0,0.0,0.0,0.0,0.0,0.0,0.0,0.0,0.0,0.0,0.0,0.0,0.0,0.0,0.0,0.0,0.0,0.0,0.0,0.0,0.0,0.0,0.0,0.0,0.0,0.0,0.0,0.0,0.0,0.0,0.0,0.0,0.0,0.0,0.0,0.0,0.0,0.0,0.0,0.0,0.0,0.0,0.0,0.0,0.0,0.0,0.0,0.0,0.0,0.0,0.0,0.0,0.0,0.0,0.0,0.0,0.0,0.0,0.0,0.0,0.0,0.0,0.0,0.0,0.0,0.0,0.0,0.0,0.0,0.0,0.0,0.0,0.0,0.0,0.0,0.0,0.0,0.0,0.0,0.0,0.0,0.0,0.0,0.0,0.0,0.0,0.0,0.0,0.0,0.0,0.0,0.0,0.0,0.0,0.0,0.0,0.0,0.0,0.0,0.0,0.0,0.0,0.0,0.0,0.0,0.0,0.0,0.0,0.0,0.0,0.0,0.0,0.0,0.0,0.0,0.0,0.0,0.0,0.0,0.0,0.0,0.0,0.0,0.0,0.0,0.0,0.0,0.0,0.0,0.0,0.0,0.0,0.0,0.0,0.0,0.0,0.0,0.0,0.0,0.0,0.0,0.0,0.0,0.0,0.0,0.0,0.0,0.0,0.0,0.0,0.0,0.0,0.0,0.0,0.0,0.0,0.0,0.0,0.0,0.0,0.0,0.0,0.0,0.0,0.0,0.0,0.0,0.0,0.0,0.0,0.0,0.0,0.0,0.0,0.0,0.0,0.0,0.0,0.0,0.0,0.0,0.0,0.0,0.0,0.0,0.0,0.0,0.0,0.0,0.0,0.0,0.0,0.0,0.0,0.0,0.0,0.0,0.0,0.0,0.0,0.0,0.0,0.0,0.0,0.0,0.0,0.0,0.0,0.0,0.0,0.0,0.0,0.0,0.0,0.0,0.0,0.0,0.0,0.0,0.0,0.0,0.0,0.0,0.0,0.0,0.0,0.0,0.0,0.0,0.0,0.0,0.0,0.0,0.0,0.0,0.0,0.0,0.0,0.0,0.0,0.0,0.0,0.0,0.0,0.0,0.0,0.0,0.0,0.0,0.0,0.0,0.0,0.0,0.0,0.0,0.0,0.0,0.0,0.0,0.0,0.0,0.0,0.0,0.0,0.0,0.0,0.0,0.0,0.0,0.0,0.0,0.0,0.0,0.0,0.0,0.0,0.0,0.0,0.0,0.0,0.0,0.0,0.0,0.0,0.0,0.0,0.0,0.0,0.0,0.0,0.0,0.0,0.0,0.0,0.0,0.0,0.0,0.0,0.0,0.0,0.0,0.0,0.0,0.0,0.0,0.0,0.0,0.0,0.0,0.0,0.0,0.0,0.0,0.0,0.0,0.0,0.0,0.0,0.0,0.0,0.0,0.0,0.0,0.0,0.0,0.0,0.0,0.0,0.0,0.0,0.0,0.0,0.0,0.0,0.0,0.0,0.0,0.0,0.0,0.0,0.0,0.0,0.0,0.0,0.0,0.0,0.0,0.0,0.0,0.0,0.0,0.0,0.0,0.0,0.0,0.0,0.0,0.0,0.0,0.0,0.0,0.0,0.0,0.0,0.0,0.0,0.0,0.0,0.0,0.0,0.0,0.0,0.0,0.0,0.0,0.0,0.0,0.0,0.0,0.0,0.0,0.0,0.0,0.0,0.0,0.0,0.0,0.0,0.0,0.0,0.0,0.0,0.0,0.0,0.0,0.0,0.0,0.0,0.0,0.0,0.0,0.0,0.0,0.0,0.0,0.0,0.0,0.0,0.0,0.0,0.0,0.0,0.0,0.0,0.0,0.0,0.0,0.0,0.0,0.0,0.0,0.0,0.0,0.0,0.0,0.0,0.0,0.0,0.0,0.0,0.0,0.0,0.0,0.0,0.0,0.0,0.0,0.0,0.0,0.0,0.0,0.0,0.0,0.0,0.0,0.0,0.0,0.0,0.0,0.0,0.0,0.0,0.0,0.0,0.0,0.0,0.0,0.0,0.0,0.0,0.0,0.0,0.0,0.0,0.0,0.0,0.0,0.0,0.0,0.0,0.0,0.0,0.0,0.0,0.0,0.0,0.0,0.0,0.0,0.0,0.0,0.0,0.0,0.0,0.0,0.0,0.0,0.0,0.0,0.0,0.0,0.0,0.0,0.0,0.0,0.0,0.0,0.0,0.0,0.0,0.0,0.0,0.0,0.0,0.0,0.0,0.0,0.0,0.0,0.0,0.0,0.0,0.0,0.0,0.0,0.0,0.0,0.0,0.0,0.0,0.0,0.0,0.0,0.0,0.0,0.0,0.0,0.0,0.0,0.0,0.0,0.0,0.0,0.0,0.0,0.0,0.0,0.0,0.0,0.0,0.0,0.0,0.0,0.0,0.0,0.0,0.0,0.0,0.0,0.0,0.0,0.0,0.0,0.0,0.0,0.0,0.0,0.0,0.0,0.0,0.0,0.0,0.0,0.0,0.0,0.0,0.0,0.0,0.0,0.0,0.0,0.0,0.0,0.0,0.0,0.0,0.0,0.0,0.0,0.0,0.0,0.0,0.0,0.0,0.0,0.0,0.0,0.0,0.0,0.0,0.0,0.0,0.0,0.0,0.0,0.0,0.0,0.0,0.0,0.0,0.0,0.0,0.0,0.0,0.0,0.0,0.0,0.0,0.0,0.0,0.0,0.0,0.0,0.0,0.0,0.0,0.0,0.0,0.0,0.0,0.0,0.0,0.0,0.0,0.0,0.0,0.0,0.0,0.0,0.0,0.0,0.0,0.0,0.0,0.0,0.0,0.0,0.0,0.0,0.0,0.0,0.0,0.0,0.0,0.0,0.0,0.0,0.0,0.0,0.0,0.0,0.0,0.0,0.0,0.0,0.0,0.0,0.0,0.0,0.0,0.0,0.0,0.0,0.0,0.0,0.0,0.0,0.0,0.0,0.0,0.0,0.0,0.0,0.0,0.0,0.0,0.0,0.0,0.0,0.0,0.0,0.0,0.0,0.0,0.0,0.0,0.0,0.0,0.0,0.0,0.0,0.0,0.0,0.0,0.0,0.0,0.0,0.0,0.0,0.0,0.0,0.0,0.0,0.0,0.0,0.0,0.0,0.0,0.0,0.0,0.0,0.0,0.0,0.0,0.5299,0.0,0.0,0.0,0.0,0.0,0.0,0.0,0.0,0.0,0.0,0.0,0.0,0.0,0.0,0.0,0.0,0.0,0.0,0.0,0.0,0.0,0.0,0.0,0.0,0.0,0.0,0.0,0.0,0.0,0.0,0.0,0.0,0.0,0.0,0.0,0.0,0.0,0.0,0.0,0.0,0.0,0.0,0.0,0.0,0.0,0.0,0.0,0.0,0.0,0.0,0.0,0.0,0.0,0.0,0.0,0.0,0.0,0.0,0.0,0.0,0.0,0.0,0.0,0.0,0.0,0.0,0.0,0.0,0.0,0.0,0.0,0.0,0.0,0.0,0.0,0.0,0.0,0.0,0.0,0.0,0.0,0.0,0.0,0.0,0.0,0.0,0.0,0.0,0.0,0.0,0.0,0.0,0.0,0.0,0.0,0.0,0.0,0.0,0.0,0.0,0.0,0.0,0.0,0.0,0.0,0.0,0.0,0.0,0.0,0.0,0.4518,0.4664,0.4664,0.4899,0.5375,0.0,0.0,0.0,0.0,0.0,0.0,0.0,0.0,0.0,0.0,0.0,0.0,0.0,0.0,0.0,0.0,0.0,0.0,0.0,0.0,0.0,0.0,0.0,0.0,0.0,0.0,0.0,0.0,0.0,0.0,0.0,0.0,0.0,0.0,0.0,0.0,0.0,0.0,0.0,0.0,0.0,0.0,0.0,0.0,0.0,0.0,0.0,0.0,0.0,0.0,0.0,0.0,0.0,0.0,0.0,0.0,0.0,0.0,0.0,0.0,0.0,0.0,0.0,0.0,0.0,0.0,0.0,0.0,0.0,0.0,0.0,0.0,0.0,0.0,0.0,0.0,0.0,0.0,0.0,0.0,0.0,0.0,0.0,0.0,0.0,0.0,0.0,0.0,0.0,0.0,0.0,0.0,0.0,0.0,0.0,0.0,0.0,0.0,0.0,0.0,0.0,0.0,0.0,0.0,0.0,0.0,0.0,0.0,0.0,0.0,0.0,0.0,0.5093,0.5222,0.5532,0.0,0.0,0.0,0.0,0.0,0.0,0.0,0.0,0.0,0.0,0.0,0.0,0.0,0.0,0.0,0.0,0.0,0.0,0.0,0.0,0.0,0.0,0.0,0.0,0.0,0.0,0.0,0.0,0.0,0.0,0.0,0.0,0.0,0.0,0.0,0.0,0.0,0.0,0.0,0.0,0.0,0.0,0.0,0.0,0.0,0.0,0.0,0.0,0.0,0.0,0.0,0.0,0.0,0.0,0.0,0.0,0.0,0.0,0.0,0.0,0.0,0.0,0.0,0.0,0.0,0.0,0.0,0.0,0.0,0.0,0.0,0.0,0.0,0.0,0.0,0.0,0.0,0.0,0.0,0.0,0.0,0.0,0.0,0.0,0.0,0.0,0.0,0.0,0.0,0.0,0.0,0.0,0.0,0.0,0.0,0.0,0.0,0.0,0.0,0.0,0.0,0.0,0.0,0.0,0.0,0.0,0.0,0.0,0.0,0.0,0.5318,0.5626,0.5626,0.0,0.5933,0.0,0.0,0.0,0.0,0.0,0.0,0.0,0.0,0.0,0.0,0.0,0.0,0.0,0.0,0.0,0.0,0.0,0.0,0.0,0.0,0.0,0.0,0.0,0.0,0.0,0.0,0.0,0.0,0.0,0.0,0.0,0.0,0.0,0.0,0.0,0.0,0.0,0.0,0.0,0.0,0.0,0.0,0.0,0.0,0.0,0.0,0.0,0.0,0.0,0.0,0.0,0.0,0.0,0.0,0.0,0.0,0.0,0.0,0.0,0.0,0.0,0.0,0.0,0.0,0.0,0.0,0.0,0.0,0.0,0.0,0.0,0.0,0.0,0.0,0.0,0.0,0.0,0.0,0.0,0.0,0.0,0.0,0.0,0.0,0.0,0.0,0.0,0.0,0.0,0.0,0.0,0.0,0.0,0.0,0.0,0.0,0.0,0.0,0.0,0.0,0.0,0.0,0.0,0.0,0.0,0.0,0.0,0.0,0.0,0.0,0.5861,0.5989,0.5997,0.599,0.0,0.0,0.0,0.0,0.0,0.0,0.0,0.0,0.0,0.0,0.0,0.0,0.0,0.0,0.0,0.0,0.0,0.0,0.0,0.0,0.0,0.0,0.0,0.0,0.0,0.0,0.0,0.0,0.0,0.0,0.0,0.0,0.0,0.0,0.0,0.0,0.0,0.0,0.0,0.0,0.0,0.0,0.0,0.0,0.0,0.0,0.0,0.0,0.0,0.0,0.0,0.0,0.0,0.0,0.0,0.0,0.0,0.0,0.0,0.0,0.0,0.0,0.0,0.0,0.0,0.0,0.0,0.0,0.0,0.0,0.0,0.0,0.0,0.0,0.0,0.0,0.0,0.0,0.0,0.0,0.0,0.0,0.0,0.0,0.0,0.0,0.0,0.0,0.0,0.0,0.0,0.0,0.0,0.0,0.0,0.0,0.0,0.0,0.0,0.0,0.0,0.0,0.0,0.0,0.0,0.0,0.0,0.0,0.0,0.0,0.6564,0.6572,0.6556,0.6483,0.636,0.6248,0.0,0.0,0.0,0.0,0.0,0.0,0.0,0.0,0.0,0.0,0.0,0.0,0.0,0.0,0.0,0.0,0.0,0.0,0.0,0.0,0.0,0.0,0.0,0.0,0.0,0.0,0.0,0.0,0.0,0.0,0.0,0.0,0.0,0.0,0.0,0.0,0.0,0.0,0.0,0.0,0.0,0.0,0.0,0.0,0.0,0.0,0.0,0.0,0.0,0.0,0.0,0.0,0.0,0.0,0.0,0.0,0.0,0.0,0.0,0.0,0.0,0.0,0.0,0.0,0.0,0.0,0.0,0.0,0.0,0.0,0.0,0.0,0.0,0.0,0.0,0.0,0.0,0.0,0.0,0.0,0.0,0.0,0.0,0.0,0.0,0.0,0.0,0.0,0.0,0.0,0.0,0.0,0.0,0.0,0.0,0.0,0.0,0.0,0.0,0.0,0.0,0.0,0.0,0.0,0.0,0.0,0.0,0.0,0.7432,0.7429,0.7437,0.742,0.7124,0.6933,0.0,0.0,0.0,0.0,0.0,0.0,0.0,0.0,0.0,0.0,0.0,0.0,0.0,0.0,0.0,0.0,0.0,0.0,0.0,0.0,0.0,0.0,0.0,0.0,0.0,0.0,0.0,0.0,0.0,0.0,0.0,0.0,0.0,0.0,0.0,0.0,0.0,0.0,0.0,0.0,0.0,0.0,0.0,0.0,0.0,0.0,0.0,0.0,0.0,0.0,0.0,0.0,0.0,0.0,0.0,0.0,0.0,0.0,0.0,0.0,0.0,0.0,0.0,0.0,0.0,0.0,0.0,0.0,0.0,0.0,0.0,0.0,0.0,0.0,0.0,0.0,0.0,0.0,0.0,0.0,0.0,0.0,0.0,0.0,0.0,0.0,0.0,0.0,0.0,0.0,0.0,0.0,0.0,0.0,0.0,0.0,0.0,0.0,0.0,0.0,0.0,0.0,0.0,0.0,0.0,0.0,0.0,0.0,0.0,0.7634,0.7714,0.7756,0.7739,0.7553,0.7409,0.0,0.0,0.0,0.0,0.0,0.0,0.0,0.0,0.0,0.0,0.0,0.0,0.0,0.0,0.0,0.0,0.0,0.0,0.0,0.0,0.0,0.0,0.0,0.0,0.0,0.0,0.0,0.0,0.0,0.0,0.0,0.0,0.0,0.0,0.0,0.0,0.0,0.0,0.0,0.0,0.0,0.0,0.0,0.0,0.0,0.0,0.0,0.0,0.0,0.0,0.0,0.0,0.0,0.0,0.0,0.0,0.0,0.0,0.0,0.0,0.0,0.0,0.0,0.0,0.0,0.0,0.0,0.0,0.0,0.0,0.0,0.0,0.0,0.0,0.0,0.0,0.0,0.0,0.0,0.0,0.0,0.0,0.0,0.0,0.0,0.0,0.0,0.0,0.0,0.0,0.0,0.0,0.0,0.0,0.0,0.0,0.0,0.0,0.0,0.0,0.0,0.0,0.0,0.0,0.0,0.0,0.0,0.0,0.0,0.8369,0.0,0.83,0.8277,0.8094,0.7977,0.0,0.0,0.0,0.0,0.0,0.0,0.0,0.0,0.0,0.0,0.0,0.0,0.0,0.0,0.0,0.0,0.0,0.0,0.0,0.0,0.0,0.0,0.0,0.0,0.0,0.0,0.0,0.0,0.0,0.0,0.0,0.0,0.0,0.0,0.0,0.0,0.0,0.0,0.0,0.0,0.0,0.0,0.0,0.0,0.0,0.0,0.0,0.0,0.0,0.0,0.0,0.0,0.0,0.0,0.0,0.0,0.0,0.0,0.0,0.0,0.0,0.0,0.0,0.0,0.0,0.0,0.0,0.0,0.0,0.0,0.0,0.0,0.0,0.0,0.0,0.0,0.0,0.0,0.0,0.0,0.0,0.0,0.0,0.0,0.0,0.0,0.0,0.0,0.0,0.0,0.0,0.0,0.0,0.0,0.0,0.0,0.0,0.0,0.0,0.0,0.0,0.0,0.0,0.0,0.0,0.0,0.0,0.0,0.9842,0.9671,0.9283,0.908,0.9082,0.8802,0.8686,0.0,0.0,0.0,0.0,0.0,0.0,0.0,0.0,0.0,0.0,0.0,0.0,0.0,0.0,0.0,0.0,0.0,0.0,0.0,0.0,0.0,0.0,0.0,0.0,0.0,0.0,0.0,0.0,0.0,0.0,0.0,0.0,0.0,0.0,0.0,0.0,0.0,0.0,0.0,0.0,0.0,0.0,0.0,0.0,0.0,0.0,0.0,0.0,0.0,0.0,0.0,0.0,0.0,0.0,0.0,0.0,0.0,0.0,0.0,0.0,0.0,0.0,0.0,0.0,0.0,0.0,0.0,0.0,0.0,0.0,0.0,0.0,0.0,0.0,0.0,0.0,0.0,0.0,0.0,0.0,0.0,0.0,0.0,0.0,0.0,0.0,0.0,0.0,0.0,0.0,0.0,0.0,0.0,0.0,0.0,0.0,0.0,0.0,0.0,0.0,0.0,0.0,0.0,0.0,0.0,0.0,0.0,0.0,0.0,1.0124,0.9765,0.9594,0.958,0.9625,0.9617,0.0,0.0,0.0,0.0,0.0,0.0,0.0,0.0,0.0,0.0,0.0,0.0,0.0,0.0,0.0,0.0,0.0,0.0,0.0,0.0,0.0,0.0,0.0,0.0,0.0,0.0,0.0,0.0,0.0,0.0,0.0,0.0,0.0,0.0,0.0,0.0,0.0,0.0,0.0,0.0,0.0,0.0,0.0,0.0,0.0,0.0,0.0,0.0,0.0,0.0,0.0,0.0,0.0,0.0,0.0,0.0,0.0,0.0,0.0,0.0,0.0,0.0,0.0,0.0,0.0,0.0,0.0,0.0,0.0,0.0,0.0,0.0,0.0,0.0,0.0,0.0,0.0,0.0,0.0,0.0,0.0,0.0,0.0,0.0,0.0,0.0,0.0,0.0,0.0,0.0,0.0,0.0,0.0,0.0,0.0,0.0,0.0,0.0,0.0,0.0,0.0,0.0,0.0,0.0,0.0,0.0,0.0,0.0,0.0,1.129,1.0667,1.0316,1.0307,1.0387,1.0437,1.0414,0.0,0.0,0.0,0.0,0.0,0.0,0.0,0.0,0.0,0.0,0.0,0.0,0.0,0.0,0.0,0.0,0.0,0.0,0.0,0.0,0.0,0.0,0.0,0.0,0.0,0.0,0.0,0.0,0.0,0.0,0.0,0.0,0.0,0.0,0.0,0.0,0.0,0.0,0.0,0.0,0.0,0.0,0.0,0.0,0.0,0.0,0.0,0.0,0.0,0.0,0.0,0.0,0.0,0.0,0.0,0.0,0.0,0.0,0.0,0.0,0.0,0.0,0.0,0.0,0.0,0.0,0.0,0.0,0.0,0.0,0.0,0.0,0.0,0.0,0.0,0.0,0.0,0.0,0.0,0.0,0.0,0.0,0.0,0.0,0.0,0.0,0.0,0.0,0.0,0.0,0.0,0.0,0.0,0.0,0.0,0.0,0.0,0.0,0.0,0.0,0.0,0.0,0.0,0.0,0.0,0.0,0.0,0.0,1.3003,1.1928,1.1342,1.1287,1.1159,1.1178,0.0,0.0,0.0,0.0,0.0,0.0,0.0,0.0,0.0,0.0,0.0,0.0,0.0,0.0,0.0,0.0,0.0,0.0,0.0,0.0,0.0,0.0,0.0,0.0,0.0,0.0,0.0,0.0,0.0,0.0,0.0,0.0,0.0,0.0,0.0,0.0,0.0,0.0,0.0,0.0,0.0,0.0,0.0,0.0,0.0,0.0,0.0,0.0,0.0,0.0,0.0,0.0,0.0,0.0,0.0,0.0,0.0,0.0,0.0,0.0,0.0,0.0,0.0,0.0,0.0,0.0,0.0,0.0,0.0,0.0,0.0,0.0,0.0,0.0,0.0,0.0,0.0,0.0,0.0,0.0,0.0,0.0,0.0,0.0,0.0,0.0,0.0,0.0,0.0,0.0,0.0,0.0,0.0,0.0,0.0,0.0,0.0,0.0,0.0,0.0,0.0,0.0,0.0,0.0,0.0,0.0,0.0,0.0,0.0,1.321,1.3252,1.2935,1.2272,1.2264,1.2139,0.0,0.0,0.0,0.0,0.0,0.0,0.0,0.0,0.0,0.0,0.0,0.0,0.0,0.0,0.0,0.0,0.0,0.0,0.0,0.0,0.0,0.0,0.0,0.0,0.0,0.0,0.0,0.0,0.0,0.0,0.0,0.0,0.0,0.0,0.0,0.0,0.0,0.0,0.0,0.0,0.0,0.0,0.0,0.0,0.0,0.0,0.0,0.0,0.0,0.0,0.0,0.0,0.0,0.0,0.0,0.0,0.0,0.0,0.0,0.0,0.0,0.0,0.0,0.0,0.0,0.0,0.0,0.0,0.0,0.0,0.0,0.0,0.0,0.0,0.0,0.0,0.0,0.0,0.0,0.0,0.0,0.0,0.0,0.0,0.0,0.0,0.0,0.0,0.0,0.0,0.0,0.0,0.0,0.0,0.0,0.0,0.0,0.0,0.0,0.0,0.0,0.0,0.0,0.0,0.0,0.0,0.0,0.0,1.3659,1.3804,1.426,1.4225,1.3639,1.3184,1.2834,0.0,0.0,0.0,0.0,0.0,0.0,0.0,0.0,0.0,0.0,0.0,0.0,0.0,0.0,0.0,0.0,0.0,0.0,0.0,0.0,0.0,0.0,0.0,0.0,0.0,0.0,0.0,0.0,0.0,0.0,0.0,0.0,0.0,0.0,0.0,0.0,0.0,0.0,0.0,0.0,0.0,0.0,0.0,0.0,0.0,0.0,0.0,0.0,0.0,0.0,0.0,0.0,0.0,0.0,0.0,0.0,0.0,0.0,0.0,0.0,0.0,0.0,0.0,0.0,0.0,0.0,0.0,0.0,0.0,0.0,0.0,0.0,0.0,0.0,0.0,0.0,0.0,0.0,0.0,0.0,0.0,0.0,0.0,0.0,0.0,0.0,0.0,0.0,0.0,0.0,0.0,0.0,0.0,0.0,0.0,0.0,0.0,0.0,0.0,0.0,0.0,0.0,0.0,0.0,0.0,0.0,0.0,0.0,1.4246,1.4525,1.4968,1.5143,1.4995,1.3986,1.3377,0.0,0.0,0.0,0.0,0.0,0.0,0.0,0.0,0.0,0.0,0.0,0.0,0.0,0.0,0.0,0.0,0.0,0.0,0.0,0.0,0.0,0.0,0.0,0.0,0.0,0.0,0.0,0.0,0.0,0.0,0.0,0.0,0.0,0.0,0.0,0.0,0.0,0.0,0.0,0.0,0.0,0.0,0.0,0.0,0.0,0.0,0.0,0.0,0.0,0.0,0.0,0.0,0.0,0.0,0.0,0.0,0.0,0.0,0.0,0.0,0.0,0.0,0.0,0.0,0.0,0.0,0.0,0.0,0.0,0.0,0.0,0.0,0.0,0.0,0.0,0.0,0.0,0.0,0.0,0.0,0.0,0.0,0.0,0.0,0.0,0.0,0.0,0.0,0.0,0.0,0.0,0.0,0.0,0.0,0.0,0.0,0.0,0.0,0.0,0.0,0.0,0.0,0.0,0.0,0.0,0.0,0.0,0.0,1.4294,1.4651,1.5011,1.5191,1.5163,1.457,1.407,0.0,0.0,0.0,0.0,0.0,0.0,0.0,0.0,0.0,0.0,0.0,0.0,0.0,0.0,0.0,0.0,0.0,0.0,0.0,0.0,0.0,0.0,0.0,0.0,0.0,0.0,0.0,0.0,0.0,0.0,0.0,0.0,0.0,0.0,0.0,0.0,0.0,0.0,0.0,0.0,0.0,0.0,0.0,0.0,0.0,0.0,0.0,0.0,0.5509,0.0,0.0,0.0,0.0,0.0,0.0,0.0,0.0,0.0,0.0,0.0,0.0,0.0,0.0,0.0,0.0,0.0,0.0,0.0,0.0,0.0,0.0,0.0,0.0,0.0,0.0,0.0,0.0,0.0,0.0,0.0,0.0,0.0,0.0,0.0,0.0,0.0,0.0,0.0,0.0,0.0,0.0,0.0,0.0,0.0,0.0,0.0,0.0,0.0,0.0,0.0,0.0,0.0,0.0,0.0,0.0,0.0,0.0,0.0,1.4473,1.4823,1.5077,1.5192,1.5179,1.49,1.4482,0.0,0.0,0.0,0.0,0.0,0.0,0.0,0.0,0.0,0.0,0.0,0.0,0.0,0.0,0.0,0.0,0.0,0.0,0.0,0.0,0.0,0.0,0.0,0.0,0.0,0.0,0.0,0.0,0.0,0.0,0.0,0.0,0.0,0.0,0.0,0.0,0.0,0.0,0.0,0.0,0.0,0.0,0.0,0.0,0.0,0.0,0.0,0.0,0.0,0.0,0.0,0.0,0.0,0.0,0.0,0.0,0.0,0.0,0.0,0.0,0.0,0.0,0.0,0.0,0.0,0.0,0.0,0.0,0.0,0.0,0.0,0.0,0.0,0.0,0.0,0.0,0.0,0.0,0.0,0.0,0.0,0.0,0.0,0.0,0.0,0.0,0.0,0.0,0.0,0.0,0.0,0.0,0.0,0.0,0.0,0.0,0.0,0.0,0.0,0.0,0.0,0.0,0.0,0.0,0.0,0.0,0.0,1.4283,1.4685,1.5048,1.5157,1.5192,1.5204,1.508,1.4733,1.4144,0.0,0.0,0.0,0.0,0.0,0.0,0.0,0.0,0.0,0.0,0.0,0.0,0.0,0.0,0.0,0.0,0.0,0.0,0.0,0.0,0.0,0.0,0.0,0.0,0.0,0.0,0.0,0.0,0.0,0.0,0.0,0.0,0.0,0.0,0.0,0.0,0.0,0.0,0.0315,0.1271,0.0,0.0,0.0,0.0,0.0,0.0,0.0,0.0,0.8581,0.0,0.0,0.0,0.0,0.0,0.0,0.0,0.0,0.0,0.0,0.0,0.0,0.0,0.0,0.0,0.0,0.0,0.0,0.0,0.0,0.0,0.0,0.0,0.0,0.0,0.0,0.0,0.0,0.0,0.0,0.0,0.0,0.0,0.0,0.0,0.0,0.0,0.0,0.0,0.0,0.0,0.0,0.0,0.0,0.0,0.0,0.0,0.0,0.0,0.0,0.0,0.0,0.0,0.0,0.0,0.0,1.4211,1.4414,1.478,1.5311,1.5247,1.5192,1.5204,1.5068,1.4769,1.4272,0.0,0.0,0.0,0.0,0.0,0.0,0.0,0.0,0.0,0.0,0.0,0.0,0.0,0.0,0.0,0.0,0.0,0.0,0.0,0.0,0.0,0.0,0.0,0.0,0.0,0.0,0.0,0.0,0.0,0.0,0.0,0.0,0.0,0.0,0.0,0.0,0.0,0.0,0.0,0.1023,0.1503,0.0,0.0,0.0,0.0,0.0,0.0,0.0,0.0,0.9577,0.0,0.0,0.0,0.0,0.0,0.0,0.0,0.0,0.0,0.0,0.0,0.0,0.0,0.0,0.0,0.0,0.0,0.0,0.0,0.0,0.0,0.0,0.0,0.0,0.0,0.0,0.0,0.0,0.0,0.0,0.0,0.0,0.0,0.0,0.0,0.0,0.0,0.0,0.0,0.0,0.0,0.0,0.0,0.0,0.0,0.0,0.0,0.0,0.0,0.0,0.0,0.0,0.0,0.0,0.0,1.4369,1.4631,1.4952,1.5379,1.5274,1.5192,1.5204,1.5068,1.4794,0.0,0.0,0.0,0.0,0.0,0.0,0.0,0.0,0.0,0.0,0.0,0.0,0.0,0.0,0.0,0.0,0.0,0.0,0.0,0.0,0.0,0.0,0.0,0.0,0.0,0.0,0.0,0.0,0.0,0.0,0.0,0.0,0.0,0.0,0.0,0.0,0.0,0.0,0.0,0.0,0.4997,0.6169,0.6739,0.0,0.0,0.0,0.0,0.0,0.0,1.1435,1.056,0.0,0.0,0.0,0.0,0.0,0.0,0.0,0.0,0.0,0.0,0.0,0.0,0.0,0.0,0.0,0.0,0.0,0.0,0.0,0.0,0.0,0.0,0.0,0.0,0.0,0.0,0.0,0.0,0.0,0.0,0.0,0.0,0.0,0.0,0.0,0.0,0.0,0.0,0.0,0.0,0.0,0.0,0.0,0.0,0.0,0.0,0.0,0.0,0.0,0.0,0.0,0.0,0.0,0.0,0.0,1.4572,1.4887,1.5197,1.5479,1.535,1.5262,1.524,1.5089,1.4771,0.0,0.0,0.0,0.0,0.0,0.0,0.0,0.0,0.0,0.0,0.0,0.0,0.0,0.0,0.0,0.0,0.0,0.0,0.0,0.0,0.0,0.0,0.0,0.0,0.0,0.0,0.0,0.0,0.0,0.0,0.0,0.0,0.0,0.0,0.0,0.0,0.0,0.0,0.0,0.0,0.0,1.0357,0.9122,0.8842,0.0,0.0,0.0,0.0,1.2466,1.2059,0.0,0.0,0.0,0.0,0.0,0.0,0.0,0.0,0.0,0.0,0.0,0.0,0.0,0.0,0.0,0.0,0.0,0.0,0.0,0.0,0.0,0.0,0.0,0.0,0.0,0.0,0.0,0.0,0.0,0.0,0.0,0.0,0.0,0.0,0.0,0.0,0.0,0.0,0.0,0.0,0.0,0.0,0.0,0.0,0.0,0.0,0.0,0.0,0.0,0.0,0.0,0.0,0.0,0.0,0.0,0.0,1.4905,1.5091,1.5399,1.582,1.5655,1.5496,1.5372,1.5131,1.4783,0.0,0.0,0.0,0.0,0.0,0.0,0.0,0.0,0.0,0.0,0.0,0.0,0.0,0.0,0.0,0.0,0.0,0.0,0.0,0.0,0.0,0.0,0.0,0.0,0.0,0.0,0.0,0.0,0.0,0.0,0.0,0.0,0.0,0.0,0.0,0.0,0.0,0.0,0.0,0.0,0.0,0.9282,1.1417,1.1379,1.11,0.0,0.0,1.2719,1.2836,1.2684,0.0,0.0,0.0,0.0,0.0,0.0,0.0,0.0,0.0,0.0,0.0,0.0,0.0,0.0,0.0,0.0,0.0,0.0,0.0,0.0,0.0,0.0,0.0,0.0,0.0,0.0,0.0,0.0,0.0,0.0,0.0,0.0,0.0,0.0,0.0,0.0,0.0,0.0,0.0,0.0,0.0,0.0,0.0,0.0,0.0,0.0,0.0,0.0,0.0,0.0,0.0,0.0,0.0,0.0,0.0,1.4337,1.498,1.5271,1.5574,1.5888,1.5698,1.556,1.5528,1.526,1.4928,0.0,0.0,0.0,0.0,0.0,0.0,0.0,0.0,0.0,0.0,0.0,0.0,0.0,0.0,0.0,0.0,0.0,0.0,0.0,0.0,0.0,0.0,0.0,0.0,0.0,0.0,0.0,0.0,0.0,0.0,0.0,0.0,0.0,0.0,0.0,0.0,0.0,0.0,0.0,0.0,0.0,0.0,1.1973,1.2034,0.0,0.0,0.0,1.3307,1.3851,0.0,0.0,0.0,0.0,0.0,0.0,0.0,0.0,0.0,0.0,0.0,0.0,0.0,0.0,0.0,0.0,0.0,0.0,0.0,0.0,0.0,0.0,0.0,0.0,0.0,0.0,0.0,0.0,0.0,0.0,0.0,0.0,0.0,0.0,0.0,0.0,0.0,0.0,0.0,0.0,0.0,0.0,0.0,0.0,0.0,0.0,0.0,0.0,0.0,0.0,0.0,0.0,0.0,0.0,0.0,0.0,0.0,1.5041,1.5466,1.5752,1.5924,1.5805,1.5718,1.5665,1.5432,0.0,0.0,0.0,0.0,0.0,0.0,0.0,0.0,0.0,0.0,0.0,0.0,0.0,0.0,0.0,0.0,0.0,0.0,0.0,0.0,0.0,0.0,0.0,0.0,0.0,0.0,0.0,0.9856,0.0,0.0,0.0,0.0,0.0,0.0,0.0,0.0,0.0,0.0,0.0,0.0,0.0,0.0,1.1215,1.2083,1.2626,1.2824,0.0,0.0,1.398,1.4603,1.4233,1.4038,0.0,0.0,0.0,0.0,0.0,0.0,0.0,0.0,0.0,0.0,0.0,0.0,0.0,0.0,0.0,0.0,0.0,0.0,0.0,0.0,0.0,0.0,0.0,0.0,0.0,0.0,0.0,0.0,0.0,0.0,0.0,0.0,0.0,0.0,0.0,0.0,0.0,0.0,0.0,0.0,0.0,0.0,0.0,0.0,0.0,0.0,0.0,0.0,0.0,0.0,0.0,0.0,0.0,0.0,0.0,1.5184,1.5656,1.595,1.608,1.6068,1.6018,1.5875,1.5689,1.5301,0.0,0.0,0.0,0.0,0.0,0.0,0.0,0.0,0.0,0.0,0.0,0.0,0.0,0.0,0.0,0.0,0.0,0.0,0.0,0.0,0.0,0.0,0.0,0.0,0.0,0.0,0.0,0.0,0.0,0.0,0.0,0.0,0.0,0.0,0.0,0.0,0.0,0.0,0.0,0.0,0.0,1.1621,1.2124,1.3808,1.4981,0.0,0.0,1.4992,1.4746,1.4661,1.4552,1.4355,0.0,0.0,0.0,0.0,0.0,0.0,0.0,0.0,0.0,0.0,0.0,0.0,0.0,0.0,0.0,0.0,0.0,0.0,0.0,0.0,0.0,0.0,0.0,0.0,0.0,0.0,0.0,0.0,0.0,0.0,0.0,0.0,0.0,0.0,0.0,0.0,0.0,0.0,0.0,0.0,0.0,0.0,0.0,0.0,0.0,0.0,0.0,0.0,0.0,0.0,0.0,0.0,0.0,1.4798,1.5328,1.5788,1.6046,1.6101,1.612,1.608,1.6007,1.5864,1.5593,0.0,0.0,0.0,0.0,0.0,0.0,0.0,0.0,0.0,0.0,0.0,0.0,0.0,0.0,0.0,0.0,0.0,0.0,0.0,0.0,0.0,0.0,0.0,0.0,0.0,0.0,0.0,0.0,1.1373,1.1747,1.2431,0.0,0.0,0.0,0.0,0.0,0.0,0.0,0.0,0.0,0.0,1.3423,1.3966,1.471,0.0,0.0,1.5197,1.5155,1.5024,1.4839,1.4652,1.4561,1.4401,0.0,0.0,0.0,0.0,0.0,0.0,0.0,0.0,0.0,0.0,0.0,0.0,0.0,0.0,0.0,0.0,0.0,0.0,0.0,0.0,0.0,0.0,0.0,0.0,0.0,0.0,0.0,0.0,0.0,0.0,0.0,0.0,0.0,0.0,0.0,0.0,0.0,0.0,0.0,0.0,0.0,0.0,0.0,0.0,0.0,0.0,0.0,0.0,0.0,0.0,0.0,0.0,1.4993,1.5411,1.59,1.6176,1.6176,1.6204,1.6191,1.6176,1.6074,1.5856,0.0,0.0,0.0,0.0,0.0,0.0,0.0,0.0,0.0,0.0,0.0,0.0,0.0,0.0,0.0,0.0,0.0,0.0,0.0,0.0,0.0,0.0,0.0,0.0,0.0,0.0,0.0,0.0,1.1908,1.229,1.2473,0.0,0.0,0.0,0.0,0.0,0.0,0.0,0.0,0.0,0.0,1.4785,1.5384,1.5481,1.5416,1.5237,1.5201,1.5197,1.5197,1.4943,1.4708,1.4604,0.0,0.0,0.0,0.0,0.0,0.0,0.0,0.0,0.0,0.0,0.0,0.0,0.0,0.0,0.0,0.0,0.0,0.0,0.0,0.0,0.0,0.0,0.0,0.0,0.0,0.0,0.0,0.0,0.0,0.0,1.1604,0.0,0.0,0.0,0.0,0.0,0.0,0.0,0.0,0.0,0.0,0.0,0.0,0.0,0.0,0.0,0.0,0.0,0.0,0.0,0.0,0.0,0.0,1.5131,1.5418,1.6008,1.6294,1.6307,1.643,1.643,1.6307,1.6287,1.6065,1.5612,0.0,0.0,0.0,0.0,0.0,0.0,0.0,0.0,0.0,0.0,0.0,0.0,0.0,0.0,0.0,0.0,0.0,0.0,0.0,0.0,0.0,0.0,0.0,0.0,0.0,0.0,1.2078,1.233,1.2486,0.0,0.0,0.0,0.0,0.0,0.0,0.0,0.0,0.0,0.0,1.3896,1.5401,1.5959,1.608,1.5828,1.5278,1.5206,1.5198,1.5204,1.5035,1.4759,0.0,0.0,0.0,0.0,0.0,0.0,0.0,0.0,0.0,0.0,0.0,0.0,0.0,0.0,0.0,0.0,0.0,0.0,0.0,0.0,0.0,0.0,0.0,0.0,0.0,0.0,0.0,1.2205,1.2476,0.0,0.0,0.0,0.0,0.0,0.0,0.0,0.0,0.0,0.0,0.0,1.495,1.4885,0.0,0.0,0.0,0.0,0.0,0.0,0.0,0.0,0.0,0.0,0.0,0.0,1.5459,1.5864,1.6246,1.6424,1.6436,1.6484,1.6484,1.643,1.6424,1.6226,1.5816,0.0,0.0,0.0,0.0,0.0,0.0,0.0,0.0,0.0,0.0,0.0,0.0,0.0,0.0,0.0,0.0,0.0,0.0,0.0,0.0,0.0,0.0,0.0,0.0,0.0,1.2544,0.0,0.0,0.0,0.0,0.0,0.0,0.0,0.0,0.0,0.0,0.0,1.2954,1.3518,1.4516,1.5274,1.5479,1.5507,1.5429,0.0,0.0,0.0,0.0,0.0,0.0,0.0,0.0,0.0,0.0,0.0,0.0,0.0,0.0,1.3578,1.316,1.3167,1.3369,1.3776,0.0,0.0,0.0,0.0,0.0,0.0,0.0,0.0,0.0,0.0,0.0,0.0,0.0,0.0,0.0,0.0,1.3607,0.0,0.0,0.0,0.0,0.0,0.0,0.0,0.0,1.5027,1.5271,1.5573,1.5477,1.5379,0.0,1.4968,1.4595,0.0,0.0,0.0,0.0,0.0,0.0,0.0,0.0,1.5737,1.6088,1.6416,1.6573,1.6579,1.6627,1.664,1.6592,1.6525,1.6361,1.6046,1.5688,1.5233,0.0,0.0,0.0,0.0,0.0,0.0,0.0,0.0,0.0,0.0,0.0,0.0,0.0,0.0,0.0,0.0,0.0,0.0,0.0,0.0,0.0,0.0,0.0,1.2906,0.0,0.0,0.0,0.0,0.0,0.0,0.0,0.0,0.0,1.3793,1.3747,1.389,1.4371,1.4877,1.5196,1.5196,0.0,0.0,0.0,0.0,0.0,0.0,0.0,1.5286,1.5203,1.5014,1.5019,1.5442,1.5185,1.4925,1.4923,0.0,0.0,1.4129,1.4342,1.463,1.4728,1.4586,1.4244,1.3589,1.3287,1.3429,0.0,0.0,0.0,0.0,0.0,0.0,0.0,0.0,1.3586,1.3844,0.0,1.4296,0.0,0.0,0.0,0.0,0.0,0.0,0.0,0.0,1.5629,1.5896,1.5903,1.5915,1.5803,1.5618,1.5364,1.5296,1.5372,1.4848,0.0,0.0,0.0,0.0,0.0,0.0,1.5984,1.6143,1.6532,1.6723,1.6742,1.6904,1.6917,1.6729,1.6593,1.6457,1.6314,1.6171,1.5843,1.5247,1.4774,0.0,0.0,0.0,0.0,0.0,0.0,0.0,0.0,0.0,0.0,0.0,0.0,0.0,0.0,0.0,0.0,0.0,0.0,0.0,0.0,1.3024,0.0,0.0,0.0,0.0,0.0,0.0,0.0,0.0,0.0,0.0,1.4154,1.4246,1.4421,1.4699,0.0,0.0,0.0,0.0,1.61,1.6098,1.6107,1.6102,1.6107,1.5778,1.545,1.5243,0.0,0.0,1.5998,1.6097,1.6066,1.6095,1.6052,1.5913,1.5319,1.5606,1.5884,1.5614,1.5095,1.4644,1.4375,1.3925,1.3875,1.3764,0.0,0.0,0.0,0.0,1.3241,1.3701,1.4333,1.4527,1.4765,1.5038,1.5176,0.0,0.0,0.0,0.0,0.0,0.0,1.5471,1.5782,1.5874,1.5992,1.6178,1.6178,1.6145,1.6104,1.6029,1.6008,1.603,1.5867,1.5542,1.5094,0.0,0.0,0.0,0.0,1.6456,1.674,1.7046,1.7189,1.7189,1.7243,1.7222,1.704,1.6937,1.6768,1.6587,1.6451,1.6218,1.5844,1.5289,0.0,0.0,0.0,0.0,0.0,0.0,0.0,0.0,0.0,0.0,0.0,0.0,0.0,0.0,0.0,0.0,0.0,0.0,0.0,1.342,1.372,1.3873,0.0,0.0,0.0,0.0,0.0,0.0,0.0,0.0,0.0,1.4912,1.4922,1.5055,0.0,0.0,1.5689,1.5257,1.5711,1.6107,1.6109,0.0,0.0,0.0,1.6136,1.5827,1.5529,1.5676,1.5903,1.6059,1.6114,1.6113,1.6113,1.6111,1.6036,1.5893,1.5773,1.5732,1.5586,1.5304,1.5105,1.5187,1.5082,1.4982,1.5126,1.452,1.398,1.3892,1.4133,1.4288,1.4701,1.5264,1.5333,1.5449,1.5588,1.567,1.5576,1.5357,1.5264,0.0,0.0,0.0,1.5852,1.6171,1.6162,1.6218,1.6388,1.6395,1.6416,1.6445,1.6397,1.649,1.6646,1.6531,1.6342,1.6104,0.0,0.0,1.6079,1.6476,1.6782,1.6998,1.7256,1.7392,1.7392,1.7392,1.7365,1.727,1.7141,1.7019,1.6898,1.6768,1.6564,1.6266,1.581,1.5337,0.0,0.0,0.0,0.0,0.0,0.0,0.0,0.0,0.0,0.0,0.0,1.2871,1.3132,0.0,0.0,0.0,1.3756,1.3884,1.4033,1.4191,0.0,0.0,0.0,0.0,0.0,0.0,0.0,1.5183,1.53,1.5385,1.5527,1.5552,1.5584,1.5589,1.589,1.5966,1.561,0.0,1.6175,1.6425,1.6597,1.6688,1.6694,1.642,1.6126,1.5846,1.6171,1.635,1.6139,1.612,1.612,1.612,1.612,1.612,1.612,1.5934,1.5748,1.5638,1.5517,1.5492,1.5588,1.5505,1.5397,1.6381,1.6273,1.5052,1.4833,1.5274,1.5294,1.5625,1.6109,1.5992,1.5956,1.5943,1.5943,1.5844,1.5673,1.5661,0.0,0.0,1.608,1.6198,1.6335,1.6451,1.6531,1.6545,1.6546,1.6607,1.6742,1.6627,1.6809,1.7195,1.6924,1.6918,1.7188,1.6776,1.6511,1.6396,1.6815,1.7039,1.7052,1.7317,1.7446,1.7426,1.7419,1.7406,1.7392,1.727,1.7182,1.7181,1.7066,1.6862,1.6539,1.6266,1.5919,1.5472,0.0,0.0,0.0,0.0,0.0,0.0,0.0,0.0,0.0,0.0,0.0,0.0,0.0,0.0,0.0,1.445,0.0,1.4681,1.4502,0.0,0.0,0.0,1.4889,1.5183,1.4897,1.5058,1.599,0.0,0.0,1.6041,0.0,1.603,1.5712,1.5943,1.614,1.6178,1.6167,1.6369,1.6895,1.6987,1.6994,1.6957,1.668,1.6403,1.6243,1.6601,1.6654,1.6222,1.6112,1.6111,1.6118,1.6117,1.6111,1.6117,1.6102,1.6053,1.5753,1.5719,1.5736,1.5634,1.5417,1.5288,1.6998,1.6958,1.6652,1.634,1.6049,1.6145,1.6274,1.6396,1.6369,1.6361,1.6361,1.6348,1.6341,1.6276,1.6276,1.6314,1.6368,1.6402,1.6471,1.662,1.6654,1.6715,1.6889,1.6978,1.7046,1.7093,1.7142,1.725,1.7358,1.727,1.727,1.7345,1.723,1.7108,1.6998,1.7202,1.7358,1.7453,1.767,1.7786,1.7779,1.7629,1.75,1.7392,1.7283,1.7154,1.7059,1.7025,1.6964,1.6863,1.6463,1.6157,1.5939,1.5238,0.0,0.0,0.0,0.0,0.0,0.0,0.0,0.0,0.0,1.4086,1.4173,0.0,1.4719,0.0,1.4774,1.4828,1.4719,1.4885,0.0,0.0,1.5066,1.5328,1.522,1.538,1.5652,1.6047,1.6102,1.6114,1.612,1.6369,1.6489,1.6315,1.6351,1.6496,1.6728,1.6785,1.6827,1.6965,1.7003,1.7007,1.6993,1.6942,1.6823,1.6803,1.6546,1.6252,1.6136,1.6113,1.6116,1.6116,1.6116,1.6116,1.6122,1.6255,1.6374,1.626,1.5951,1.5646,1.561,1.5534,1.5563,1.7297,1.7297,1.729,1.71,1.6802,1.6735,1.6727,1.672,1.664,1.6587,1.658,1.6538,1.6504,1.6504,1.6504,1.6545,1.66,1.668,1.6796,1.6931,1.6979,1.7067,1.7182,1.7256,1.7317,1.7385,1.7453,1.7528,1.7616,1.7629,1.7629,1.7629,1.7629,1.7589,1.7507,1.75,1.7521,1.7609,1.7806,1.7915,1.7901,1.7711,1.7554,1.7494,1.7311,1.7168,1.71,1.7025,1.7004,1.6984,1.6667,1.641,1.6273,1.572,1.5286,0.0,0.0,0.0,0.0,0.0,0.0,0.0,0.0,0.0,0.0,0.0,1.5138,0.0,1.5169,1.5196,1.5028,1.513,1.5176,1.5114,1.5639,1.5911,1.5637,1.566,1.5873,1.6225,1.6381,1.642,1.6375,1.6553,1.671,1.6705,1.673,1.6792,1.6961,1.6991,1.6999,1.7006,1.6996,1.7004,1.7004,1.7004,1.6997,1.6981,1.6724,1.6507,1.6492,1.6514,1.6491,1.6504,1.6504,1.6504,1.6504,1.6613,1.6715,1.6649,1.6329,1.5994,1.5843,1.5818,1.5892,1.7467,1.7473,1.7433,1.7419,1.7399,1.7154,1.7052,1.7039,1.6851,1.6797,1.679,1.6634,1.6579,1.6592,1.6566,1.664,1.6749,1.6937,1.7086,1.7202,1.7358,1.7419,1.7419,1.7453,1.7521,1.7636,1.7636,1.7724,1.7901,1.7915,1.7922,1.7935,1.7942,1.7949,1.7942,1.7771,1.7676,1.7636,1.7813,1.7915,1.7901,1.7724,1.7636,1.7568,1.7345,1.7215,1.7175,1.7072,1.7004,1.6998,1.681,1.6648,1.6525,1.6161,1.5862,0.0,1.5276,0.0,0.0,0.0,0.0,0.0,0.0,0.0,0.0,1.535,1.5447,1.5493,1.5577,1.5604,1.5521,1.5354,1.5352,1.5636,1.6198,1.6475,1.6231,1.5881,1.5898,1.6505,1.6571,1.6605,1.6675,1.6729,1.681,1.6944,1.6971,1.6977,1.6998,1.6991,1.6991,1.7004,1.7004,1.7004,1.7004,1.7004,1.699,1.7004,1.6971,1.7,1.6973,1.6971,1.699,1.6977,1.6946,1.6977,1.6995,1.7329,1.7721,1.7856,1.7511,1.6932,1.6323,1.6157,1.6165,1.7806,1.7792,1.7622,1.7568,1.7548,1.7385,1.7324,1.7324,1.729,1.7257,1.7257,1.7121,1.7066,1.706,1.6957,1.691,1.6944,1.7087,1.7181,1.7215,1.7453,1.7561,1.7568,1.7724,1.782,1.7847,1.7861,1.7867,1.7922,1.8017,1.805,1.8064,1.8172,1.8233,1.8219,0.0,0.0,0.0,1.7881,1.7915,1.7901,1.7881,1.7718,1.746,1.7399,0.0,1.7046,1.6992,1.7004,1.6984,1.6803,0.0,0.0,0.0,0.0,0.0,0.0,0.0,0.0,0.0,0.0,0.0,1.5699,1.5585,1.5379,1.5482,1.5684,1.5927,1.5885,1.5919,1.6104,1.5752,1.5641,1.598,1.6551,1.6888,1.6812,1.6348,1.6247,1.6828,1.6895,1.685,1.6728,1.6843,1.6957,1.6998,1.7004,1.7004,1.7004,1.7004,1.7004,1.7004,1.7004,1.7004,1.7004,1.7004,1.6998,1.6997,1.7003,1.7002,1.6994,1.7001,1.6994,1.7001,1.7001,1.7,1.7043,1.9124,2.1034,2.1061,2.0235,1.8939,1.6897,1.6427,1.6491,1.7915,0.0,1.7799,1.7751,0.0,1.767,1.765,1.7643,1.7467,1.7392,1.7406,1.7324,1.729,1.729,1.7229,1.7195,1.7202,1.7338,1.7446,1.7555,1.7684,1.7778,1.7839,1.7894,1.7942,1.8003,1.8003,1.8037,1.8105,1.8165,1.8206,1.8192,1.828,1.8307,1.8307,1.8307,1.8232,1.8091,1.8091,1.8064,1.8003,1.7942,1.7752,1.7419,0.0,0.0,0.0,0.0,0.0,0.0,0.0,0.0,0.0,0.0,0.0,1.63,1.6145,1.6112,1.6273,1.6207,1.6193,1.6286,1.6238,1.6068,1.5764,1.5935,1.6097,1.6185,1.6252,1.6314,1.6383,1.6187,1.6119,1.6294,1.6718,1.6998,1.6975,1.6735,1.6675,1.6924,1.7002,1.6961,1.6863,1.6937,1.7004,1.7004,1.7004,1.7024,1.699,1.7004,1.7004,1.7004,1.7004,1.7004,1.7004,1.7004,1.7004,1.7004,1.7004,1.7004,1.7004,1.7004,1.7004,1.7004,1.6997,1.6996,1.738,2.0949,2.4403,2.4124,2.2201,2.0341,1.9169,1.7924,1.6793,1.7969,1.7969,1.7969,1.7969,1.7983,1.7983,1.7969,1.7949,0.0,0.0,0.0,1.7446,1.7433,1.7433,1.7406,1.7392,1.7399,1.7555,1.7677,1.7799,1.7867,1.7928,1.8002,1.7928,1.7969,1.8105,1.8091,1.8158,1.83,1.8327,1.8341,1.8348,1.8354,1.8396,1.8382,1.8382,1.8396,1.8375,1.8334,1.8246,1.8145,1.8023,1.7833,1.7494,1.7392,1.7242,1.708,1.7046,1.7045,1.7032,1.7012,1.6924,1.6776,1.6762,1.6682,1.6552,1.6641,1.6696,1.6696,1.6696,1.6696,1.6696,1.6634,1.6463,1.6197,1.6369,1.6484,1.6429,1.6614,1.6728,1.6661,1.6663,1.6656,1.6669,1.6962,1.7121,1.7019,1.6992,1.6969,1.7031,1.7603,1.7759,1.7575,1.783,1.7575,1.7123,1.7004,1.7708,1.831,1.7902,1.7317,1.8039,1.8353,1.8007,1.76,1.718,1.7049,1.6996,1.7003,1.6997,1.6997,1.6997,1.6997,1.6996,1.7001,1.7581,1.8861,2.3178,2.6706,2.6887,2.4093,2.1725,2.236,2.0734,1.914,1.8239,1.826,1.8239,1.8239,1.8239,1.8239,1.8253,1.8233,1.7942,1.784,1.7806,1.7643,1.7561,1.7568,1.7453,1.7392,1.7419,1.7548,1.7548,0.0,1.7758,1.7826,1.769,1.7833,1.7969,1.8098,1.8105,1.8158,1.8307,1.8443,1.8476,1.8504,1.8648,1.8773,1.8744,1.873,1.873,1.8723,1.8436,1.8279,1.8273,1.8253,1.8111,1.7847,1.782,1.7663,1.7345,1.7236,1.7161,1.7175,1.7059,1.6984,1.6964,1.6957,1.6883,1.6695,1.6689,1.6696,1.6702,1.6696,1.6696,1.6702,1.6836,1.6801,1.6464,1.6484,1.6593,1.6869,1.6951,1.7053,1.723,1.7264,1.7257,1.7284,1.7551,1.7567,1.7062,1.6993,1.7011,1.7056,1.9582,2.0594,1.9385,2.0229,2.0036,1.7825,1.7999,1.9157,2.2883,2.0552,1.8641,2.0523,2.1297,2.089,1.9832,1.8156,1.7572,1.6997,1.7428,1.7795,1.7852,1.7853,1.7833,1.7257,1.7719,1.9482,2.3851,2.6053,2.6912,2.6922,2.5951,2.5663,2.5825,2.5304,2.5202,1.9227,1.8343,1.8307,1.8307,1.8307,1.8307,1.8307,1.8293,1.8158,1.8125,1.8111,1.7941,1.788,1.7846,1.7745,1.7677,1.7677,1.7745,1.7786,1.7792,1.7853,1.7887,1.7873,1.7887,1.8552,1.966,1.9717,1.9879,2.0123,2.013,1.9669,1.8929,1.977,2.0775,2.172,2.1792,2.1792,2.1726,1.967,1.8518,1.8408,1.8422,1.8294,1.8023,1.8017,1.7894,1.7684,1.7507,1.7385,1.7304,1.7175,1.7073,1.7011,1.7004,1.6964,1.687,1.6938,1.6979,1.6979,1.704,1.7053,1.6992,1.7114,1.7148,1.6999,1.6992,1.7053,1.7195,1.729,1.7358,1.7494,1.7616,1.7656,1.7663,1.781,1.7651,1.713,1.7007,1.705,1.7489,2.026,2.1679,1.998,2.1288,2.1859,2.0152,2.14,2.4424,2.725,2.5233,2.3494,2.4832,2.5068,2.3896,2.1767,2.0459,2.0493,2.1987,2.2362,2.2375,2.2381,2.2324,2.2286,2.2384,2.2321,2.3481,2.6734,2.6877,2.7052,2.7409,2.7124,2.6949,2.6951,2.7761,2.8453,1.9739,1.8423,1.8409,1.8423,1.8402,1.8409,1.8423,1.8416,1.8402,1.8422,1.8422,1.8226,1.8152,1.8131,1.803,1.7996,1.7989,1.7982,1.8057,1.8132,1.8051,1.8057,1.8124,1.8051,1.8881,2.0442,2.0917,2.1327,2.1658,2.201,2.1593,2.0599,2.1675,2.3,2.4355,2.436,2.4343,2.4127,2.1489,1.9763,1.9203,1.9168,1.8885,1.8227,1.8178,1.8118,1.7956,1.7772,1.7616,1.7453,1.7311,1.7195,1.7087,1.7093,1.708,1.7059,1.7141,1.7208,1.7215,1.7317,1.7345,1.7256,1.7372,1.746,1.7433,1.7487,1.7494,1.7467,1.7521,1.7609,1.7683,1.7785,1.7915,1.7909,1.7908,1.8522,1.9021,1.7997,1.7526,1.8584,2.1102,2.2306,2.1767,2.2712,2.3696,2.3972,2.6311,2.8257,2.8414,2.8403,2.8227,2.805,2.805,2.6969,2.3902,2.3344,2.4343,2.696,2.6807,2.6464,2.6599,2.6886,2.6789,2.6374,2.6553,2.6847,2.7339,2.7179,2.7373,2.7908,2.7553,2.7097,2.7804,2.8919,2.986,1.899,1.8765,1.8881,1.875,1.8896,1.8852,1.8896,1.8888,1.8801,1.8832,1.9077,1.8484,1.8393,1.8287,1.833,1.8358,1.8365,1.828,1.8316,1.8301,1.8273,1.8287,1.8386,1.8372,1.8426,1.9184,2.0704,2.1756,2.2009,2.3462,2.4319,2.4425,2.4616,2.4686,2.4691,2.4693,2.457,2.4313,2.3983,2.2955,2.1329,2.1228,2.0353,1.8526,1.8491,1.8341,1.8349,1.7935,1.7792,1.7595,1.7521,1.7399,1.7372,1.7351,1.7304,1.7188,1.7188,1.7208,1.7222,1.7338,1.7433,1.7385,1.7616,1.7732,1.7766,1.7875,1.7806,1.7834,1.7732,1.7861,1.7867,1.795,1.7922,1.7971,1.8379,1.9935,2.392,2.0596,1.8313,2.1888,2.3053,2.344,2.4493,2.5848,2.6928,2.6662,2.7498,2.8574,2.8765,2.8483,2.8408,2.8505,2.9114,2.8955,2.7318,2.7151,2.7412,2.8118,2.7579,2.7669,2.8101,2.7784,2.6973,2.7841,2.7306,2.799,2.8853,2.8471,2.7579,2.8735,2.84,2.7584,2.9244,3.0011,3.0092,2.3007,2.2057,2.2043,2.2043,2.2043,2.2043,2.2043,2.2057,2.2043,2.2091,2.2132,2.2049,2.1434,2.0455,2.0301,2.0257,2.0257,2.0257,1.9634,1.878,1.9698,2.025,2.0357,2.1493,2.2567,2.3759,2.461,2.5102,2.525,2.5117,2.5496,2.6544,2.6973,2.7489,2.805,2.8445,2.8409,2.7982,2.7954,2.7058,2.5257,2.3957,2.2894,2.1957,2.102,2.0952,2.1541,2.0598,1.9835,1.9666,1.9517,1.8884,1.7738,1.7684,1.7684,1.7616,1.7494,1.7433,1.7433,1.748,1.8111,1.9473,1.9514,1.9904,2.0993,2.1282,2.136,2.115,2.0192,1.9951,2.0949,1.9311,1.7906,1.8447,2.1486,2.5113,2.7217,2.5428,2.4514,2.5932,2.6747,2.6793,2.6417,2.7232,2.8016,2.8118,2.8365,2.8986,3.0046,2.9315,2.8464,2.8444,2.8845,2.9153,2.9058,2.9114,2.9469,3.0045,3.0089,3.0083,3.0045,3.0154,2.9824,2.97,2.9551,3.0112,3.1853,3.0455,2.9247,3.0134,3.016,2.9577,3.0129,3.0207,3.0402,2.6015,2.4891,2.4805,2.4691,2.4548,2.4533,2.4448,2.4313,2.4299,2.4352,2.4451,2.4592,2.4301,2.3545,2.2863,2.2496,2.2441,2.2496,2.1817,2.0721,2.1926,2.2534,2.2694,2.3923,2.5389,2.6711,2.7424,2.8289,2.8983,2.7805,2.7756,2.9057,2.9501,3.0137,3.1043,3.1725,3.1782,3.131,3.1411,3.076,2.925,2.7837,2.6276,2.4608,2.3369,2.3303,2.4335,2.3043,2.2162,2.1935,2.1805,2.0823,1.8934,1.8732,1.8454,1.795,1.8225,1.8381,1.8345,1.8881,1.9945,2.1508,2.1651,2.2168,2.332,2.3862,2.4323,2.4723,2.3665,2.3485,2.3185,2.1546,2.0053,1.9995,2.5039,2.8749,3.0513,2.967,2.8518,2.9518,3.0134,3.0114,2.8465,2.8482,2.8814,2.8474,2.9554,3.0687,3.2116,3.141,3.0433,3.027,3.035,3.0542,3.0973,3.1088,3.1452,3.142,3.1565,3.1491,3.1792,3.1768,3.1763,3.0851,3.1565,3.239,3.3381,3.2422,3.1558,3.2268,3.2178,3.1664,3.201,3.1662,3.196,2.6082,2.6092,2.6063,2.5887,2.524,2.5358,2.4986,2.4879,2.4589,2.4646,2.514,2.5126,2.5973,2.7555,2.5959,2.478,2.4523,2.4736,2.4668,2.4413,2.4774,2.4882,2.4853,2.4956,2.5237,2.6292,2.8147,3.0099,3.2185,3.1749,3.1984,3.2705,3.221,3.2169,3.2644,3.3266,3.3442,3.318,3.356,3.3611,3.3047,3.3054,3.0421,2.6028,2.4964,2.4999,2.4966,2.4751,2.4473,2.4079,2.407,2.3113,2.1221,2.0806,1.9856,1.83,1.9454,2.0359,2.054,2.1922,2.318,2.3478,2.3665,2.3765,2.4268,2.485,2.5871,2.7344,2.7802,2.7022,2.5022,2.5068,2.4715,2.385,2.6367,3.0553,3.5513,3.1603,3.0189,3.1703,3.229,3.1866,3.1014,3.0407,2.9744,2.9788,3.2114,3.4514,3.4328,3.4491,3.4305,3.4427,3.4457,3.4505,3.3622,3.2691,3.2418,3.2474,3.2296,3.2081,3.1875,3.1798,3.1917,3.1996,3.2262,3.307,3.4478,3.491,3.4504,3.4399,3.3785,3.3486,3.3628,3.4556,3.4608,3.0133,3.0133,3.0133,2.989,2.9601,2.9729,2.9688,2.9501,2.9501,2.975,3.0113,3.0122,3.0572,3.1284,3.0906,2.9242,2.6936,2.688,2.6325,2.5597,2.7135,2.8007,2.8181,2.9773,3.0693,3.0853,3.1614,3.2504,3.3331,3.3447,3.3608,3.3968,3.438,3.4428,3.4325,3.4795,3.4866,3.4461,3.4622,3.4607,3.4461,3.4484,3.3434,3.1474,2.929,2.8403,2.8824,2.7854,2.6971,2.6267,2.6366,2.5563,2.3836,2.3364,2.2853,2.207,2.2432,2.3026,2.3573,2.3663,2.479,2.6892,2.623,2.6275,2.7243,2.8088,2.9014,3.0007,3.0731,3.0479,3.0157,2.9516,2.873,2.8046,2.8658,3.0694,3.3641,3.4032,3.352,3.2566,3.2397,3.2649,3.2854,3.2249,3.1712,3.1772,3.3079,3.4009,3.4107,3.407,3.4662,3.5894,3.6273,3.6166,3.5845,3.3911,3.2944,3.3241,3.3348,3.387,3.3926,3.3849,3.3969,3.3872,3.3767,3.3771,3.5152,3.5257,3.5283,3.5098,3.4544,3.4609,3.5097,3.5176,3.5188,3.3546,3.3558,3.3558,3.3222,3.2762,3.3006,3.2866,3.2585,3.2625,3.29,3.3243,3.3245,3.3259,3.3391,3.385,3.263,2.9964,2.9857,2.927,2.838,3.0175,3.1047,3.1365,3.2995,3.4032,3.4235,3.4684,3.491,3.5108,3.5155,3.528,3.5524,3.6006,3.6109,3.5991,3.6492,3.658,3.6271,3.6374,3.6418,3.6241,3.6197,3.6079,3.5585,3.3622,3.2225,3.1953,3.0652,2.9635,2.8987,2.8886,2.795,2.6009,2.5109,2.4666,2.4523,2.4795,2.5393,2.6258,2.6072,2.7161,2.9826,2.9342,2.9274,3.0586,3.1417,3.2017,3.2493,3.3012,3.3572,3.3658,3.2948,3.1834,3.072,3.0368,3.1547,3.4091,3.5206,3.4648,3.3474,3.3338,3.3917,3.4564,3.3979,3.3898,3.4406,3.4542,3.453,3.4519,3.4588,3.4927,3.6529,3.6801,3.6787,3.657,3.5345,3.446,3.4639,3.4573,3.5218,3.5594,3.5636,3.5651,3.5642,3.5496,3.5284,3.5244,3.5365,3.5365,3.5285,3.5179,3.5152,3.5271,3.5178,3.5191,3.5927,3.5851,3.5975,3.5192,3.4313,3.4549,3.3994,3.3309,3.3359,3.3776,3.4114,3.3784,3.4016,3.3912,3.4686,3.4225,3.3636,3.3699,3.353,3.3274,3.3651,3.384,3.3896,3.4214,3.469,3.5206,3.6226,3.702,3.7401,3.7022,3.7057,3.7445,3.7154,3.7255,3.7688,3.8216,3.8596,3.857,3.8884,3.9014,3.8754,3.8481,3.8171,3.7723,3.7312,3.6092,3.3822,3.3056,3.2399,3.1849,3.151,3.0161,2.7951,2.6509,2.535,2.5845,2.6509,2.7466,2.8349,2.9453,3.0466,3.1693,3.2158,3.2249,3.2782,3.3534,3.3992,3.4146,3.4648,3.5136,3.5164,3.504,3.4112,3.2132,3.1846,3.323,3.5375,3.4831,3.3946,3.4835,3.5171,3.5677,3.6286,3.5803,3.5485,3.6177,3.6467,3.6428,3.6321,3.6323,3.6719,3.6843,3.6902,3.6905,3.6889,3.6804,3.6457,3.6177,3.5961,3.6123,3.6339,3.6434,3.638,3.6342,3.5978,3.5737,3.5268,3.5416,3.5698,3.5671,3.5631,3.5525,3.5298,3.5179,3.5192,3.6487,3.6487,3.6473,3.6169,3.5764,3.6424,3.6474,3.6193,3.6265,3.6546,3.6849,3.6753,3.675,3.6925,3.7174,3.7117,3.696,3.6988,3.6207,3.5037,3.5676,3.6122,3.6237,3.6757,3.7162,3.739,3.7769,3.8057,3.8246,3.835,3.8487,3.8612,3.871,3.8827,3.8959,3.9213,3.9317,3.9347,3.9496,3.9496,3.9332,3.9317,3.9213,3.8992,3.8621,3.7824,3.6857,3.5777,3.4746,3.3799,3.3397,3.2735,3.1752,3.1054,3.0787,3.1016,3.1212,3.1479,3.1736,3.2097,3.2519,3.2934,3.3104,3.3196,3.3418,3.4006,3.4537,3.4887,3.547,3.5943,3.6262,3.6373,3.561,3.4223,3.4093,3.4673,3.6309,3.5735,3.5688,3.6632,3.6635,3.6698,3.7036,3.6659,3.6527,3.6814,3.6927,3.6888,3.6895,3.6897,3.6898,3.6898,3.6899,3.6899,3.6899,3.6899,3.674,3.6566,3.654,3.6487,3.6759,3.6895,3.6896,3.6801,3.6449,3.6098,3.5626,3.5585,3.5936,3.618,3.6248,3.5898,3.5361,3.5243,3.5351,3.7788,3.7788,3.7774,3.7538,3.7277,3.7944,3.8074,3.7892,3.7949,3.8188,3.8402,3.83,3.8328,3.8526,3.875,3.8719,3.8567,3.8963,3.8315,3.6861,3.7214,3.7681,3.7782,3.848,3.8872,3.8948,3.9116,3.9237,3.924,3.9478,3.963,3.9679,3.9834,3.9918,3.9933,3.9948,3.9935,3.992,3.9933,3.9948,3.9933,3.9933,3.9935,3.986,3.9561,3.9236,3.8884,3.8088,3.6969,3.5679,3.4975,3.4482,3.397,3.3681,3.3785,3.3872,3.3712,3.3585,3.3976,3.3758,3.3992,3.4271,3.4398,3.451,3.4718,3.5109,3.547,3.5818,3.6179,3.6565,3.6977,3.7073,3.6668,3.5922,3.5785,3.6161,3.6708,3.6637,3.6893,3.7663,3.7573,3.7442,3.7457,3.745,3.7246,3.7228,3.7039,3.6904,3.6898,3.6899,3.6899,3.6899,3.6899,3.6899,3.6899,3.6899,3.6899,3.6846,3.682,3.678,3.6876,3.689,3.6904,3.6892,3.6662,3.6594,3.6199,3.6213,3.6431,3.6611,3.6721,3.6463,3.603,3.5695,3.5737,3.9564,3.958,3.9579,3.9144,3.8725,3.9048,3.8883,3.8394,3.8551,3.8724,3.8719,3.877,3.8722,3.8811,3.9329,3.9283,3.8933,3.9785,3.9954,3.9249,3.894,3.8668,3.8788,3.9301,3.9557,3.9635,4.0104,4.0375,4.0269,4.032,4.0496,4.0396,4.0384,4.0485,4.0403,4.047,4.043,4.0403,4.0443,4.043,4.043,4.0443,4.0458,4.0443,4.0371,4.022,3.9919,3.973,3.8898,3.7209,3.6402,3.5721,3.4787,3.4619,3.4789,3.4813,3.4229,3.4616,3.5041,3.5003,3.5085,3.5947,3.6113,3.6398,3.6643,3.667,3.6739,3.6838,3.6935,3.7072,3.7355,3.7422,3.7222,3.7003,3.6853,3.6971,3.7048,3.748,3.7907,3.8356,3.8215,3.7875,3.79,3.7869,3.7805,3.7531,3.7176,3.696,3.6897,3.6897,3.6899,3.6899,3.6899,3.6899,3.6899,3.6899,3.6899,3.6899,3.6899,3.6899,3.6899,3.6899,3.69,3.6887,3.6888,3.686,3.6805,3.6698,3.6685,3.6782,3.6839,3.6895,3.6691,3.6285,3.6151,3.9518,3.9518,3.9518,3.9428,3.938,3.9867,4.003,3.9877,3.9912,3.9889,3.995,3.998,3.9902,3.9996,4.0117,4.0119,4.0083,4.0341,4.0451,4.024,4.0073,3.9967,3.9967,4.0119,4.0223,4.024,4.0392,4.0496,4.0496,4.0496,4.0496,4.0496,4.0496,4.0496,4.0496,4.0496,4.0496,4.0496,4.0496,4.0496,4.0496,4.0496,4.0496,4.0496,4.0496,4.0456,4.0376,4.0376,3.9752,3.8388,3.8073,3.7741,3.7081,3.6883,3.6807,3.688,3.6626,3.6521,3.6868,3.671,3.6823,3.7246,3.7234,3.7399,3.7526,3.7568,3.7568,3.7568,3.7568,3.7581,3.7676,3.7716,3.7643,3.7586,3.7577,3.772,3.8038,3.8182,3.8314,3.8596,3.8544,3.8453,3.8397,3.8359,3.8112,3.7474,3.7168,3.6931,3.6954,3.6908,3.6897,3.6899,3.6899,3.6899,3.6899,3.6899,3.6899,3.6899,3.6899,3.6899,3.6899,3.6899,3.6899,3.69,3.6887,3.6873,3.6873,3.6832,3.6886,3.6899,3.6901,3.6904,3.6903,3.6658,3.6621,3.9922,3.9906,3.9922,3.9922,3.9967,4.0347,4.0496,4.0496,4.0496,4.0577,4.0643,4.067,4.0722,4.0844,4.0842,4.0842,4.0842,4.0827,4.0842,4.0855,4.0809,4.0676,4.0533,4.0496,4.0496,4.0496,4.0496,4.0496,4.0496,4.0496,4.0496,4.0496,4.0496,4.0496,4.0496,4.0496,4.0496,4.0496,4.0496,4.0496,4.0496,4.0496,4.0496,4.0496,4.0496,4.0496,4.0496,4.0496,4.0073,3.939,3.9118,3.888,3.8444,3.8169,3.8038,3.8104,3.7743,3.7635,3.7728,3.7649,3.7649,3.7755,3.7809,3.7809,3.7796,3.7809,3.7809,3.7796,3.7809,3.7876,3.8024,3.8116,3.8155,3.8181,3.8182,3.8314,3.8674,3.8547,3.8538,3.8647,3.8698,3.8689,3.8703,3.8695,3.8364,3.7925,3.783,3.7406,3.7051,3.6981,3.6893,3.6906,3.6938,3.6966,3.6966,3.6966,3.6913,3.6913,3.6899,3.6899,3.6899,3.6899,3.6899,3.6899,3.6899,3.6899,3.6899,3.6899,3.6899,3.6899,3.6899,3.6899,3.6899,3.6899,3.6889,4.0552,4.0552,4.0578,4.0577,4.0573,4.059,4.0643,4.0603,4.063,4.0748,4.0922,4.0918,4.1054,4.129,4.1198,4.1263,4.1279,4.1196,4.1236,4.1225,4.1198,4.1025,4.0708,4.0697,4.0668,4.0657,4.0577,4.0563,4.0563,4.0536,4.0496,4.0496,4.0496,4.0496,4.0496,4.0496,4.0496,4.0496,4.0496,4.0496,4.0496,4.0496,4.0496,4.0496,4.0496,4.0496,4.0496,4.0483,4.0291,3.9995,3.9785,3.9365,3.8846,3.8517,3.8304,3.8035,3.7943,3.7889,3.7902,3.7929,3.7903,3.7969,3.7969,3.7902,3.7969,3.7995,3.801,3.8023,3.7888,3.809,3.8291,3.8544,3.861,3.8596,3.865,3.8685,3.8694,3.8701,3.8689,3.8689,3.8689,3.8689,3.8694,3.869,3.8659,3.8352,3.8269,3.8026,3.7668,3.7581,3.7266,3.6906,3.6969,3.7073,3.7047,3.7047,3.698,3.6926,3.6899,3.6899,3.6899,3.6899,3.6899,3.6899,3.6899,3.6899,3.6899,3.6899,3.6899,3.6899,3.6899,3.6899,3.6899,3.6899,3.6902,4.0815,4.0829,4.1056,4.1132,4.1118,4.1132,4.1134,4.1105,4.1118,4.1134,4.1196,4.1225,4.1265,4.1316,4.1343,4.129,4.1343,4.1359,4.129,4.129,4.129,4.125,4.1132,4.1134,4.1118,4.1067,4.0893,4.0813,4.0775,4.0643,4.051,4.0523,4.055,4.0496,4.051,4.0525,4.0496,4.0496,4.0496,4.0496,4.0496,4.0496,4.0496,4.0496,4.0496,4.0498,4.0496,4.0496,4.0334,4.0132,4.0092,3.9785,3.9168,3.9145,3.8931,3.853,3.8277,3.8263,3.8424,3.8303,3.8291,3.8423,3.8436,3.8516,3.8503,3.8462,3.8489,3.8503,3.8502,3.8489,3.857,3.865,3.8701,3.87,3.8742,3.873,3.8693,3.8705,3.8703,3.8689,3.8689,3.8689,3.8689,3.8692,3.8699,3.87,3.8639,3.8565,3.8374,3.8141,3.7793,3.7332,3.7442,3.7589,3.7493,3.7342,3.7,3.6935,3.6909,3.6885,3.6885,3.6899,3.6899,3.6899,3.6899,3.6899,3.6899,3.6899,3.6899,3.6899,3.6899,3.6899,3.6899,3.6899,3.6899,4.1078,4.112,4.1236,4.129,4.129,4.129,4.129,4.129,4.129,4.1399,4.1521,4.1534,4.1615,4.1706,4.1703,4.1732,4.1719,4.1719,4.1732,4.1732,4.1732,4.1732,4.1719,4.1679,4.1612,4.133,4.1158,4.1078,4.1025,4.0947,4.0893,4.0869,4.0733,4.0708,4.0642,4.0592,4.0496,4.0496,4.0496,4.0496,4.0496,4.0496,4.0496,4.0496,4.0483,4.0443,4.0281,4.0267,4.0012,3.9783,3.9878,3.9798,3.9235,3.9157,3.8997,3.8757,3.8583,3.8531,3.861,3.8597,3.8558,3.8675,3.8689,3.8689,3.8689,3.8689,3.8689,3.8689,3.869,3.8689,3.8702,3.8704,3.8702,3.8756,3.8965,3.9003,3.8774,3.8703,3.8689,3.8689,3.8689,3.8689,3.8689,3.8714,3.8703,3.8708,3.8694,3.8635,3.8628,3.8424,3.8348,3.81,3.8142,3.8149,3.8038,3.7678,3.7058,3.6939,3.6902,3.6894,3.6898,3.6899,3.6899,3.6899,3.6899,3.6899,3.6899,3.6899,3.6899,3.6899,3.6899,3.6899,3.6899,3.6899,3.6899,4.1385,4.1385,4.1425,4.1423,4.1439,4.1452,4.1463,4.1465,4.1423,4.1641,4.1833,4.186,4.1964,4.2135,4.2149,4.2189,4.2175,4.2146,4.2095,4.2109,4.2095,4.2095,4.2109,4.2069,4.1919,4.1479,4.1414,4.1385,4.1372,4.1303,4.1198,4.1223,4.1065,4.0974,4.0893,4.0762,4.0682,4.0708,4.0708,4.0695,4.0682,4.0682,4.0697,4.0697,4.0601,4.0495,4.0306,4.0172,3.985,3.9248,3.9451,3.9371,3.9088,3.8901,3.8715,3.873,3.8662,3.8676,3.869,3.869,3.869,3.8689,3.8689,3.8689,3.8689,3.8689,3.8689,3.873,3.8757,3.885,3.8821,3.8731,3.8775,3.8946,3.9393,3.9426,3.9111,3.8928,3.8913,3.8889,3.897,3.8997,3.8846,3.8764,3.874,3.8701,3.8702,3.87,3.8695,3.8826,3.8799,3.8534,3.8476,3.8289,3.8165,3.8239,3.7586,3.7064,3.6988,3.6995,3.6975,3.6893,3.6893,3.6885,3.6899,3.6899,3.6899,3.6899,3.6899,3.6899,3.6899,3.6899,3.6899,3.6899,3.6899,4.1726,4.1737,4.1962,4.204,4.2055,4.2055,4.2013,4.2055,4.2015,4.2082,4.2109,4.2122,4.2135,4.2202,4.2202,4.2202,4.2202,4.2202,4.2202,4.2202,4.2202,4.2202,4.2202,4.2202,4.2106,4.2013,4.1842,4.171,4.1644,4.1468,4.1425,4.1332,4.1279,4.1239,4.1225,4.1172,4.1078,4.1052,4.1065,4.1078,4.1078,4.1078,4.1067,4.104,4.0867,4.0735,4.0642,4.0468,4.0134,3.9613,3.9586,3.9291,3.9008,3.8968,3.8929,3.8757,3.8689,3.8689,3.8689,3.8689,3.8689,3.8689,3.8715,3.8715,3.8715,3.8729,3.8823,3.8822,3.8969,3.9128,3.9411,3.9056,3.9024,3.9399,3.9864,4.0224,4.0051,3.9751,3.9481,3.9452,3.9411,3.9317,3.9113,3.888,3.8728,3.8694,3.87,3.8697,3.8692,3.907,3.9466,3.908,3.8665,3.8409,3.8178,3.8381,3.8174,3.744,3.7209,3.724,3.7165,3.6963,3.6898,3.693,3.691,3.6899,3.6899,3.6899,3.6899,3.6899,3.6899,3.6899,3.6899,3.6899,3.6899,4.2004,4.2018,4.2149,4.2202,4.2202,4.2202,4.2202,4.2202,4.2202,4.2202,4.2202,4.2202,4.2202,4.2202,4.2202,4.2202,4.2202,4.2202,4.2202,4.2202,4.2202,4.2202,4.2202,4.2202,4.2202,4.2162,4.2055,4.1991,4.1991,4.1868,4.1746,4.1732,4.1655,4.1561,4.1508,4.1372,4.133,4.1303,4.1303,4.1303,4.1303,4.1303,4.1265,4.1078,4.096,4.0762,4.0439,4.0348,4.004,3.9693,3.9614,3.9439,3.9291,3.9196,3.9156,3.8809,3.8715,3.8717,3.8703,3.8689,3.8689,3.8715,3.8822,3.8916,3.8969,3.9064,3.9131,3.9184,3.9237,3.9424,3.9558,3.9321,3.9357,3.9618,4.014,4.0442,4.0426,4.0204,4.0074,3.9962,3.9733,3.9516,3.9353,3.9092,3.8787,3.8698,3.8695,3.8695,3.8691,3.9027,3.9492,3.9187,3.8698,3.8581,3.8364,3.848,3.8613,3.7972,3.7598,3.7615,3.7665,3.7632,3.7245,3.697,3.6939,3.7102,3.6899,3.6899,3.6899,3.6899,3.6899,3.6899,3.6899,3.6899,3.6899,4.2202,4.2202,4.2202,4.2202,4.2202,4.2202,4.2202,4.2202,4.2202,4.2202,4.2202,4.2202,4.2202,4.2202,4.2202,4.2202,4.2202,4.2202,4.2202,4.2202,4.2202,4.2202,4.2202,4.2202,4.2202,4.2202,4.2175,4.2202,4.2162,4.2135,4.2175,4.2095,4.1951,4.1886,4.1817,4.1586,4.1452,4.1465,4.1412,4.1412,4.1465,4.1425,4.1321,4.1054,4.096,4.068,4.0371,4.0226,4.0039,3.9798,3.9706,3.9653,3.9628,3.9614,3.9386,3.8984,3.8876,3.889,3.8903,3.8917,3.897,3.9012,3.9116,3.9183,3.9249,3.9398,3.9558,3.9651,3.9665,3.9746,3.9852,3.9794,3.9782,3.9893,4.0219,4.0485,4.049,4.0418,4.0406,4.0229,3.996,3.9785,3.9635,3.9452,3.9176,3.8721,3.8704,3.8697,3.8695,3.8698,3.8959,3.8879,3.8692,3.8701,3.8622,3.8594,3.8672,3.8453,3.8257,3.8259,3.8397,3.8491,3.7987,3.7484,3.7528,3.7635,3.728,3.6912,3.6899,3.6899,3.6899,3.6899,3.6899,3.6899,3.6899,4.2202,4.2202,4.2202,4.2202,4.2202,4.2202,4.2202,4.2202,4.2202,4.2202,4.2202,4.2202,4.2202,4.2202,4.2202,4.2202,4.2202,4.2202,4.2202,4.2202,4.2202,4.2202,4.2202,4.2202,4.2202,4.2202,4.2202,4.2202,4.2202,4.2202,4.2202,4.2175,4.2162,4.2135,4.2071,4.1802,4.1886,4.2004,4.1831,4.1804,4.1937,4.179,4.1657,4.147,4.1176,4.0813,4.0642,4.0454,4.0254,4.0012,3.9957,3.9838,3.9653,3.9614,3.9586,3.9519,3.9506,3.9493,3.9452,3.9384,3.9386,3.9371,3.9491,3.9531,3.9611,3.9653,3.9772,3.9944,3.9944,4.0052,4.0229,4.0346,4.0369,4.0327,4.0397,4.0496,4.0496,4.0496,4.0496,4.0483,4.0214,4.0092,3.9984,3.9793,3.9555,3.9069,3.8698,3.8692,3.8698,3.8701,3.8702,3.8696,3.8707,3.8701,3.8689,3.8689,3.8691,3.8698,3.8699,3.87,3.8708,3.8689,3.8692,3.833,3.8287,3.8001,3.7573,3.7232,3.7006,3.6899,3.6899,3.6899,3.6899,3.6899,3.6899,4.2202,4.2202,4.2202,4.2202,4.2202,4.2202,4.2202,4.2202,4.2202,4.2202,4.2202,4.2202,4.2202,4.2202,4.2202,4.2202,4.2202,4.2202,4.2202,4.2202,4.2202,4.2202,4.2202,4.2202,4.2202,4.2202,4.2202,4.2202,4.2202,4.2202,4.2202,4.2202,4.2202,4.2189,4.2162,4.1924,4.1884,4.1844,4.1697,4.1572,4.1626,4.1575,4.1441,4.1296,4.1014,4.0842,4.0683,4.0577,4.0458,4.0309,4.0281,4.0241,4.0134,4.0122,4.0109,4.0109,4.0109,3.9948,3.9638,3.9524,3.9567,3.9651,3.9717,3.9862,4.0012,4.008,4.0122,4.0267,4.0281,4.0376,4.0456,4.0496,4.0496,4.0496,4.0496,4.0495,4.0495,4.0496,4.0496,4.0496,4.0496,4.0346,4.0241,4.016,3.9897,3.9457,3.8959,3.8699,3.8695,3.8702,3.8689,3.8702,3.8701,3.8702,3.8689,3.8689,3.8689,3.8707,3.8707,3.8693,3.8707,3.8699,3.869,3.8696,3.8552,3.8221,3.7822,3.7361,3.6959,3.6896,3.6899,3.6899,3.6899,3.6899,3.6899,4.2202,4.2202,4.2202,4.2202,4.2202,4.2202,4.2202,4.2202,4.2202,4.2202,4.2202,4.2202,4.2202,4.2202,4.2202,4.2202,4.2202,4.2202,4.2202,4.2202,4.2202,4.2202,4.2202,4.2202,4.2202,4.2202,4.2202,4.2202,4.2202,4.2202,4.2202,4.2202,4.2098,4.2151,4.2069,4.1764,4.1525,4.1497,4.1414,4.1359,4.1316,4.1252,4.112,4.0976,4.0844,4.0695,4.0536,4.0496,4.0498,4.0485,4.047,4.043,4.0416,4.0403,4.0403,4.0403,4.0418,4.0269,3.997,3.9805,3.9709,3.982,3.9944,4.0184,4.0374,4.0496,4.0496,4.0456,4.0456,4.047,4.0496,4.0496,4.0496,4.0496,4.0496,4.0493,4.0501,4.0495,4.0491,4.0489,4.0491,4.0502,4.0443,4.0475,4.0237,3.983,3.9346,3.8791,3.8704,3.8702,3.8689,3.8689,3.8689,3.8689,3.8689,3.8689,3.8689,3.8689,3.8689,3.8703,3.869,3.869,3.8708,3.87,3.8706,3.8573,3.8246,3.7549,3.6897,3.6903,3.6894,3.6898,3.6899,3.6899,3.6899,4.2202,4.2202,4.2202,4.2202,4.2202,4.2202,4.2202,4.2202,4.2202,4.2202,4.2202,4.2202,4.2202,4.2202,4.2202,4.2202,4.2202,4.2202,4.2202,4.2202,4.2202,4.2202,4.2202,4.2202,4.2202,4.2202,4.2202,4.2202,4.2202,4.2202,4.2202,4.2175,4.2058,4.2071,4.1884,4.1481,4.1109,4.1096,4.1107,4.1227,4.1145,4.1054,4.0909,4.0842,4.067,4.051,4.0496,4.0496,4.0496,4.0496,4.0496,4.0496,4.0496,4.0496,4.0496,4.0496,4.0496,4.0403,4.0279,4.0252,4.0374,4.0416,4.043,4.0386,4.0483,4.0496,4.0496,4.0496,4.0496,4.0523,4.051,4.051,4.0502,4.0491,4.0497,4.0491,4.0498,4.0492,4.0503,4.0505,4.0557,4.0655,4.0596,4.0612,4.0515,4.0137,3.9257,3.8703,3.8692,3.8689,3.8689,3.8689,3.8689,3.8689,3.8689,3.8689,3.8689,3.8689,3.8689,3.8689,3.8703,3.8689,3.8689,3.8691,3.8698,3.8706,3.8616,3.7971,3.7413,3.7048,3.6916,3.6977,3.6939,3.6899,3.6899,4.2202,4.2202,4.2202,4.2202,4.2202,4.2202,4.2202,4.2202,4.2202,4.2202,4.2202,4.2202,4.2202,4.2202,4.2202,4.2202,4.2202,4.2202,4.2202,4.2202,4.2202,4.2202,4.2202,4.2202,4.2202,4.2202,4.2202,4.2202,4.2202,4.2202,4.2202,4.2165,4.2044,4.1991,4.1735,4.1281,4.088,4.071,4.0764,4.0815,4.0788,4.0735,4.0657,4.063,4.059,4.0496,4.0496,4.0496,4.0496,4.0496,4.0496,4.051,4.051,4.051,4.051,4.051,4.051,4.051,4.051,4.051,4.0496,4.0496,4.0483,4.0496,4.0523,4.0525,4.0496,4.0496,4.0536,4.0588,4.072,4.0611,4.05,4.0499,4.0563,4.0605,4.0594,4.0634,4.0918,4.1101,4.1017,4.0979,4.0878,4.0748,4.0628,4.0402,3.9448,3.8702,3.8703,3.8689,3.8689,3.8689,3.8689,3.8689,3.8689,3.8689,3.8689,3.8689,3.8689,3.8689,3.8689,3.8689,3.8689,3.8689,3.8689,3.8696,3.858,3.8299,3.789,3.74,3.7188,3.7153,3.706,3.6913,3.6899,4.2202,4.2202,4.2202,4.2202,4.2202,4.2202,4.2202,4.2202,4.2202,4.2202,4.2202,4.2202,4.2202,4.2202,4.2202,4.2202,4.2202,4.2202,4.2202,4.2202,4.2202,4.2202,4.2202,4.2202,4.2202,4.2202,4.2202,4.2202,4.2202,4.2202,4.2135,4.2082,4.2069,4.1937,4.1724,4.1216,4.0762,4.0563,4.0496,4.0496,4.051,4.0525,4.0525,4.051,4.0496,4.0496,4.0496,4.0496,4.0496,4.0496,4.051,4.055,4.0563,4.0563,4.055,4.0578,4.055,4.0536,4.0575,4.0536,4.0496,4.0496,4.0496,4.0536,4.059,4.063,4.0683,4.0787,4.0775,4.08,4.0998,4.0891,4.0812,4.0887,4.1218,4.1287,4.1024,4.0997,4.1423,4.1774,4.1614,4.1438,4.1017,4.0861,4.0626,4.0304,3.9419,3.8796,3.8694,3.8694,3.8689,3.8689,3.8689,3.8689,3.8689,3.8689,3.8689,3.8689,3.8689,3.8689,3.8689,3.8689,3.8689,3.8689,3.8689,3.8689,3.8597,3.8454,3.8103,3.7698,3.7431,3.7109,3.7034,3.6899,3.6899,4.2202,4.2202,4.2202,4.2202,4.2202,4.2202,4.2202,4.2202,4.2202,4.2202,4.2202,4.2202,4.2202,4.2202,4.2202,4.2202,4.2202,4.2202,4.2202,4.2202,4.2202,4.2202,4.2202,4.2202,4.2202,4.2202,4.2202,4.2202,4.2202,4.2202,4.2069,4.1857,4.179,4.1726,4.1728,4.1205,4.0777,4.0552,4.0496,4.0496,4.0496,4.0496,4.0496,4.0496,4.0496,4.0496,4.0496,4.0496,4.0496,4.0496,4.0496,4.059,4.0722,4.0577,4.0617,4.08,4.063,4.0655,4.084,4.0643,4.0603,4.063,4.0682,4.0722,4.0855,4.0922,4.0947,4.1052,4.1145,4.1212,4.1263,4.1259,4.1195,4.1394,4.171,4.1795,4.1527,4.138,4.1793,4.2023,4.2072,4.1947,4.1376,4.0933,4.064,4.0146,3.9327,3.8933,3.8797,3.8703,3.8713,3.8694,3.8694,3.87,3.87,3.8702,3.8689,3.8689,3.8689,3.8689,3.8689,3.8689,3.8689,3.8689,3.8689,3.8689,3.8689,3.8676,3.8371,3.8024,3.7302,3.6968,3.6922,3.6899,3.6899,4.2202,4.2202,4.2202,4.2202,4.2202,4.2202,4.2202,4.2202,4.2202,4.2202,4.2202,4.2202,4.2202,4.2202,4.2202,4.2202,4.2202,4.2202,4.2202,4.2202,4.2202,4.2202,4.2202,4.2202,4.2202,4.2202,4.2202,4.2175,4.2202,4.2175,4.2044,4.1833,4.1443,4.1216,4.1109,4.0815,4.0563,4.051,4.0496,4.0496,4.0496,4.0496,4.0496,4.0496,4.0496,4.0496,4.0496,4.0496,4.0536,4.0536,4.055,4.0643,4.0722,4.0577,4.067,4.0853,4.0788,4.0893,4.1094,4.108,4.104,4.1027,4.1,4.1012,4.1174,4.1156,4.1223,4.1305,4.137,4.1452,4.1561,4.1401,4.1405,4.1803,4.207,4.2099,4.1963,4.1887,4.2026,4.2103,4.2166,4.205,4.1655,4.1345,4.1064,4.0704,4.0007,3.9301,3.9055,3.8814,3.8722,3.8698,3.8693,3.8703,3.8696,3.87,3.8702,3.8689,3.8689,3.8689,3.8689,3.8689,3.8689,3.8689,3.8689,3.8689,3.8689,3.8691,3.8702,3.8365,3.7682,3.7084,3.6914,3.6895,3.6899,4.2202,4.2202,4.2202,4.2202,4.2202,4.2202,4.2202,4.2202,4.2202,4.2202,4.2202,4.2202,4.2202,4.2202,4.2202,4.2202,4.2202,4.2202,4.2202,4.2202,4.2202,4.2202,4.2202,4.2202,4.2202,4.2189,4.2111,4.2058,4.2044,4.2042,4.1868,4.1534,4.1163,4.0935,4.0775,4.0603,4.051,4.0496,4.0496,4.0496,4.0496,4.0496,4.0496,4.0496,4.0496,4.0496,4.051,4.0563,4.0643,4.0657,4.0724,4.083,4.0871,4.0855,4.0935,4.1107,4.1227,4.1261,4.129,4.1583,4.1583,4.1612,4.1465,4.1372,4.1454,4.1481,4.1575,4.1615,4.1586,4.1708,4.1824,4.1617,4.176,4.2175,4.2189,4.2205,4.2191,4.2099,4.2099,4.2189,4.2191,4.2058,4.1967,4.1793,4.1562,4.1154,4.0718,4.002,3.94,3.9265,3.9129,3.9133,3.8892,3.876,3.873,3.8697,3.87,3.8689,3.8689,3.8689,3.8689,3.8689,3.8689,3.8689,3.8689,3.8689,3.8689,3.8693,3.8699,3.8568,3.8188,3.7587,3.7044,3.6901,3.6895,4.2202,4.2202,4.2202,4.2202,4.2202,4.2202,4.2202,4.2202,4.2202,4.2202,4.2202,4.2202,4.2202,4.2202,4.2202,4.2202,4.2202,4.2202,4.2202,4.2202,4.2202,4.2202,4.2202,4.2202,4.2202,4.2122,4.2044,4.1991,4.1844,4.1857,4.1681,4.1372,4.112,4.0842,4.0657,4.0643,4.0577,4.0536,4.0496,4.0496,4.0496,4.0496,4.0496,4.051,4.0536,4.0577,4.0643,4.0746,4.0867,4.0974,4.112,4.1401,4.1521,4.1439,4.1546,4.1655,4.1739,4.1639,4.1556,4.1896,4.2024,4.1975,4.1681,4.1628,4.1697,4.1804,4.1855,4.1962,4.2002,4.2082,4.2131,4.2101,4.2101,4.2202,4.2202,4.2202,4.2202,4.2173,4.2173,4.2202,4.2202,4.2151,4.2127,4.2034,4.1842,4.1557,4.1104,4.0529,4.0037,4.0096,3.9961,3.9929,3.9568,3.8903,3.8801,3.873,3.8697,3.87,3.8702,3.8689,3.8689,3.8689,3.8689,3.8689,3.8689,3.8689,3.8689,3.8689,3.8704,3.8533,3.8374,3.8161,3.7614,3.7017,3.6888,4.2202,4.2202,4.2202,4.2202,4.2202,4.2202,4.2202,4.2202,4.2202,4.2202,4.2202,4.2202,4.2202,4.2202,4.2202,4.2202,4.2202,4.2202,4.2202,4.2202,4.2202,4.2202,4.2202,4.2202,4.2202,4.2175,4.2109,4.2018,4.2018,4.1911,4.1644,4.1332,4.1254,4.0949,4.0815,4.0867,4.0748,4.063,4.0563,4.0536,4.0523,4.0536,4.0536,4.055,4.0708,4.0762,4.0855,4.1054,4.1158,4.1225,4.1279,4.1412,4.1385,4.1343,4.1439,4.1764,4.1937,4.2037,4.1987,4.2101,4.2202,4.2202,4.1989,4.2015,4.2084,4.2084,4.2095,4.2162,4.2202,4.2202,4.2202,4.2202,4.2202,4.2202,4.2202,4.2202,4.2202,4.2202,4.2202,4.2202,4.2202,4.2202,4.2207,4.2183,4.1994,4.1815,4.145,4.0829,4.0491,4.0495,4.0483,4.0393,4.0202,3.953,3.8945,3.8787,3.873,3.8697,3.87,3.8702,3.8689,3.8689,3.8689,3.8689,3.8689,3.8689,3.8689,3.8689,3.8689,3.8689,3.8572,3.8443,3.8202,3.7614,3.7017,4.2202,4.2202,4.2202,4.2202,4.2202,4.2202,4.2202,4.2202,4.2202,4.2202,4.2202,4.2202,4.2202,4.2202,4.2202,4.2202,4.2202,4.2202,4.2202,4.2202,4.2202,4.2202,4.2202,4.2202,4.2202,4.2175,4.2095,4.1978,4.2018,4.1911,4.1657,4.1548,4.1508,4.1243,4.1056,4.1094,4.1094,4.0909,4.0748,4.0683,4.0657,4.0642,4.0655,4.0724,4.0935,4.104,4.1107,4.1332,4.1481,4.1534,4.1561,4.1666,4.1679,4.1679,4.1706,4.1991,4.2084,4.2162,4.2144,4.216,4.2202,4.2202,4.2202,4.2189,4.2175,4.2162,4.2175,4.2202,4.2202,4.2202,4.2202,4.2202,4.2202,4.2202,4.2202,4.2202,4.2202,4.2202,4.2202,4.2202,4.2202,4.2202,4.2202,4.2202,4.2136,4.1884,4.1428,4.0765,4.0501,4.0503,4.0487,4.0465,4.0409,4.0132,3.9543,3.8917,3.8819,3.8747,3.8684,3.87,3.8702,3.8689,3.8689,3.8689,3.8689,3.8689,3.8689,3.8689,3.8689,3.8689,3.8689,3.86,3.8471,3.8257,3.7656,4.2202,4.2202,4.2202,4.2202,4.2202,4.2202,4.2202,4.2202,4.2202,4.2202,4.2202,4.2202,4.2202,4.2202,4.2202,4.2202,4.2202,4.2202,4.2202,4.2202,4.2202,4.2202,4.2202,4.2202,4.2202,4.2109,4.2044,4.2004,4.1913,4.1857,4.1857,4.1793,4.1833,4.1563,4.1158,4.1399,4.1441,4.1323,4.1136,4.1029,4.0962,4.092,4.0933,4.0974,4.1158,4.1361,4.1412,4.1601,4.1849,4.1926,4.2004,4.2135,4.2122,4.2109,4.2149,4.2162,4.2175,4.2189,4.2202,4.2202,4.2202,4.2202,4.2202,4.2202,4.2202,4.2202,4.2202,4.2202,4.2202,4.2202,4.2202,4.2202,4.2202,4.2202,4.2202,4.2202,4.2202,4.2202,4.2202,4.2202,4.2202,4.2202,4.2202,4.2205,4.2206,4.1948,4.1345,4.0631,4.0493,4.0508,4.0485,4.0488,4.0472,4.0317,3.9761,3.9219,3.895,3.8836,3.8749,3.87,3.8702,3.8689,3.8689,3.8689,3.8689,3.8689,3.8689,3.8689,3.8689,3.8689,3.8689,3.8689,3.8627,3.8541,3.8299,4.2202,4.2202,4.2202,4.2202,4.2202,4.2202,4.2202,4.2202,4.2202,4.2202,4.2202,4.2202,4.2202,4.2202,4.2202,4.2202,4.2202,4.2202,4.2202,4.2202,4.2202,4.2202,4.2202,4.2202,4.2202,4.2189,4.2151,4.2084,4.2071,4.2029,4.1853,4.1559,4.1775,4.1775,4.1239,4.1559,4.1815,4.1684,4.159,4.1401,4.1265,4.1225,4.1212,4.1292,4.1465,4.1641,4.1748,4.1922,4.2058,4.2151,4.2165,4.2205,4.2202,4.2202,4.2202,4.2202,4.2202,4.2202,4.2202,4.2202,4.2202,4.2202,4.2202,4.2202,4.2202,4.2202,4.2202,4.2202,4.2202,4.2202,4.2202,4.2202,4.2202,4.2202,4.2202,4.2202,4.2202,4.2202,4.2202,4.2202,4.2202,4.2202,4.2202,4.2206,4.2195,4.1782,4.1064,4.0512,4.0493,4.0496,4.0496,4.0485,4.0498,4.0284,3.9844,3.9436,3.9139,3.8905,3.878,3.8728,3.8689,3.8689,3.8689,3.8689,3.8689,3.8689,3.8689,3.8689,3.8689,3.8689,3.8689,3.8689,3.8689,3.8628,3.8569,4.2202,4.2202,4.2202,4.2202,4.2202,4.2202,4.2202,4.2202,4.2202,4.2202,4.2202,4.2202,4.2202,4.2202,4.2202,4.2202,4.2202,4.2202,4.2202,4.2202,4.2202,4.2202,4.2202,4.2202,4.2202,4.2202,4.2202,4.2189,4.2202,4.2175,4.1973,4.1746,4.2013,4.1975,4.1494,4.1962,4.2138,4.1978,4.1964,4.1842,4.1639,4.1586,4.1534,4.1615,4.1761,4.1937,4.2018,4.2135,4.2162,4.2202,4.2202,4.2202,4.2202,4.2202,4.2202,4.2202,4.2202,4.2202,4.2202,4.2202,4.2202,4.2202,4.2202,4.2202,4.2202,4.2202,4.2202,4.2202,4.2202,4.2202,4.2202,4.2202,4.2202,4.2202,4.2202,4.2202,4.2202,4.2202,4.2202,4.2202,4.2202,4.2202,4.2202,4.2218,4.2168,4.1979,4.1181,4.0532,4.0495,4.0496,4.0496,4.0496,4.0496,4.0426,4.0152,3.9691,3.9244,3.9025,3.8791,3.8742,3.8702,3.8689,3.8689,3.8689,3.8689,3.8689,3.8689,3.8689,3.8689,3.8689,3.8689,3.8689,3.8689,3.8689,3.8642,4.2202,4.2202,4.2202,4.2202,4.2202,4.2202,4.2202,4.2202,4.2202,4.2202,4.2202,4.2202,4.2202,4.2202,4.2202,4.2202,4.2202,4.2202,4.2202,4.2202,4.2202,4.2202,4.2202,4.2202,4.2202,4.2202,4.2202,4.2202,4.2202,4.2189,4.2175,4.2175,4.2175,4.2162,4.2162,4.2189,4.2162,4.2149,4.2151,4.2175,4.2082,4.1975,4.1884,4.1937,4.2071,4.2189,4.2202,4.2202,4.2202,4.2202,4.2202,4.2202,4.2202,4.2202,4.2202,4.2202,4.2202,4.2202,4.2202,4.2202,4.2202,4.2202,4.2202,4.2202,4.2202,4.2202,4.2202,4.2202,4.2202,4.2202,4.2202,4.2202,4.2202,4.2202,4.2202,4.2202,4.2202,4.2202,4.2202,4.2202,4.2202,4.2202,4.2202,4.2202,4.2117,4.1931,4.1501,4.0916,4.0497,4.0501,4.0496,4.0496,4.0496,4.0413,4.0332,4.005,3.9579,3.9034,3.8813,3.8746,3.8687,3.8702,3.8689,3.8689,3.8689,3.8689,3.8689,3.8689,3.8689,3.8689,3.8689,3.8689,3.8689,3.8689,3.8689,4.2202,4.2202,4.2202,4.2202,4.2202,4.2202,4.2202,4.2202,4.2202,4.2202,4.2202,4.2202,4.2202,4.2202,4.2202,4.2202,4.2202,4.2202,4.2202,4.2202,4.2202,4.2202,4.2202,4.2202,4.2202,4.2202,4.2202,4.2202,4.2202,4.2189,4.2082,4.1937,4.2149,4.2109,4.1937,4.2031,4.2202,4.2202,4.2202,4.2202,4.2202,4.2135,4.2135,4.2165,4.2178,4.2202,4.2202,4.2202,4.2202,4.2202,4.2202,4.2202,4.2202,4.2202,4.2202,4.2202,4.2202,4.2202,4.2202,4.2202,4.2202,4.2202,4.2202,4.2202,4.2202,4.2202,4.2202,4.2202,4.2202,4.2202,4.2202,4.2202,4.2202,4.2202,4.2202,4.2202,4.2202,4.2202,4.2202,4.2202,4.2202,4.2202,4.2202,4.2194,4.2208,4.1925,4.1416,4.0863,4.0511,4.0489,4.051,4.0496,4.0496,4.0487,4.0458,4.0415,4.0003,3.9352,3.8822,3.8747,3.8707,3.8702,3.8689,3.8689,3.8689,3.8689,3.8689,3.8689,3.8689,3.8689,3.8689,3.8689,3.8689,3.8689,3.8689]}]]